[[{"header":{"parameterUnit":"m.s-1","parameterCategory":1,"la1":30.6,"la2":29.2853,"lo1":-89.7004,"lo2":-87.6739,"dy":0.0162,"dx":0.0183,"nx":112,"ny":82,"refTime":"2024-03-15T12:00:00:Z","depth":0,"parameterNumber":2,"parameterNumberName":"U-component_of_WINDS"},"data":[0.0,0.0,0.0,0.0,0.0,0.0,0.0,0.0,0.0,0.0,0.0,0.0,0.0,0.0,0.0,0.0,0.0,0.0,0.0,0.0,0.0,0.0,0.0,0.0,0.0,0.0,0.0,0.0,0.0,0.0,0.0,0.0,0.0,0.0,0.0,0.0,0.0,0.0,0.0,0.0,0.0,0.0,0.0,0.0,0.0,0.0,0.0,0.0,0.0,0.0,0.0,0.0,0.0,0.0,0.0,0.0,0.0,0.0,0.0,0.0,0.0,0.0,0.0,0.0,0.0,0.0,0.0,0.0,0.0,0.0,0.0,0.0,0.0,0.0,0.0,0.0,0.0,0.0,0.0,0.0,0.0,0.0,0.0,0.0,0.0,0.0,0.0,0.0,0.0,0.0,0.0,0.8783,0.9252,0.9761,1.0343,1.0205,1.0105,1.0225,0.0,0.0,0.0,0.0,0.0,0.0,0.0,0.0,0.0,0.0,0.0,0.0,0.0,0.0,0.0,0.0,0.0,0.0,0.0,0.0,0.0,0.0,0.0,0.0,0.0,0.0,0.0,0.0,0.0,0.0,0.0,0.0,0.0,0.0,0.0,0.0,0.0,0.0,0.0,0.0,0.0,0.0,0.0,0.0,0.0,0.0,0.0,0.0,0.0,0.0,0.0,0.0,0.0,0.0,0.0,0.0,0.0,0.0,0.0,0.0,0.0,0.0,0.0,0.0,0.0,0.0,0.0,0.0,0.0,0.0,0.0,0.0,0.0,0.0,0.0,0.0,0.0,0.0,0.0,0.0,0.0,0.0,0.0,0.0,0.0,0.0,0.0,0.0,0.0,0.0,0.0,0.0,0.0,0.0,0.0,0.0,0.0,0.0,0.0,0.0,0.0,0.0,0.0,0.0,0.8876,0.9042,0.9674,1.0156,1.0286,1.0866,1.1094,1.0813,0.0,0.0,0.0,0.0,0.0,0.0,0.0,0.0,0.0,0.0,0.0,0.0,0.0,0.0,0.0,0.0,0.0,0.0,0.0,0.0,0.0,0.0,0.0,0.0,0.0,0.0,0.0,0.0,0.0,0.0,0.0,0.0,0.0,0.0,0.0,0.0,0.0,0.0,0.0,0.0,0.0,0.0,0.0,0.0,0.0,0.0,0.0,0.0,0.0,0.0,0.0,0.0,0.0,0.0,0.0,0.0,0.0,0.0,0.0,0.0,0.0,0.0,0.0,0.0,0.0,0.0,0.0,0.0,0.0,0.0,0.0,0.0,0.0,0.0,0.0,0.0,0.0,0.0,0.0,0.0,0.0,0.0,0.0,0.0,0.0,0.0,0.0,0.0,0.0,0.0,0.0,0.0,0.0,0.0,0.0,0.0,0.0,0.0,0.0,0.0,0.0,0.0,0.0,0.8635,0.9579,0.9624,1.0331,1.0729,1.0566,1.1249,1.1385,1.073,1.073,0.0,0.0,0.0,0.0,0.0,0.0,0.0,0.0,0.0,0.0,0.0,0.0,0.0,0.0,0.0,0.0,0.0,0.0,0.0,0.0,0.0,0.0,0.0,0.0,0.0,0.0,0.0,0.0,0.0,0.0,0.0,0.0,0.0,0.0,0.0,0.0,0.0,0.0,0.0,0.0,0.0,0.0,0.0,0.0,0.0,0.0,0.0,0.0,0.0,0.0,0.0,0.0,0.0,0.0,0.0,0.0,0.0,0.0,0.0,0.0,0.0,0.0,0.0,0.0,0.0,0.0,0.0,0.0,0.0,0.0,0.0,0.0,0.0,0.0,0.0,0.0,0.0,0.0,0.0,0.0,0.0,0.0,0.0,0.0,0.0,0.0,0.0,0.0,0.0,0.0,0.0,0.0,0.0,0.0,0.0,0.0,0.0,0.0,0.0,0.0,0.0,0.0,0.9216,0.9892,1.0113,1.084,1.1208,1.1017,1.15,1.1441,1.0515,1.0846,0.0,0.0,0.0,0.0,0.0,0.0,0.0,0.0,0.0,0.0,0.0,0.0,0.0,0.0,0.0,0.0,0.0,0.0,0.0,0.0,0.0,0.0,0.0,0.0,0.0,0.0,0.0,0.0,0.0,0.0,0.0,0.0,0.0,0.0,0.0,0.0,0.0,0.0,0.0,0.0,0.0,0.0,0.0,0.0,0.0,0.0,0.0,0.0,0.0,0.0,0.0,0.0,0.0,0.0,0.0,0.0,0.0,0.0,0.0,0.0,0.0,0.0,0.0,0.0,0.0,0.0,0.0,0.0,0.0,0.0,0.0,0.0,0.0,0.0,0.0,0.0,0.0,0.0,0.0,0.0,0.0,0.0,0.0,0.0,0.0,0.0,0.0,0.0,0.0,0.0,0.0,0.0,0.0,0.0,0.0,0.0,0.0,0.0,0.0,0.0,0.0,0.0,0.9235,0.9513,1.0209,1.0899,1.1369,1.1525,1.1759,1.1469,1.0478,1.0513,0.0,0.0,0.0,0.0,0.0,0.0,0.0,0.0,0.0,0.0,0.0,0.0,0.0,0.0,0.0,0.0,0.0,0.0,0.0,0.0,0.0,0.0,0.0,0.0,0.0,0.0,0.0,0.0,0.0,0.0,0.0,0.0,0.0,0.0,0.0,0.0,0.0,0.0,0.0,0.0,0.0,0.0,0.0,0.0,0.0,0.0,0.0,0.0,0.0,0.0,0.0,0.0,0.0,0.0,0.0,0.0,0.0,0.0,0.0,0.0,0.0,0.0,0.0,0.0,0.0,0.0,0.0,0.0,0.0,0.0,0.0,0.0,0.0,0.0,0.0,0.0,0.0,0.0,0.0,0.0,0.0,0.0,0.0,0.0,0.0,0.0,0.0,0.0,0.0,0.0,0.0,0.0,0.0,0.0,0.0,0.0,0.0,0.0,0.0,0.0,0.0,0.0,1.0024,1.0663,0.0,1.1677,1.2032,1.1869,1.2036,1.1734,1.0713,0.0,0.0,0.0,0.0,0.0,0.0,0.0,0.0,0.0,0.0,0.0,0.0,0.0,0.0,0.0,0.0,0.0,0.0,0.0,0.0,0.0,0.0,0.0,0.0,0.0,0.0,0.0,0.0,0.0,0.0,0.0,0.0,0.0,0.0,0.0,0.0,0.0,0.0,0.0,0.0,0.0,0.0,0.0,0.0,0.0,0.0,0.0,0.0,0.0,0.0,0.0,0.0,0.0,0.0,0.0,0.0,0.0,0.0,0.0,0.0,0.0,0.0,0.0,0.0,0.0,0.0,0.0,0.0,0.0,0.0,0.0,0.0,0.0,0.0,0.0,0.0,0.0,0.0,0.0,0.0,0.0,0.0,0.0,0.0,0.0,0.0,0.0,0.0,0.0,0.0,0.0,0.0,0.0,0.0,0.0,0.0,0.0,0.0,0.0,0.0,0.0,0.0,0.9461,1.0512,1.1351,0.0,1.1994,1.2211,1.2033,1.1894,1.144,1.0606,0.0,0.0,0.0,0.0,0.0,0.0,0.0,0.0,0.0,0.0,0.0,0.0,0.0,0.0,0.0,0.0,0.0,0.0,0.0,0.0,0.0,0.0,0.0,0.0,0.0,0.0,0.0,0.0,0.0,0.0,0.0,0.0,0.0,0.0,0.0,0.0,0.0,0.0,0.0,0.0,0.0,0.0,0.0,0.0,0.0,0.0,0.0,0.0,0.0,0.0,0.0,0.0,0.0,0.0,0.0,0.0,0.0,0.0,0.0,0.0,0.0,0.0,0.0,0.0,0.0,0.0,0.0,0.0,0.0,0.0,0.0,0.0,0.0,0.0,0.0,0.0,0.0,0.0,0.0,0.0,0.0,0.0,0.0,0.0,0.0,0.0,0.0,0.0,0.0,0.0,0.0,0.0,0.0,0.0,0.0,0.0,0.0,0.0,0.0,0.0,0.0,0.0,0.9591,1.0554,1.1302,1.1558,1.1593,1.1746,1.2053,1.1241,1.0508,0.0,0.0,0.0,0.0,0.0,0.0,0.0,0.0,0.0,0.0,0.0,0.0,0.0,0.0,0.0,0.0,0.0,0.0,0.0,0.0,0.0,0.0,0.0,0.0,0.0,0.0,0.0,0.0,0.0,0.0,0.0,0.0,0.0,0.0,0.0,0.0,0.0,0.0,0.0,0.0,0.0,0.0,0.0,0.0,0.0,0.0,0.0,0.0,0.0,0.0,0.0,0.0,0.0,0.0,0.0,0.0,0.0,0.0,0.0,0.0,0.0,0.0,0.0,0.0,0.0,0.0,0.0,0.0,0.0,0.0,0.0,0.0,0.0,0.0,0.0,0.0,0.0,0.0,0.0,0.0,0.0,0.0,0.0,0.0,0.0,0.0,0.0,0.0,0.0,0.0,0.0,0.0,0.0,0.0,0.0,0.0,0.0,0.0,0.0,0.0,0.0,0.0,0.0,0.0,1.0759,1.1567,1.167,1.1877,1.2082,1.2226,1.1397,1.0851,1.0855,0.0,0.0,0.0,0.0,0.0,0.0,0.0,0.0,0.0,0.0,0.0,0.0,0.0,0.0,0.0,0.0,0.0,0.0,0.0,0.0,0.0,0.0,0.0,0.0,0.0,0.0,0.0,0.0,0.0,0.0,0.0,0.0,0.0,0.0,0.0,0.0,0.0,0.0,0.0,0.0,0.0,0.0,0.0,0.0,0.0,0.0,0.0,0.0,0.0,0.0,0.0,0.0,0.0,0.0,0.0,0.0,0.0,0.0,0.0,0.0,0.0,0.0,0.0,0.0,0.0,0.0,0.0,0.0,0.0,0.0,0.0,0.0,0.0,0.0,0.0,0.0,0.0,0.0,0.0,0.0,0.0,0.0,0.0,0.0,0.0,0.0,0.0,0.0,0.0,0.0,0.0,0.0,0.0,0.0,0.0,0.0,0.0,0.0,0.0,0.0,0.0,0.0,0.9661,1.0844,1.1789,1.2066,1.2273,1.2361,1.231,1.1654,1.1221,1.1206,0.0,0.0,0.0,0.0,0.0,0.0,0.0,0.0,0.0,0.0,0.0,0.0,0.0,0.0,0.0,0.0,0.0,0.0,0.0,0.0,0.0,0.0,0.0,0.0,0.0,0.0,0.0,0.0,0.0,0.0,0.0,0.0,0.0,0.0,0.0,0.0,0.0,0.0,0.0,0.0,0.0,0.0,0.0,0.0,0.0,0.0,0.0,0.0,0.0,0.0,0.0,0.0,0.0,0.0,0.0,0.0,0.0,0.0,0.0,0.0,0.0,0.0,0.0,0.0,0.0,0.0,0.0,0.0,0.0,0.0,0.0,0.0,0.0,0.0,0.0,0.0,0.0,0.0,0.0,0.0,0.0,0.0,0.0,0.0,0.0,0.0,0.0,0.0,0.0,0.0,0.0,0.0,0.0,0.0,0.0,0.0,0.0,0.0,0.0,0.0,0.0,0.0,0.9772,1.0865,1.1893,1.2615,1.2742,1.2646,1.2446,1.1994,1.1601,1.1306,0.0,0.0,0.0,0.0,0.0,0.0,0.0,0.0,0.0,0.0,0.0,0.0,0.0,0.0,0.0,0.0,0.0,0.0,0.0,0.0,0.0,0.0,0.0,0.0,0.0,0.0,0.0,0.0,0.0,0.0,0.0,0.0,0.0,0.0,0.0,0.0,0.0,0.0,0.0,0.0,0.0,0.0,0.0,0.0,0.0,0.0,0.0,0.0,0.0,0.0,0.0,0.0,0.0,0.0,0.0,0.0,0.0,0.0,0.0,0.0,0.7091,0.0,0.0,0.0,0.0,0.0,0.0,0.0,0.0,0.0,0.0,0.0,0.0,0.0,0.0,0.0,0.0,0.0,0.0,0.0,0.0,0.0,0.0,0.0,0.0,0.0,0.0,0.0,0.0,0.0,0.0,0.0,0.0,0.0,0.0,0.0,0.0,0.0,0.0,0.0,0.0,0.0,1.0309,1.119,1.2002,1.2615,1.2961,1.3199,1.3258,1.2443,1.1956,1.1964,0.0,0.0,0.0,0.0,0.0,0.0,0.0,0.0,0.0,0.0,0.0,0.0,0.0,0.0,0.0,0.0,0.0,0.0,0.0,0.0,0.0,0.0,0.0,0.0,0.0,0.0,0.0,0.0,0.0,0.0,0.0,0.0,0.0,0.0,0.0,0.0,0.0,0.0,0.0,0.0,0.0,0.0,0.0,0.0,0.0,0.0,0.0,0.0,0.0,0.0,0.0,0.0,0.0,0.0,0.0,0.0,0.0,0.0,0.0,0.0,0.0,0.8023,0.0,0.0,0.0,0.0,0.0,0.0,0.0,0.0,0.0,0.0,0.0,0.0,0.0,0.0,0.0,0.0,0.0,0.0,0.0,0.0,0.0,0.0,0.0,0.0,0.0,0.0,0.0,0.0,0.0,0.0,0.0,0.0,0.0,0.0,0.0,0.0,0.0,0.0,0.0,0.0,1.0636,1.1369,1.2165,1.3162,1.351,1.3471,1.3068,1.2623,1.2183,1.1751,1.0312,0.0,0.0,0.0,0.0,0.0,0.0,0.0,0.0,0.0,0.0,0.0,0.0,0.0,0.0,0.0,0.0,0.0,0.0,0.0,0.0,0.0,0.0,0.0,0.0,0.0,0.0,0.0,0.0,0.0,0.0,0.0,0.0,0.0,0.0,0.0,0.0,0.0,0.0,0.0,0.0,0.0,0.0,0.0,0.0,0.0,0.0,0.0,0.0,0.0,0.0,0.0,0.0,0.0,0.0,1.0103,1.0091,1.0146,1.0201,1.0132,0.9091,0.8619,0.8627,0.0,0.0,0.0,0.0,0.0,0.0,0.0,0.0,0.0,0.0,0.0,0.0,0.0,0.0,0.0,0.0,0.0,0.0,0.0,0.0,0.0,0.0,0.0,0.0,0.0,1.3262,1.3556,0.0,0.0,0.0,0.0,0.0,0.0,0.0,0.0,0.0,0.0,0.0,0.0,1.0994,1.1535,1.239,1.3776,1.4013,1.374,1.2916,1.2872,1.2465,1.1575,1.0327,0.9853,0.0,0.0,0.0,0.0,0.0,0.0,0.0,0.0,0.0,0.0,0.0,0.0,0.0,0.0,0.0,0.0,0.0,0.0,0.0,0.0,0.0,0.0,0.0,0.0,0.0,0.0,0.0,0.0,0.0,0.0,0.0,0.0,0.8265,0.8705,0.0,0.0,0.0,0.0,0.0,0.0,0.0,0.0,0.0,0.0,0.0,0.0,0.0,0.0,0.8211,0.8707,0.8869,0.8731,0.9794,1.0029,0.962,1.0199,1.0225,0.9852,0.9915,0.0,0.9533,0.9661,0.0,0.0,0.0,0.0,0.0,0.0,0.0,0.0,0.0,0.0,0.0,0.0,0.0,0.0,0.0,0.0,0.0,0.0,0.0,0.0,0.0,0.0,1.5025,1.4843,1.5277,1.5698,0.0,1.3898,1.2194,1.1603,0.0,0.0,0.0,0.0,0.0,0.0,0.0,0.0,1.1718,1.1984,1.2558,1.3847,1.4246,1.4369,1.4249,1.3572,1.3033,1.2781,1.1144,1.0214,1.03,0.9643,0.0,0.0,0.0,0.0,0.0,0.0,0.0,0.0,0.0,0.0,0.0,0.0,0.0,0.0,0.0,0.0,0.0,0.0,0.0,0.0,0.0,0.0,0.0,0.0,0.0,0.0,0.0,0.0,0.0,0.8069,0.8469,0.8358,0.8389,0.8571,0.0,0.0,0.0,0.0,0.0,0.0,0.0,0.0,0.0,0.7927,0.8,0.8356,0.9082,0.9442,0.9737,0.9973,1.0604,1.0797,1.062,1.0916,1.0942,1.0748,1.0878,1.0765,1.0557,1.0429,1.0367,1.0278,0.0,0.0,0.0,0.0,0.0,1.2601,1.3693,0.0,0.0,0.0,0.0,0.0,0.0,0.0,0.0,0.0,0.0,0.0,0.0,0.0,0.0,1.5874,1.6066,1.6244,1.6236,1.5127,1.3936,0.0,1.3081,1.2675,1.141,0.0,0.0,0.0,0.0,0.0,1.2,1.2489,1.3038,1.3686,1.4322,1.4547,1.4228,1.3558,1.3157,1.3182,1.1338,1.0569,1.1347,1.0169,0.9514,0.0,0.0,0.0,0.0,0.0,0.0,0.0,0.0,0.0,0.0,0.0,0.0,0.0,0.0,0.0,0.0,0.0,0.0,0.0,0.0,0.0,0.0,0.0,0.0,0.0,0.0,0.0,0.0,0.8428,0.8581,0.79,0.8079,0.8378,0.0,0.0,0.0,0.0,0.0,0.0,0.7321,0.7381,0.7713,0.8352,0.846,0.894,0.9869,1.0126,1.0436,1.0753,1.1099,1.1287,1.1255,1.1362,1.1421,1.141,1.1485,1.145,1.1342,1.1019,1.0987,1.1112,1.1049,1.1146,1.1427,1.2465,1.3052,1.3509,1.5098,1.5405,1.5175,1.5291,0.0,1.4379,1.3925,0.0,0.0,0.0,0.0,1.5347,1.5658,0.0,1.6944,1.6687,1.6798,1.6908,1.6812,1.633,1.5655,0.0,1.4124,1.3402,1.2321,0.0,0.0,0.0,0.0,1.2274,1.2423,1.2957,1.3432,1.3775,1.4373,1.4612,1.4222,1.3643,1.3372,1.3453,1.1698,1.1127,1.2096,1.0749,1.0083,0.0,0.0,0.0,0.0,0.0,0.0,0.0,0.0,0.0,0.0,0.0,0.0,0.0,0.0,0.0,0.0,0.0,0.0,0.0,0.0,0.0,0.0,0.0,0.0,0.0,0.0,0.0,0.0,0.0,0.0,0.7744,0.8723,0.0,0.0,0.0,0.0,0.7891,0.7686,0.7771,0.8121,0.8099,0.8446,0.9289,0.9517,0.9758,1.0089,1.0552,1.0562,1.0157,1.0679,1.0833,1.0659,1.0957,1.1158,1.1223,1.141,1.1601,1.1743,1.133,1.1099,1.0955,1.1381,1.179,1.2269,1.3409,1.4272,1.5004,1.5935,1.6389,1.667,1.7116,1.682,1.6208,1.5929,1.5396,0.0,0.0,1.6059,1.6084,1.6746,1.7376,1.7776,1.7585,1.796,1.8341,1.8145,1.7532,1.666,0.0,1.4837,1.4266,1.3688,0.0,1.316,1.2607,1.2411,1.2566,1.3236,1.3364,1.3642,1.4288,1.456,1.47,1.4672,1.422,1.3926,1.3868,1.271,1.2017,1.2012,1.1495,1.0891,1.0229,0.9768,0.0,0.0,0.0,0.0,0.0,0.0,0.0,0.0,0.0,0.0,0.0,0.0,0.0,0.0,0.0,0.0,0.0,0.0,0.0,0.0,0.0,0.0,0.0,0.0,0.0,0.0,0.0,0.0,0.8412,0.8742,0.0,0.0,0.8697,0.8569,0.881,0.8278,0.8139,0.8627,0.9166,0.9524,0.9638,1.0136,1.0371,1.0302,1.0428,1.0477,1.0428,1.0708,1.0822,1.0812,1.0995,1.1158,1.1346,1.1384,1.1586,1.1861,1.181,1.1885,1.2121,1.2576,1.317,1.3899,1.4519,1.5515,1.6605,1.6886,1.7116,1.7233,1.7014,1.6888,1.685,1.6723,1.664,1.6695,1.7355,1.7475,1.7516,1.8028,1.8298,1.8356,1.8128,1.8204,1.8333,1.8121,1.7628,1.704,1.6504,1.5954,1.5408,1.4785,1.4937,1.4775,1.3677,1.3829,1.3864,1.3227,1.3655,1.4001,1.3898,1.4415,1.4777,1.4777,1.4278,1.4012,1.4041,1.2809,1.2167,1.2238,1.1613,1.0948,1.0348,1.0236,0.9826,0.0,0.0,0.0,0.0,0.0,0.0,0.0,0.0,0.0,0.0,0.0,0.0,0.0,0.0,0.0,0.0,0.0,0.0,0.0,0.0,0.0,0.0,0.0,0.0,0.0,0.0,0.9123,0.8621,0.888,0.9111,0.9262,0.8961,0.892,0.929,0.8932,0.8835,0.9149,0.9819,1.0059,0.9862,1.0366,1.0526,1.0312,1.0312,1.0361,1.039,1.0631,1.0736,1.0725,1.0947,1.1109,1.1319,1.1309,1.1511,1.1774,1.1957,1.2258,1.2686,1.3351,1.4005,1.4641,1.5452,1.6414,1.739,1.7801,1.7909,1.7881,1.7743,1.7691,1.7684,1.7993,1.8172,1.8373,1.8613,1.8892,1.9159,1.9185,1.9127,1.8984,1.8719,1.8458,1.8226,1.8028,1.7779,1.7479,1.7338,1.6709,1.605,1.5618,1.5806,1.5689,1.4621,1.4816,1.4688,1.3592,1.4011,1.4265,1.3946,1.4387,1.4732,1.4839,1.4522,1.4284,1.4113,1.3168,1.2532,1.2375,1.1684,1.1015,1.0411,1.0509,1.0122,0.9237,0.0,0.0,0.0,0.0,0.0,0.0,0.0,0.0,0.0,0.0,0.0,0.0,0.0,0.0,0.0,0.0,0.0,0.0,0.0,0.0,0.0,0.0,0.0,0.8862,0.9561,0.9573,0.8299,0.9112,0.9429,0.8538,0.9281,0.9664,0.9273,0.9599,0.9783,0.9704,0.998,1.0059,0.998,1.0186,1.0254,1.0079,1.0302,1.0273,1.0019,1.0409,1.0554,1.0438,1.0766,1.0978,1.1134,1.1189,1.1341,1.1566,1.1819,1.2148,1.2543,1.3667,1.4134,1.4456,1.6135,1.6973,1.7439,1.8631,1.8831,1.8683,1.9447,1.9234,1.8864,1.9738,2.0034,2.005,1.9723,2.0264,2.0787,2.0059,1.9821,1.9701,1.9321,1.8765,1.8226,1.8028,1.7988,1.7962,1.7909,1.7009,1.6263,1.6263,1.6082,1.5806,1.5394,1.5236,0.0,1.4409,1.4378,1.4475,1.4529,1.4529,1.4624,1.4871,1.4966,1.4741,1.4113,1.3758,1.322,1.2341,1.1806,1.1183,1.0477,1.0635,1.0533,1.0173,0.0,0.0,0.0,0.0,0.0,0.0,0.0,0.0,0.0,0.0,0.0,0.0,0.0,0.0,0.0,0.0,0.0,0.0,0.0,0.0,0.0,0.0,0.917,0.9479,0.9337,0.9158,0.9,0.9331,0.9582,0.9645,0.967,0.9866,1.0273,0.993,0.9802,0.9994,1.0375,1.0374,0.9872,1.0385,1.0475,1.0088,1.0127,1.0137,1.0215,1.0615,1.0874,1.0975,1.1324,1.1652,1.1913,1.1913,1.2151,1.2549,1.274,1.31,1.3509,1.3653,1.4212,1.5055,1.5997,1.7357,1.8834,1.9764,1.9788,1.9487,1.9764,1.9337,1.8912,1.9699,1.9995,2.0059,2.0002,2.0167,2.0164,1.9343,1.8992,1.881,1.8571,1.8353,1.8189,1.7989,1.7975,1.7962,1.7909,1.7676,1.7509,1.7509,1.7456,1.7077,1.6077,0.0,0.0,1.5107,1.5139,1.5192,1.5225,1.5352,1.5235,1.4651,1.4859,1.4526,0.0,1.3349,1.3103,1.2551,1.2274,1.2109,1.1989,1.1305,1.1086,0.0,0.0,0.0,0.0,0.0,0.0,0.0,0.0,0.0,0.0,0.0,0.0,0.0,0.0,0.0,0.0,0.0,0.0,0.0,0.0,0.0,0.0,0.864,0.8941,0.9482,0.9181,0.9002,0.911,0.9366,0.9632,0.9853,1.0114,1.0409,1.0766,1.0516,1.0324,1.0301,1.0522,1.0406,0.9911,1.0217,1.0343,1.0307,1.0236,1.0321,1.0666,1.0926,1.1116,1.1318,1.1551,1.1757,0.0,1.2222,1.2521,1.2931,1.3223,1.3604,0.0,0.0,0.0,0.0,0.0,1.8233,1.9642,2.0161,2.002,1.9719,2.0272,1.9686,1.9037,2.0251,2.0373,2.0103,2.0034,2.0425,2.0602,1.9387,1.9383,1.9654,1.9141,1.8796,1.8535,1.8413,1.8234,1.8055,1.7935,0.0,0.0,1.8108,1.8082,1.7765,1.6817,1.6679,1.6459,0.0,1.591,1.5881,1.5683,1.575,1.5529,1.4868,1.4921,0.0,0.0,0.0,1.3563,1.2996,1.2668,0.0,0.0,0.0,1.2143,1.2968,0.0,0.0,0.0,1.2453,1.2836,0.0,0.0,0.0,0.0,0.0,0.0,0.0,0.0,0.0,0.0,0.0,0.0,0.0,0.0,0.0,0.0,0.8607,0.8626,0.9145,0.9116,0.9003,0.8979,0.9333,0.9649,0.9735,1.0556,1.1072,1.0972,1.1072,1.1035,1.0696,0.0,0.0,0.0,0.0,1.0065,1.0545,1.0466,1.068,1.1195,1.1242,1.135,1.1562,1.1611,1.1773,1.2047,1.2366,1.2701,1.3053,1.3443,1.39,1.4368,1.5147,1.5699,1.6325,1.8017,1.9282,0.0,0.0,0.0,0.0,2.0862,2.0217,1.9287,2.1055,2.0996,2.0266,2.0142,2.1007,2.1628,2.0004,2.0472,2.1194,2.0427,1.9712,1.9142,1.9142,1.8671,1.8228,1.8121,1.8175,1.8268,1.8319,1.8254,1.8021,1.7425,1.7329,1.7186,1.6788,1.6718,1.6564,1.6156,0.0,0.0,1.532,1.5203,1.4917,1.4298,1.4395,1.4217,1.3645,1.3197,1.3203,1.3797,1.3292,1.347,1.4378,1.4313,1.439,1.4603,1.3929,1.3875,0.0,0.0,0.0,0.0,0.0,0.0,0.0,0.0,0.0,0.0,0.0,0.0,0.0,0.0,0.0,0.8471,0.8646,0.8928,0.9325,0.9249,0.9257,0.9453,0.9589,0.9961,1.0577,1.0918,1.1186,1.1396,1.1134,1.0971,1.1071,1.0489,0.0,1.0243,1.0058,1.0094,1.0354,1.0504,1.0801,1.1205,0.0,0.0,1.1926,1.2319,1.2579,1.2722,1.2929,1.3331,1.3804,1.4236,1.4832,1.5456,1.5553,1.633,1.7552,1.8697,1.9773,2.0753,2.1513,2.1335,2.0859,2.1336,2.0797,2.0147,2.1223,2.144,0.0,2.1399,2.1715,2.1772,2.0838,2.074,2.0798,2.0599,2.0005,1.9512,1.9512,1.9033,1.862,1.863,1.8606,1.8581,1.8553,1.8397,1.811,1.7697,1.7562,1.752,1.7466,1.7517,1.7547,1.7512,1.7534,1.711,1.5931,1.5973,1.5513,1.4213,1.4269,1.4324,1.4319,1.477,1.4854,1.4504,1.4453,1.4547,1.4856,1.4851,1.5427,1.6521,1.5443,1.4959,0.0,0.0,0.0,0.0,0.0,0.0,0.0,0.0,0.0,0.0,0.0,0.8621,0.0,0.0,0.8443,0.8434,0.8656,0.8906,0.9187,0.9142,0.9259,0.9714,0.99,1.0199,1.0637,1.0988,1.1277,1.141,1.1204,1.1103,1.1101,1.072,1.0472,1.0451,1.0389,1.048,1.0785,1.0995,1.1241,1.1668,1.1921,1.212,1.2263,1.258,1.2774,1.2929,1.3238,1.3647,1.4071,1.4697,1.53,1.5836,1.6088,1.6992,1.8254,1.9285,2.0241,2.1111,2.1791,2.1592,2.1178,2.1744,2.1221,2.0656,2.1737,2.1713,2.1341,2.1672,2.1903,2.1887,2.0996,2.1326,2.1758,2.1327,2.0726,2.0312,2.0641,1.9929,1.9344,1.9644,1.9715,1.9675,1.966,1.9579,1.9214,1.8333,1.8064,1.8012,1.82,1.8229,1.8152,1.7971,1.7964,1.7496,1.6293,1.5983,1.5532,1.476,1.4761,1.4848,1.4935,1.5286,1.5389,1.5162,1.5177,1.5304,1.5497,1.547,1.5831,1.654,1.5982,1.5872,0.0,0.0,0.0,0.0,0.0,0.0,0.0,0.0,0.7918,0.8522,0.829,0.8168,0.8871,0.8638,0.8345,0.8472,0.8594,0.8799,0.9199,0.9125,0.9298,0.9885,1.007,1.0235,1.0471,1.0895,1.1115,1.1115,1.1183,1.1189,1.1024,1.0898,1.0771,1.0595,1.0623,1.0819,1.1196,1.1372,1.1668,1.2026,1.2224,1.2382,1.248,1.2627,1.2832,1.2978,1.3488,1.3847,1.4222,1.512,1.5574,1.5808,1.6694,1.7591,1.849,1.9706,2.0588,2.1229,2.1664,2.1536,2.1296,2.1969,2.16,2.1154,2.2209,2.1973,2.1439,2.183,2.2164,2.2235,2.1369,2.2106,2.2922,2.2206,2.1556,2.1281,2.1744,2.0909,2.022,2.0681,2.0782,2.0782,2.0782,2.074,2.0271,1.9105,1.8711,1.8655,1.8774,1.8736,1.8589,1.8245,1.8223,1.7824,1.6723,1.5873,1.5374,1.5328,1.5313,1.5328,1.5418,1.5418,1.5448,1.561,1.561,1.5726,1.5955,1.5942,1.6063,1.6363,1.6327,1.6585,-0.4297,-0.0972,0.0,0.3371,0.4621,0.5738,0.0,0.0,0.7502,0.8334,0.8367,0.8303,0.8529,0.8464,0.8407,0.8472,0.8521,0.8797,0.9588,0.9504,0.954,1.0123,0.977,0.9721,1.0341,1.0456,1.0432,1.0335,1.0831,1.1108,1.1116,1.0753,1.0511,1.0525,1.0516,1.059,1.0776,1.1242,1.1584,1.1769,1.2224,1.2431,1.2323,1.2735,1.2929,1.3133,1.3689,1.4197,1.4684,1.5777,1.5926,1.5697,1.726,1.7974,1.8276,1.9538,2.0478,2.1082,2.1616,2.1704,2.1615,2.1921,2.1946,2.1909,2.2189,2.2441,2.2701,2.2773,2.3025,2.3303,2.3083,2.3054,2.3068,2.2846,2.2396,2.2088,2.2161,2.1549,2.1108,2.1292,2.1114,2.1003,2.1126,2.0893,2.0469,1.9769,1.9655,1.9415,1.8782,1.8774,1.8846,1.8962,1.9074,1.8693,1.7552,1.6184,1.5418,1.5463,1.5358,1.5358,1.5477,1.5418,1.5448,1.561,1.561,1.5668,1.5827,1.5926,1.6561,1.7664,1.7212,1.7028,-0.4265,0.0,0.0,0.0,0.2838,0.3905,0.5214,0.5802,0.6422,0.7493,0.7619,0.7675,0.8144,0.8021,0.7946,0.0,0.8315,0.8653,0.9251,0.9408,0.9579,0.9963,0.9659,0.9461,0.9644,0.977,0.9825,0.9675,1.0058,1.0235,1.0187,1.0237,1.0278,1.0334,1.0688,1.0896,1.1045,1.149,1.1778,1.1828,1.2274,1.248,1.2431,1.2725,1.2968,1.319,1.3678,1.4057,1.4348,1.5118,1.5349,1.5439,1.7086,1.7601,1.7663,1.9279,2.0334,2.101,2.152,2.1712,2.1746,2.2044,2.231,2.254,2.2523,2.3103,2.3714,2.3622,2.3774,2.4044,2.4474,2.3955,2.3437,2.3881,2.3243,2.2604,2.3018,2.2446,2.1924,2.232,2.2221,2.2135,2.212,2.2062,2.1758,2.1082,2.0323,1.9749,1.9541,1.9157,1.9003,1.9176,1.8664,1.8106,1.7629,1.632,1.5507,1.5507,1.5433,1.5463,1.5551,1.592,1.6233,1.6338,1.6712,1.6938,1.7014,1.7061,1.7347,1.7794,1.7667,1.7821,-0.4149,0.0,0.0,0.0413,0.1429,0.2401,0.3948,0.46,0.5255,0.6398,0.6579,0.6784,0.7353,0.7286,0.0,0.7457,0.7816,0.823,0.8658,0.8989,0.9343,0.9581,0.9366,0.9096,0.8852,0.922,0.9374,0.9142,0.9358,0.9546,0.9549,0.9835,1.0124,1.0278,1.0831,1.1226,1.1326,1.1728,1.1877,1.1877,1.2274,1.248,1.248,1.2813,1.3094,1.3266,1.3621,1.3915,1.4161,1.4724,1.4981,1.5165,1.6812,1.7315,1.7365,1.9015,2.0096,2.0797,2.1369,2.1712,2.1902,2.2091,2.2402,2.2723,2.2735,2.3373,2.4043,2.3952,2.4103,2.4403,2.4865,2.4268,2.3716,2.4267,2.3653,2.314,2.3606,2.315,2.2758,2.3084,2.3068,2.2947,2.2886,2.2902,2.2671,2.2077,2.0978,2.0157,2.0049,1.9445,1.9093,1.9302,1.8263,1.7688,1.7885,1.65,1.5654,1.5802,1.561,1.5507,1.558,1.6054,1.6397,1.6548,1.7163,1.7524,1.7634,1.78,1.7917,1.8032,1.821,1.8606,0.0,0.0,-0.1943,-0.0518,0.0561,0.1561,0.277,0.3507,0.4172,0.5009,0.5361,0.5673,0.5981,0.6198,0.6372,0.652,0.6953,0.738,0.7856,0.8261,0.865,0.8884,0.8669,0.8461,0.0,0.8906,0.9134,0.8674,0.8906,0.9283,0.9647,0.9784,0.9998,1.0498,1.1015,1.1326,1.1326,1.1728,1.1828,1.1719,1.2234,1.2421,1.2323,1.2939,1.3266,1.342,1.3668,1.3999,1.4406,1.5067,1.5085,1.497,1.6632,1.7448,1.781,1.8854,1.9629,2.0368,2.1267,2.1746,2.1996,2.1996,2.2077,2.2278,2.2509,2.3008,2.3451,2.348,2.3857,2.4112,2.3756,2.3726,2.3711,2.3437,2.3581,2.3724,2.3553,2.3566,2.3493,2.3304,2.3201,2.3082,2.3082,2.2992,2.2804,2.2505,2.173,2.084,1.9921,1.9392,1.9139,1.9302,1.8263,1.7881,1.8627,1.6784,1.5876,1.6514,1.5831,1.5418,1.5507,1.5477,1.5507,1.5639,1.6307,1.6741,1.6924,1.7527,1.816,1.8872,1.894,1.922,0.0,0.0,-0.2601,-0.1138,-0.0309,0.0526,0.1999,0.2713,0.3262,0.4152,0.4554,0.4915,0.5319,0.5454,0.5661,0.6198,0.6746,0.7273,0.7592,0.8174,0.8564,0.862,0.8609,0.0,0.0,0.0,0.0,0.832,0.8468,0.8723,0.9014,0.8974,0.9074,0.9435,0.9896,1.0311,1.0557,1.1197,1.1619,1.1828,1.2283,1.248,1.2421,1.2852,1.3094,1.3142,1.3525,1.381,1.401,1.4395,1.4562,1.4682,1.5985,1.6634,1.6931,1.8474,1.9436,2.0186,2.093,2.1423,2.1746,2.1841,2.231,2.2768,2.2663,2.3421,2.4342,2.4253,2.4402,2.4728,2.5196,2.4548,2.4124,2.5431,2.5423,2.5137,2.5137,2.4964,2.4766,2.4692,2.3958,2.3546,2.4069,2.3603,2.2937,2.2264,2.1295,2.0372,1.9431,1.9284,1.9213,1.9176,1.8647,1.8322,1.85,1.7537,1.6808,1.6555,1.6654,1.6375,1.5522,1.6855,1.7394,1.701,1.7732,1.8158,1.8223,1.7964,1.8158,1.8786,1.8936,1.9318,-0.4659,-0.3874,-0.2959,-0.1591,-0.0983,-0.0268,0.1251,0.1964,0.2512,0.3326,0.3757,0.4089,0.4392,0.4684,0.4969,0.5353,0.6084,0.6659,0.6792,0.7542,0.8134,0.8268,0.8265,0.0,0.0,0.0,0.0,0.8143,0.8143,0.8281,0.8616,0.8569,0.8663,0.8904,0.964,1.0164,1.0326,1.103,1.1528,1.1877,1.2175,1.2323,1.2431,1.2764,1.292,1.2968,1.3334,1.3563,1.3716,1.3894,1.4093,1.4381,1.5506,1.6032,1.6433,1.7946,1.89,1.9564,2.0704,2.1423,2.1841,2.1996,2.2402,2.2904,2.2799,2.3466,2.4283,2.4312,2.4445,2.4682,2.5299,2.5056,2.4918,2.6197,2.6471,2.6344,2.5889,2.5966,2.5963,2.5464,2.5034,2.4778,2.4837,2.3802,2.2899,2.2741,2.1545,2.046,1.9895,1.971,1.9602,1.9511,1.892,1.8599,1.875,1.7983,1.732,1.686,1.7199,1.6949,1.5905,1.7388,1.8049,1.765,1.8115,1.8407,1.8459,1.8005,1.814,1.8786,1.8936,1.9334,-0.439,-0.3679,-0.2968,-0.1906,-0.1433,-0.0851,0.0537,0.1299,0.1859,0.25,0.2933,0.3219,0.0,0.0,0.4284,0.406,0.5021,0.5741,0.5634,0.6468,0.7295,0.0,0.0,0.0,0.0,0.0,0.0,0.8126,0.0,0.8105,0.8504,0.8645,0.8771,0.8904,1.0122,1.0723,1.0567,1.1178,1.1628,1.1877,1.1877,1.2026,1.2332,1.2578,1.2774,1.2929,1.3132,1.3372,1.3573,1.3563,1.3716,1.411,1.5115,1.5724,1.6185,1.7255,1.7952,1.8627,2.0497,2.1561,2.2142,2.231,2.2463,2.2646,2.2844,2.3083,2.3363,2.3711,2.3952,2.412,2.4245,2.5192,2.605,2.5823,2.6774,2.7391,2.6037,2.6732,2.7232,2.589,2.6458,2.6728,2.5426,2.3705,2.2885,2.4001,2.2635,2.1414,2.1129,2.0636,2.0288,2.0288,1.9235,1.8787,1.9483,1.8249,1.7456,1.7629,1.7593,1.7282,1.6634,1.7225,1.7548,1.7629,1.7453,1.7471,1.7697,1.7587,1.7981,1.8842,1.8955,1.9265,-0.4619,-0.3902,-0.3256,-0.2144,-0.1748,-0.1208,0.0089,0.0851,0.146,0.1864,0.2474,0.2953,0.0,0.0,0.0,0.4206,0.4932,0.0,0.559,0.6312,0.0,0.0,0.0,0.75,0.8093,0.8028,0.0,0.0,0.8463,0.8693,0.8864,0.8713,0.8686,0.877,0.9323,0.973,0.9848,1.0839,1.1427,1.1628,1.1778,1.2026,1.2332,1.2578,1.2774,1.2929,1.3065,1.3248,1.342,1.3314,1.3515,1.3879,1.4352,1.4968,1.5638,1.6195,1.7003,1.8064,1.9323,2.021,2.084,2.1702,2.2184,2.2509,2.2709,2.3083,2.3509,2.3754,2.3982,2.4399,2.5313,2.5783,2.6419,2.7911,2.9058,2.966,2.9301,2.9926,3.0452,3.019,2.9696,2.8746,2.6968,2.6156,2.5843,2.6135,2.5725,2.4329,2.148,2.1213,2.1324,2.1324,2.0733,2.0685,2.1566,1.9925,1.8997,1.9283,1.9688,1.9415,1.8265,1.8973,1.9394,1.935,1.7746,1.7141,1.7697,1.7126,1.7262,1.8017,1.856,1.9471,-0.4721,-0.3944,-0.3211,-0.2326,-0.1927,-0.1389,-0.0224,0.0448,0.1019,0.1526,0.2015,0.0,0.0,0.0,0.0,0.0,0.0,0.0,0.5398,0.6058,0.6701,0.0,0.7125,0.0,0.803,0.7984,0.7978,0.0,0.8524,0.8625,0.8539,0.8552,0.8502,0.8365,0.9062,0.9617,0.9976,1.0822,1.1226,1.1226,1.1578,1.1828,1.2026,1.2274,1.248,1.2735,0.0,1.3113,1.3238,1.3228,1.3372,1.3668,1.3847,1.4301,1.492,1.5334,1.6174,1.7314,1.8417,1.9313,2.0152,2.1411,2.1996,2.2278,2.2586,2.2949,2.3304,2.361,2.3925,2.4409,2.5648,2.6568,2.7657,2.9382,3.0801,3.1637,3.1089,3.1724,3.229,3.199,3.1001,2.9779,2.8434,2.7177,2.6267,2.5913,2.5349,2.4185,2.2059,2.2552,2.3055,2.3055,2.2254,2.1729,2.1825,2.0787,2.0114,2.0046,2.0644,2.0716,2.0107,2.0773,2.0969,2.0573,1.8914,1.8075,1.8097,1.7314,1.7279,1.8015,1.8435,1.9235,-0.461,-0.3805,-0.3123,-0.2457,-0.2014,-0.1478,-0.0492,0.0045,0.0578,0.1367,0.0,0.1967,0.2654,0.0,0.3469,0.3738,0.0,0.5211,0.5196,0.5872,0.6544,0.6977,0.7112,0.7507,0.8265,0.8141,0.8099,0.8378,0.8423,0.8318,0.8006,0.8417,0.8502,0.8153,0.9249,1.0051,1.0573,1.0871,1.1023,1.0972,1.1318,1.1654,1.1899,1.1945,1.2203,1.2654,0.0,0.0,1.2978,1.3094,1.3218,1.3362,1.3515,1.38,1.4233,1.4753,1.5568,1.6574,1.777,1.8773,1.9755,2.122,2.1793,2.1996,2.2417,2.2678,2.2979,2.3465,2.3891,2.4492,2.5763,2.754,2.9286,3.03,3.2081,3.3259,3.2095,3.2742,3.3311,3.244,3.1333,3.0343,2.9766,2.7745,2.5961,2.5273,2.4138,2.3392,2.3579,2.4204,2.4664,2.4814,2.3617,2.2506,2.1781,2.1473,2.1121,2.0744,2.1257,2.1697,2.199,2.2374,2.23,2.1714,2.0523,1.9621,1.9017,1.8083,1.7981,1.8635,1.8805,1.9151,-0.418,-0.3723,-0.3388,-0.2502,-0.2059,-0.1569,-0.0805,-0.0179,0.0,0.0,0.0,0.2161,0.2631,0.3296,0.0,0.4244,0.0,0.0,0.0,0.0,0.649,0.0,0.0,0.0,0.0,0.0,0.0,0.0,0.0,0.0,0.8515,0.8867,0.9217,0.9475,0.9688,1.0102,1.082,1.0769,1.0972,1.1427,1.1477,1.1989,1.287,1.2532,1.2719,1.3328,0.0,0.0,1.248,1.2676,1.29,1.3064,1.3218,1.3563,1.411,1.4832,1.5452,1.6183,1.7552,1.8499,1.9317,2.0686,2.1277,2.1616,2.2137,2.2495,2.2844,2.3363,2.4383,2.5614,2.6808,2.8662,3.0298,3.0661,3.2659,3.4218,3.3282,3.3819,3.4215,3.3337,3.2426,3.152,3.0718,2.9615,2.8791,2.8657,2.7788,2.7426,2.8222,2.5536,2.3948,2.4942,2.4365,2.419,2.4844,2.3337,2.2628,2.3299,2.3451,2.3539,2.3588,2.3263,2.327,2.3695,2.1629,2.0751,2.1161,2.0018,1.9572,1.982,2.0267,2.0442,-0.4105,-0.3565,-0.3037,-0.2546,-0.2059,-0.1569,-0.0985,0.0,0.0,0.0,0.0,0.2769,0.2955,0.0,0.0,0.0,0.0,0.0,0.0,0.0,0.0,0.0,0.0,0.0,0.0,0.0,0.0,0.0,0.0,0.0,0.8533,0.8896,0.9368,0.9999,0.994,1.0241,1.1023,1.131,1.1559,1.1816,1.2235,1.2704,1.3196,1.288,1.3058,1.3588,1.3293,0.0,1.2997,1.32,1.3514,1.3962,1.4011,1.4461,1.5148,1.5724,1.6367,1.7064,1.79,1.8769,1.9497,2.0181,2.0673,2.1118,2.1698,2.2203,2.2832,2.3986,2.4932,2.6004,2.7857,2.9364,3.0689,3.186,3.3799,3.5259,3.4845,3.5081,3.4981,3.3654,3.306,3.2062,2.9828,2.9093,2.8296,2.676,2.6188,2.606,2.6477,2.4865,2.4448,2.6487,2.5666,2.4977,2.4973,2.4049,2.3672,2.4124,2.4164,2.4359,2.4799,2.4626,2.4439,2.4307,2.3061,2.2374,2.226,2.1539,2.1242,2.1312,2.1379,2.1148,-0.3816,-0.3212,-0.261,-0.241,-0.1969,-0.1433,-0.0985,-0.0229,0.0,0.0,0.2338,0.3289,0.3507,0.0,0.0,0.0,0.0,0.0,0.0,0.0,0.0,0.0,0.0,0.0,0.0,0.0,0.0,0.0,0.0,0.0,0.0,0.9106,0.9636,1.0352,1.0285,1.0592,1.1326,1.1816,1.2113,1.2298,1.2886,1.3304,1.3515,1.3312,1.3526,1.4061,1.36,0.0,0.0,1.3757,1.4079,1.4573,1.4718,1.5274,1.6014,1.6592,1.728,1.8001,1.8365,1.9091,1.9862,1.9811,2.0156,2.066,2.1361,2.2122,2.3106,2.4644,2.5656,2.6783,2.8663,3.0056,3.1482,3.3484,3.486,3.5777,3.5933,3.5837,3.5252,3.3707,3.3252,3.2192,2.9267,2.8598,2.7639,2.5126,2.4626,2.4518,2.4461,2.4388,2.5255,2.7667,2.6591,2.5396,2.4649,2.4601,2.4601,2.4589,2.4591,2.4888,2.5589,2.5664,2.5379,2.47,2.4466,2.4032,2.3399,2.2957,2.2755,2.2733,2.2471,2.1891,-0.2705,-0.2487,-0.234,-0.1952,-0.1658,-0.1254,-0.0671,0.0,0.0,0.1743,0.2462,0.3221,0.4137,0.454,0.0,0.0,0.0,0.0,0.0,0.0,0.0,0.0,0.0,0.0,0.0,0.0,0.0,0.0,0.0,0.0,0.0,1.0095,1.0522,1.082,1.1065,1.1469,1.1977,1.1963,1.2204,1.2828,1.2917,1.3434,1.4316,1.4179,1.4566,1.5301,0.0,0.0,0.0,1.3728,1.3641,1.3772,1.4471,1.5007,1.5541,1.6689,1.7543,1.8175,1.8746,1.9423,1.9978,1.9862,2.0055,2.0523,2.1215,2.2527,2.3941,2.4694,2.6736,2.8749,2.8968,3.106,3.3558,3.5337,3.5274,3.5015,3.5742,3.5332,3.4531,3.3573,3.2751,3.1874,3.0741,2.9904,2.902,2.7962,2.7123,2.6618,2.6617,2.5921,2.5853,2.6899,2.622,2.5664,2.558,2.5565,2.5546,2.5484,2.5474,2.555,2.5691,2.5703,2.5664,2.5574,2.5503,2.542,2.5342,2.4342,2.386,2.3855,2.3821,2.3252,-0.2422,-0.2094,-0.1824,-0.1908,-0.1433,-0.0856,-0.0323,0.0,0.1634,0.2788,0.3565,0.4154,0.442,0.5086,0.5617,0.0,0.0,0.0,0.0,0.0,0.0,0.0,0.0,0.0,0.0,0.0,0.0,0.0,0.0,0.0,0.0,1.1027,1.1237,1.1601,1.1591,1.1859,1.2491,1.2757,1.3169,1.3791,1.3854,1.4159,1.4733,1.4417,1.4563,1.5037,0.0,0.0,0.0,1.432,1.4512,1.4773,1.5163,1.571,1.6359,1.6912,1.7514,1.8241,1.86,1.9189,1.9772,1.9875,2.0067,2.0372,2.0858,2.2338,2.4035,2.5251,2.725,2.9167,2.9901,3.1729,3.3706,3.4923,3.5357,3.5555,3.5847,3.5675,3.5071,3.3667,3.312,3.2282,3.0409,2.9758,2.9035,2.7637,2.7125,2.6714,2.6188,2.5814,2.5753,2.6142,2.5892,2.5707,2.5707,2.5691,2.5691,2.5664,2.566,2.566,2.5703,2.5699,2.5703,2.5691,2.566,2.5656,2.5664,2.524,2.5008,2.4973,2.529,2.4986,-0.2058,-0.171,-0.1291,-0.1394,-0.0932,-0.0316,0.0,0.0,0.2329,0.3562,0.4354,0.4817,0.4855,0.5557,0.609,0.5996,0.0,0.6603,0.0,0.0,0.0,0.0,0.0,0.0,0.0,0.0,0.0,0.0,0.0,0.0,0.0,1.1982,1.1983,1.2025,1.1971,1.2206,1.2871,1.3244,1.3711,1.4304,1.4379,1.4644,1.4945,1.4696,1.4753,1.5159,0.0,0.0,0.0,1.4998,1.5238,1.559,1.5734,1.6634,1.7787,1.7459,1.8216,1.941,1.959,2.0031,2.0611,2.1361,2.1629,2.181,2.2119,2.3145,2.4597,2.6347,2.8126,2.9862,3.1209,3.2489,3.3689,3.4816,3.5357,3.5591,3.5568,3.5386,3.4786,3.33,3.3029,3.235,3.0309,2.9922,2.9372,2.7885,2.7678,2.7254,2.6123,2.6006,2.6038,2.6082,2.5852,2.5701,2.5704,2.5701,2.5694,2.5671,2.5679,2.5671,2.5699,2.5675,2.5679,2.5707,2.5933,2.5933,2.5664,2.5933,2.5905,2.5619,2.6244,2.6557,-0.1461,-0.1214,-0.0835,-0.0167,-0.0,0.0271,0.0,0.0,0.2728,0.3873,0.4508,0.5064,0.5569,0.5963,0.6186,0.6195,0.6608,0.0,0.0,0.0,0.0,0.0,0.0,0.0,0.0,0.0,0.0,0.0,0.0,0.0,0.0,0.0,1.2744,1.1945,1.2283,1.2676,1.3007,1.3132,1.3449,1.4013,1.4214,1.4491,1.4924,1.5018,1.5433,0.0,0.0,0.0,0.0,1.5721,1.5578,1.5745,1.5972,1.7613,1.9653,1.8604,1.9843,2.2178,2.2161,2.2372,2.2945,2.466,2.5295,2.536,2.5497,2.5505,2.5906,2.7998,2.9648,3.1187,3.2913,3.3389,3.3846,3.5566,3.5333,3.4702,3.4713,3.4043,3.3165,3.2282,3.2114,3.1821,3.0938,3.0793,3.0484,2.9617,2.9461,2.8843,2.7108,2.6949,2.6986,2.6989,2.6205,2.5691,2.5707,2.5696,2.5662,2.5601,2.56,2.5639,2.5699,2.5632,2.5628,2.5699,2.6489,2.6461,2.5604,2.6461,2.6442,2.5624,2.6494,2.7818,-0.0982,-0.0398,0.02,0.0172,0.0798,0.1596,0.2138,0.0,0.3608,0.4681,0.5227,0.5584,0.592,0.6283,0.6468,0.6187,0.6567,0.0,0.0,0.0,0.0,0.0,0.0,0.0,0.0,0.0,0.0,0.0,0.0,0.0,0.0,0.0,1.2866,1.2744,1.2672,1.291,1.343,1.3467,1.3836,1.4529,1.4318,1.4393,1.4698,1.4736,0.0,0.0,0.0,0.0,0.0,1.5679,1.6593,1.7864,1.8464,1.9905,2.1682,2.1445,2.2164,2.3304,2.3495,2.3909,2.4443,2.5188,2.5501,2.5749,2.6952,2.7214,2.7673,3.0206,3.1268,3.1882,3.309,3.3406,3.3537,3.4081,3.4012,3.3805,3.3821,3.3598,3.315,3.2268,3.1625,3.0923,3.0053,2.9413,2.8711,2.778,2.7655,2.7238,2.6097,2.6472,2.688,2.6935,2.6687,2.6539,2.6582,2.6596,2.6333,2.5701,2.6236,2.6302,2.5726,2.5687,2.5683,2.5699,2.6494,2.6766,2.6494,2.7359,2.7948,2.8279,2.8559,2.9289,0.0,0.008,0.0654,0.082,0.1548,0.0,0.0,0.0,0.4347,0.5209,0.5782,0.6185,0.6307,0.6711,0.6929,0.6628,0.6887,0.0,0.0,0.0,0.0,0.0,0.0,0.0,0.0,0.0,0.0,0.0,0.0,0.0,0.0,0.0,1.2849,1.3041,1.286,1.2968,1.3382,1.3621,1.4057,1.4569,1.4477,1.4869,1.561,1.5617,0.0,0.0,0.0,0.0,0.0,1.7571,1.8486,1.9652,1.9919,2.1488,2.3509,2.2929,2.3786,2.5268,2.5439,2.5775,2.6229,2.7047,2.7367,2.7614,2.8719,2.9,2.9314,3.1037,3.1534,3.1824,3.3085,3.34,3.3485,3.3807,3.3641,3.3317,3.2982,3.2658,3.2259,3.1719,3.1134,3.0461,2.9601,2.926,2.8796,2.7885,2.8009,2.7923,2.7045,2.7405,2.7751,2.7795,2.753,2.7491,2.7836,2.7321,2.6776,2.6229,2.7001,2.7245,2.6693,2.6679,2.6529,2.6209,2.7012,2.7266,2.6946,2.7803,2.8684,2.9538,2.9503,2.9981,0.0,0.0354,0.0716,0.1687,0.2216,0.2693,0.0,0.0,0.0,0.5595,0.6218,0.6707,0.6756,0.7192,0.7461,0.7343,0.0,0.0,0.0,0.0,0.0,0.0,0.0,0.0,0.0,0.0,0.0,0.0,0.0,0.0,0.0,0.0,0.0,1.2967,1.2958,1.2968,1.3055,1.3789,1.4201,1.4222,1.4824,1.5886,1.7298,1.7413,0.0,0.0,0.0,0.0,0.0,2.0833,2.0983,2.1176,2.0693,2.2513,2.5193,2.3612,2.5024,2.7728,2.7838,2.7886,2.8153,2.9789,3.0417,3.0516,3.0579,3.0643,3.0715,3.0767,3.0833,3.1265,3.289,3.3317,3.3496,3.4237,3.3795,3.2989,3.2173,3.1379,3.0793,3.0779,3.0633,3.0263,2.9506,2.9958,3.0133,2.933,2.9881,3.0102,2.9307,2.9252,2.9317,2.938,2.867,2.8507,2.9317,2.8021,2.7143,2.7086,2.7909,2.8354,2.8297,2.8298,2.7927,2.7114,2.7947,2.8025,2.7269,2.8086,2.8889,2.9679,2.9616,3.0033,0.1831,0.0,0.2078,0.2188,0.2791,0.3552,0.0,0.0,0.0,0.0,0.0,0.0,0.0,0.0,0.0,0.0,0.0,0.0,0.0,0.0,0.0,0.0,0.0,0.0,0.0,0.0,0.0,0.0,0.0,0.0,0.0,0.0,0.0,1.291,1.3142,1.343,1.3773,1.5211,1.544,1.4558,1.7134,1.7957,1.7198,1.8582,0.0,0.0,0.0,0.0,2.0482,2.0798,2.1874,2.3333,2.3679,2.5122,2.7066,2.7317,2.7964,2.8776,2.9402,2.9684,2.9844,3.037,3.0994,3.1429,3.0791,3.0615,3.0762,3.1481,3.1743,3.1886,3.2303,3.2412,3.2285,3.1835,3.1552,3.1354,3.1145,3.0906,3.073,3.0728,3.0079,2.9465,2.9281,2.8811,2.8392,2.8191,2.8277,2.8324,2.8172,2.8782,2.9487,3.0144,2.9508,2.9353,3.0226,2.9445,2.8622,2.7967,2.8732,2.8938,2.832,2.83,2.82,2.7998,2.8791,2.945,2.9916,3.0102,3.031,3.0524,3.0494,3.0598,0.241,0.2547,0.2638,0.2896,0.3463,0.4155,0.4802,0.0,0.0,0.0,0.0,0.0,0.0,0.0,0.0,0.0,0.0,0.0,0.0,0.0,0.0,0.0,0.0,0.0,0.0,0.0,0.0,0.0,0.0,0.0,0.0,0.0,0.0,0.0,1.4585,1.4383,1.3915,1.5066,1.5727,1.5909,1.779,1.9009,1.9599,2.0658,0.0,0.0,0.0,0.0,2.2518,2.2833,2.3601,2.4629,2.5329,2.6461,2.7846,2.8645,2.9257,2.9809,3.0629,3.0987,3.1129,3.1593,3.1823,3.1889,3.1803,3.1802,3.178,3.1488,3.144,3.1594,3.1992,3.2103,3.209,3.2002,3.1649,3.1356,3.1354,3.1014,3.069,3.0664,3.0161,2.962,2.9214,2.901,2.8778,2.8406,2.8663,2.8912,2.8943,2.9394,3.0044,3.0914,3.0634,3.0588,3.1062,3.077,3.0049,2.8821,2.9565,2.9861,2.9464,2.9441,2.9272,2.8906,2.9313,2.9775,3.0257,3.0648,3.0838,3.081,3.0798,3.0798,0.2917,0.2856,0.2968,0.361,0.4142,0.4701,0.5278,0.0,0.0,0.0,0.0,0.0,0.0,0.0,0.0,0.0,0.0,0.0,0.0,0.0,0.0,0.0,0.0,0.0,0.0,0.0,0.0,0.0,0.0,0.0,0.0,0.0,0.0,0.0,1.6648,1.5985,1.4743,1.5101,1.6011,1.7398,1.8318,2.0086,2.2509,2.2884,0.0,0.0,0.0,0.0,2.5113,2.5239,2.5339,2.5472,2.6167,2.7039,2.8,2.8752,2.9575,3.0432,3.1313,3.17,3.193,3.2527,3.2454,3.219,3.2683,3.3056,3.2978,3.1343,3.0945,3.1145,3.1735,3.1913,3.2109,3.2823,3.2381,3.1792,3.181,3.1216,3.0653,3.0604,3.0481,3.0152,2.9413,2.9781,2.9939,2.9277,2.9794,3.0286,3.0286,3.0299,3.0676,3.1686,3.1738,3.1807,3.2062,3.1907,3.1207,2.9842,3.0347,3.0735,3.0804,3.0794,3.0482,2.9803,2.9785,2.9784,2.9794,3.0523,3.0852,3.0799,3.0804,3.086,0.4476,0.424,0.4326,0.4086,0.4851,0.5784,0.0,0.0,0.0,0.0,0.0,0.0,0.0,0.0,0.0,0.0,0.0,0.0,0.0,0.0,0.0,0.0,0.0,0.0,0.0,0.0,0.0,0.0,0.0,0.0,0.0,0.0,0.0,0.0,0.0,1.8837,1.8877,1.8635,1.8057,1.726,2.1579,2.3232,2.2548,2.4048,2.4898,0.0,0.0,2.5164,2.5113,2.5179,2.5676,2.6409,2.6514,2.7113,2.8,2.8856,2.928,2.9524,3.0461,3.1263,3.1786,3.1251,3.1992,3.2827,3.1487,3.2166,3.3156,3.2098,3.1845,3.176,3.1168,3.1035,3.1091,3.1175,3.104,3.0895,3.0905,3.0715,3.053,3.052,3.04,3.0278,3.0131,3.0117,3.0075,2.9952,3.0052,3.0132,3.0132,3.0245,3.0887,3.2453,3.2065,3.2275,3.3692,3.2524,3.1607,3.1351,3.0936,3.0722,3.0802,3.0794,3.0749,3.063,3.0616,3.0642,3.0703,3.0779,3.081,3.0791,3.0801,3.1196,0.6441,0.6399,0.6284,0.5236,0.5536,0.6251,0.0,0.0,0.0,0.0,0.0,0.0,0.0,0.0,0.0,0.0,0.0,0.0,0.0,0.0,0.0,0.0,0.0,0.0,0.0,0.0,0.0,0.0,0.0,0.0,0.0,0.0,0.0,0.0,0.0,2.0378,1.9682,2.032,2.0494,2.0192,2.2518,2.3724,2.3929,2.4816,2.5209,2.5198,0.0,2.525,2.5191,2.5782,2.6237,2.6699,2.7672,2.8327,2.8808,2.9641,3.0278,3.0768,3.1216,3.1336,3.1487,3.2525,3.2778,3.2669,3.282,3.3775,3.4529,3.3142,3.2773,3.2596,3.1736,3.1532,3.1535,3.1519,3.1096,3.082,3.1241,3.0895,3.0491,3.0462,3.0364,3.0439,3.0841,3.0776,3.0703,3.0681,3.0671,3.0487,3.0048,3.0049,3.0753,3.2507,3.2383,3.2713,3.403,3.3442,3.2646,3.181,3.1504,3.137,3.1378,3.1426,3.125,3.0804,3.0791,3.0819,3.0847,3.0858,3.0859,3.0852,3.1301,3.1711,0.8243,0.8237,0.816,0.7091,0.0,0.0,0.0,0.0,0.0,0.0,0.0,0.0,0.0,0.0,0.0,0.0,0.0,0.0,0.0,0.0,0.0,0.0,0.0,0.0,0.0,0.0,0.0,0.0,0.0,0.0,0.0,0.0,0.0,0.0,2.2668,2.2036,2.0844,2.2036,2.2629,2.2604,2.3011,2.3859,2.5063,2.5201,2.5243,2.5212,2.5332,2.5322,2.528,2.6073,2.6495,2.6785,2.8401,2.9287,2.9757,3.0377,3.1068,3.1695,3.1702,3.1313,3.1123,3.3134,3.3025,3.2315,3.3445,3.4547,3.5073,3.3526,3.3244,3.3195,3.2335,3.2101,3.2045,3.1826,3.122,3.086,3.1464,3.1032,3.0471,3.0417,3.0323,3.0464,3.1021,3.1137,3.1097,3.0871,3.0937,3.0732,2.9916,2.9839,3.0473,3.2102,3.2441,3.2981,3.3983,3.4098,3.3596,3.2444,3.2068,3.1975,3.2197,3.1884,3.1601,3.1387,3.1005,3.0993,3.1409,3.1046,3.1093,3.1504,3.1914,3.2322,0.9512,0.9157,0.9437,1.0017,0.0,0.0,0.0,0.0,0.0,0.0,0.0,0.0,0.0,0.0,0.0,0.0,0.0,0.0,0.0,0.0,0.0,0.0,0.0,0.0,0.0,0.0,0.0,0.0,0.0,0.0,0.0,0.0,0.0,0.0,0.0,2.4691,2.4531,2.4691,2.3957,2.2345,2.3975,2.4804,2.4912,2.5122,2.5201,2.5198,2.5283,2.5303,2.5293,2.5434,2.5967,2.6792,2.7791,2.9137,3.0524,3.0582,3.068,3.0795,3.087,3.0856,3.0823,3.1023,3.1543,3.1975,3.128,3.2254,3.339,3.2456,3.2784,3.3204,3.2333,3.2099,3.1885,3.1006,3.0749,3.0697,3.0696,3.0598,3.0488,3.0402,3.0305,3.0226,3.0294,3.0744,3.0806,2.9942,3.0396,3.0526,2.9739,2.9681,3.0127,3.1191,3.202,3.2918,3.3918,3.4074,3.4074,3.4039,3.2624,3.2212,3.3064,3.1617,3.154,3.3098,3.1592,3.1597,3.3202,3.1595,3.164,3.3201,3.2458,3.297,1.1454,1.1272,1.1152,1.0925,0.0,0.0,0.0,0.0,0.0,0.0,0.0,0.0,0.0,0.0,0.0,0.0,0.0,0.0,0.0,0.0,0.0,0.0,0.0,0.0,0.0,0.0,0.0,0.0,0.0,0.0,0.0,0.0,0.0,0.0,0.0,2.4985,2.4953,2.5019,2.4718,2.4064,2.4704,2.5329,2.5903,2.6063,2.6436,2.6945,2.7055,2.7082,2.7083,2.7704,2.8146,2.8528,2.9434,3.0179,3.0715,3.0723,3.0743,3.0767,3.0789,3.0442,3.0177,3.1262,3.113,3.0682,3.1387,3.2458,3.3326,3.2957,3.3444,3.3782,3.245,3.2069,3.1812,3.0912,3.0678,3.0622,3.0558,3.0511,3.0469,3.0355,3.0633,3.1016,3.1433,3.1996,3.2123,3.1257,3.1325,3.1003,2.9642,2.9493,2.9869,3.0791,3.1788,3.2991,3.4497,3.4219,3.4255,3.4908,3.3903,3.3495,3.3936,3.3372,3.313,3.3232,3.2653,3.2703,3.3407,3.2731,3.2475,3.2617,3.3363,3.3776,1.3252,1.3425,1.3373,0.0,0.0,0.0,0.0,0.0,0.0,0.0,0.0,0.0,0.0,0.0,0.0,0.0,0.0,0.0,0.0,0.0,0.0,0.0,0.0,0.0,0.0,0.0,0.0,0.0,0.0,0.0,0.0,0.0,0.0,0.0,0.0,0.0,2.5063,2.5134,2.5294,2.5546,2.5576,2.5915,2.6515,2.6915,2.745,2.8002,2.8137,2.8176,2.8185,2.8821,2.925,2.9552,3.0154,3.0555,3.0803,3.0804,3.0802,3.0798,3.0785,3.0392,3.0094,3.1284,3.0872,3.0162,3.1311,3.2065,3.2544,3.2491,3.2876,3.3036,3.1915,3.18,3.1746,3.087,3.0804,3.0829,3.054,3.0642,3.0679,3.0305,3.0795,3.1396,3.1807,3.2425,3.2614,3.2027,3.1663,3.1043,2.989,2.9518,2.9781,3.0926,3.1542,3.2562,3.4339,3.3891,3.3792,3.4506,3.4334,3.4376,3.4765,3.4333,3.4059,3.402,3.355,3.3604,3.4228,3.3662,3.3372,3.3359,3.4266,3.4521,1.4777,1.5435,1.6098,0.0,0.0,0.0,0.0,0.0,0.0,0.0,0.0,0.0,0.0,0.0,0.0,0.0,0.0,0.0,0.0,0.0,0.0,0.0,0.0,0.0,0.0,0.0,0.0,0.0,0.0,0.0,0.0,0.0,0.0,0.0,0.0,0.0,2.5196,2.5274,2.5706,2.6497,2.6635,2.6646,2.6564,2.7555,2.8015,2.8029,2.8178,2.8221,2.8223,2.8225,2.8733,2.9506,2.9519,3.003,3.079,3.0804,3.0797,3.0799,3.0721,3.074,3.0796,3.0713,3.0691,3.0689,3.0706,3.0704,3.0694,3.0707,3.0707,3.0699,3.0634,3.1247,3.1685,3.0823,3.1119,3.1388,3.0565,3.0919,3.1155,3.028,3.0684,3.1174,3.1034,3.1558,3.1952,3.1823,3.1069,3.0506,3.0506,2.9739,2.9872,3.1597,3.1252,3.1542,3.3236,3.2897,3.2634,3.269,3.3628,3.4615,3.5543,3.4071,3.4038,3.5772,3.4173,3.4213,3.6005,3.4263,3.4315,3.5976,3.5107,3.5168,1.5038,1.5333,0.0,0.0,0.0,0.0,0.0,0.0,0.0,0.0,0.0,0.0,0.0,0.0,0.0,0.0,0.0,0.0,0.0,0.0,0.0,0.0,0.0,0.0,0.0,0.0,0.0,0.0,0.0,0.0,0.0,0.0,0.0,0.0,0.0,0.0,2.5332,2.5418,2.5556,2.5815,2.6514,2.7433,2.856,2.8907,2.939,2.9971,3.006,3.0077,3.0036,3.0038,3.0189,3.0401,3.0367,3.0538,3.0794,3.0804,3.0777,3.0723,3.0703,3.07,3.0739,3.0704,3.0292,2.9888,3.0404,3.0552,3.0674,3.1246,3.1379,3.1339,3.138,3.1499,3.1441,3.0693,3.1465,3.1987,3.0567,3.1278,3.1908,3.1032,3.1388,3.1977,3.2393,3.2157,3.1886,3.1751,3.1506,3.1108,3.0429,2.9563,2.9471,3.0769,3.0227,3.0541,3.239,3.1919,3.1865,3.2569,3.3001,3.3686,3.4707,3.4885,3.5232,3.5788,3.5366,3.5385,3.5919,3.5463,3.5181,3.5097,3.5458,3.5425,1.6226,0.0,0.0,0.0,0.0,0.0,0.0,0.0,0.0,0.0,0.0,0.0,0.0,0.0,0.0,0.0,0.0,0.0,0.0,0.0,0.0,0.0,0.0,0.0,0.0,0.0,0.0,0.0,0.0,0.0,0.0,0.0,0.0,0.0,0.0,0.0,2.5479,2.5554,2.5731,2.6067,2.6651,2.7833,2.9474,2.9515,2.9994,3.0798,3.0837,3.0839,3.0804,3.0767,3.0754,3.0763,3.0712,3.0711,3.0753,3.0755,3.073,3.0703,3.0664,3.0633,3.0614,3.0626,3.028,2.9907,3.0318,3.0443,3.0509,3.1014,3.1102,3.1046,3.1034,3.1492,3.1776,3.1095,3.2051,3.2733,3.1412,3.2048,3.2651,3.1786,3.2109,3.2662,3.3049,3.2404,3.189,3.2154,3.1612,3.0863,3.0009,2.9361,2.9379,3.0391,2.9792,2.9936,3.1483,3.1317,3.1267,3.155,3.267,3.3487,3.3832,3.4381,3.5009,3.5788,3.5534,3.558,3.5934,3.5958,3.5695,3.5233,3.5761,3.5718,0.0,0.0,0.0,0.0,0.0,0.0,0.0,0.0,0.0,0.0,0.0,0.0,0.0,0.0,0.0,0.0,0.0,0.0,0.0,0.0,0.0,0.0,0.0,0.0,0.0,0.0,0.0,0.0,0.0,0.0,0.0,0.0,0.0,0.0,0.0,0.0,2.5599,2.5679,2.6068,0.0,2.6856,2.7745,2.9364,2.9523,3.0027,3.0781,3.0795,3.0791,3.0769,3.0626,3.0581,3.0578,3.0587,3.0581,3.0574,3.0665,3.0685,3.0673,3.0614,3.0554,3.0511,3.0501,3.05,3.0469,3.0406,3.034,3.0279,3.0279,3.0221,3.0128,3.0007,3.121,3.2321,3.1774,3.2756,3.3523,3.2587,3.2996,3.3314,3.2465,3.2777,3.3172,3.3171,3.2354,3.1932,3.2673,3.1422,3.0142,2.9484,2.9263,2.948,3.0298,2.9776,2.971,3.0536,3.0979,3.085,3.0034,3.2479,3.3659,3.3005,3.3218,3.4117,3.5772,3.5074,3.5143,3.5997,3.5942,3.5942,3.6009,3.6007,3.5992,0.0,0.0,0.0,0.0,0.0,0.0,0.0,0.0,0.0,0.0,0.0,0.0,0.0,0.0,0.0,0.0,0.0,0.0,0.0,0.0,0.0,0.0,0.0,0.0,0.0,0.0,0.0,0.0,0.0,0.0,0.0,0.0,0.0,0.0,0.0,2.5613,2.5687,2.5701,2.5783,0.0,2.598,2.6537,2.7591,2.8923,2.9956,3.071,3.0726,3.0724,3.0668,2.9916,2.9632,2.968,2.9673,2.9652,2.9695,3.0436,3.0629,3.0559,3.0595,3.0568,3.05,3.0491,3.0439,3.0328,3.0254,3.0194,3.0128,3.0019,2.994,2.9872,2.9801,3.0505,3.1411,3.1937,3.3318,3.394,3.1914,3.286,3.3923,3.3184,3.3011,3.3123,3.3704,3.2593,3.1705,3.1927,3.102,3.0272,3.0111,2.991,2.9745,2.9576,2.9421,2.9488,2.987,3.0677,3.0784,2.9978,3.1813,3.2905,3.2845,3.4326,3.5311,3.5715,3.5643,3.5716,3.5919,3.5966,3.5997,3.6004,3.5994,3.6005,0.0,0.0,0.0,0.0,0.0,0.0,0.0,0.0,0.0,0.0,0.0,0.0,0.0,0.0,0.0,0.0,0.0,0.0,0.0,0.0,0.0,0.0,0.0,0.0,0.0,0.0,0.0,0.0,0.0,0.0,0.0,0.0,0.0,0.0,2.564,2.5453,2.5074,2.5494,2.5499,2.5072,2.5499,2.6149,2.7009,2.8296,2.9324,3.0102,2.9638,2.97,2.9994,2.9063,2.8706,2.8733,2.8698,2.8941,2.9367,2.9814,3.0192,3.0491,3.0471,3.0409,3.0359,3.0352,3.0267,3.0147,3.0114,3.0045,2.9956,2.9839,2.9771,2.9719,2.9589,3.0131,3.0727,3.0725,3.2458,3.3838,3.2956,3.362,3.4274,3.3863,3.3584,3.3518,3.3847,3.2856,3.1893,3.1647,3.1146,3.0797,3.0851,3.0779,3.0662,3.0506,3.0541,3.0499,3.0283,3.113,3.1182,3.0016,3.2026,3.3123,3.2818,3.4627,3.5669,3.5697,3.5387,3.5457,3.5899,3.5929,3.5942,3.5951,3.5981,3.5994,0.0,0.0,0.0,0.0,0.0,0.0,0.0,0.0,0.0,0.0,0.0,0.0,0.0,0.0,0.0,0.0,0.0,0.0,0.0,0.0,0.0,0.0,0.0,0.0,0.0,0.0,0.0,0.0,0.0,0.0,0.0,0.0,2.5549,2.5595,2.5525,2.513,2.4397,2.4951,2.4899,2.4192,2.5054,2.5895,2.6708,2.7418,2.8305,2.923,2.8427,2.8489,2.9091,2.8171,2.7793,2.7795,2.7884,2.8386,2.9091,2.9321,2.985,3.0439,3.0309,3.0235,3.0188,3.0188,3.009,2.9972,2.9981,2.9867,2.9751,2.9681,2.9645,2.9589,2.9431,2.9813,3.0101,2.9459,3.1123,3.305,3.3833,3.411,3.4218,3.4274,3.4099,3.3895,3.3807,3.3031,3.2237,3.1765,3.1591,3.151,3.1513,3.1605,3.166,3.1589,3.1685,3.1476,3.0753,3.1544,3.1503,3.0102,3.2511,3.3616,3.2837,3.4578,3.5615,3.5679,3.5044,3.5118,3.5903,3.5903,3.5899,3.5903,3.5955,3.5985,0.0,0.0,0.0,0.0,0.0,0.0,0.0,0.0,0.0,0.0,0.0,0.0,0.0,0.0,0.0,0.0,0.0,0.0,0.0,0.0,0.0,0.0,0.0,0.0,0.0,0.0,0.0,0.0,0.0,0.0,0.0,2.5648,2.5581,2.5605,2.4934,2.4486,2.4315,2.3746,2.3398,2.3274,2.4159,2.499,2.5777,2.5899,2.6832,2.8355,2.8126,2.8082,2.8109,2.7307,2.6928,2.6955,2.7696,2.8028,2.827,2.9704,3.0232,3.0241,3.0216,3.0169,3.0104,3.0104,2.9981,2.9817,2.9834,2.9735,2.9608,2.9551,2.9434,2.9353,2.9326,2.9252,2.9365,3.0064,3.0388,3.0807,3.177,3.253,3.3271,3.4067,3.3947,3.3726,3.3643,3.2931,3.2411,3.2441,3.2389,3.2133,3.1569,3.2077,3.2017,3.0869,3.0831,3.0599,2.9926,3.0731,3.0911,3.0145,3.2496,3.3566,3.2837,3.4537,3.5534,3.5604,3.563,3.5725,3.5911,3.5905,3.5903,3.5895,3.5903,3.5939,0.0,0.0,0.0,0.0,0.0,0.0,0.0,0.0,0.0,0.0,0.0,0.0,0.0,0.0,0.0,0.0,0.0,0.0,0.0,0.0,0.0,0.0,0.0,0.0,0.0,0.0,0.0,0.0,0.0,0.0,2.6349,2.5929,2.5656,2.5667,2.5276,2.4608,2.3633,2.3767,2.3836,2.3842,2.4679,2.5239,2.5542,2.5517,2.6209,2.7439,2.6883,2.6935,2.7323,2.6435,2.6293,2.6687,2.7065,2.7729,2.8557,2.9289,2.98,3.0152,3.0104,3.003,2.9991,2.9905,2.9822,2.9736,2.9608,2.9551,2.9531,2.9411,2.9349,2.9286,2.9262,2.9044,2.8931,2.9253,2.9178,2.9318,3.0268,3.1666,3.2969,3.3773,3.3753,3.3577,3.3549,3.3219,3.2983,3.3039,3.3039,3.2911,3.2602,3.2939,3.3025,3.2575,3.2259,3.1834,3.1205,3.1163,3.1056,3.0856,3.1909,3.2651,3.2851,3.4135,3.4858,3.4928,3.5476,3.5793,3.5842,3.5885,3.5897,3.5899,3.5942,3.5978,0.0,0.0,0.0,0.0,0.0,0.0,0.0,0.0,0.0,0.0,0.0,0.0,0.0,0.0,0.0,0.0,0.0,0.0,0.0,0.0,0.0,0.0,0.0,0.0,0.0,0.0,0.0,0.0,0.0,0.0,2.6624,2.6055,2.5684,2.5684,2.5426,2.4589,2.3119,2.3538,2.3834,2.4046,2.488,2.5346,2.546,2.5445,2.5817,2.6469,2.5816,2.5926,2.6482,2.5979,2.6097,2.6641,2.7012,2.7865,2.8925,2.9308,2.9821,3.0345,3.0492,3.0483,3.0375,3.0076,2.9926,2.9849,2.9487,2.9411,2.9411,2.9283,2.9262,2.9262,2.9178,2.8952,2.8669,2.8569,2.8406,2.8559,2.9656,3.131,3.2763,3.3451,3.3473,3.3404,3.3481,3.3422,3.3382,3.3411,3.3422,3.3452,3.3452,3.3643,3.3768,3.3746,3.3241,3.2641,3.2034,3.1312,3.0953,3.1096,3.1374,3.1859,3.2577,3.3672,3.4303,3.4389,3.5271,3.5718,3.581,3.5857,3.5879,3.5889,3.5953,3.597,0.0,0.0,0.0,0.0,0.0,0.0,0.0,0.0,0.0,0.0,0.0,0.0,0.0,0.0,0.0,0.0,0.0,0.0,0.0,0.0,0.0,0.0,0.0,0.0,0.0,0.0,0.0,0.0,0.0,0.0,2.5768,2.5712,2.5666,2.5602,2.486,2.4022,2.3105,2.2332,2.2328,2.3076,2.3941,2.473,2.5404,2.5476,2.5445,2.539,2.5397,2.5432,2.5526,2.6255,2.6574,2.6754,2.8128,2.8731,2.8994,3.0454,3.0957,3.1054,3.175,3.1952,3.1759,3.0914,3.0546,3.0305,2.9545,2.9262,2.92,2.9112,2.9175,2.9178,2.9112,2.8887,2.8694,2.8694,2.8536,2.8793,3.0312,3.149,3.2426,3.3105,3.3178,3.3178,3.3364,3.3352,3.3322,3.3411,3.3509,3.3605,3.3605,3.3815,3.3728,3.311,3.2452,3.18,3.113,3.0454,3.0117,3.0261,3.1098,3.1648,3.1754,3.3345,3.426,3.4389,3.5271,3.5737,3.5803,3.5803,3.5842,3.5908,3.5897,3.5948,0.0,0.0,0.0,0.0,0.0,0.0,0.0,0.0,0.0,0.0,0.0,0.0,0.0,0.0,0.0,0.0,0.0,0.0,0.0,0.0,0.0,0.0,0.0,0.0,0.0,0.0,0.0,0.0,0.0,0.0,2.5702,2.5702,2.5683,2.5663,2.5388,2.4793,2.3887,2.245,2.2416,2.3773,2.3482,2.4041,2.5313,2.4687,2.4664,2.5099,2.5049,2.5088,2.5273,2.6115,2.6706,2.7151,2.8284,2.9023,2.9512,3.005,3.0206,3.0189,3.0415,3.0748,3.1057,3.0732,3.0887,3.1145,3.077,3.0654,3.063,3.0503,3.0119,2.9745,2.9649,2.9119,2.8612,2.8466,2.838,2.873,3.0131,3.1135,3.2043,3.2997,3.3147,3.3147,3.3364,3.3382,3.3352,3.3352,3.3393,3.3481,3.3481,3.3698,3.3836,3.371,3.3142,3.2535,3.1958,3.1227,3.0895,3.1035,3.1391,3.186,3.2442,3.3627,3.4291,3.4328,3.5222,3.5718,3.5801,3.5799,3.5838,3.5897,3.5908,3.5948,0.0,0.0,0.0,0.0,0.0,0.0,0.0,0.0,0.0,0.0,0.0,0.0,0.0,0.0,0.0,0.0,0.0,0.0,0.0,0.0,0.0,0.0,0.0,0.0,0.0,0.0,0.0,0.0,0.0,0.0,2.5675,2.5698,2.5562,2.5267,2.4959,2.4335,2.337,2.2499,2.2578,2.3608,2.3553,2.411,2.5145,2.4472,2.4442,2.4931,2.4814,2.4864,2.5063,2.5901,2.6636,2.7365,2.8237,2.9036,2.9775,3.002,3.0058,3.0037,3.0242,3.0775,3.1296,3.101,3.1362,3.1789,3.1375,3.125,3.1224,3.1084,3.0711,3.0345,3.0259,2.96,2.8953,2.9089,2.8936,2.8997,3.0112,3.0743,3.1448,3.2684,3.2898,3.2948,3.3214,3.3196,3.3196,3.3322,3.3393,3.3481,3.3509,3.3726,3.3972,3.4148,3.3612,3.3118,3.2789,3.2134,3.1672,3.1508,3.1826,3.2161,3.2473,3.3658,3.4303,3.4328,3.5232,3.5737,3.5799,3.5799,3.5838,3.5905,3.5908,3.5943,0.0,0.0,0.0,0.0,0.0,0.0,0.0,0.0,0.0,0.0,0.0,0.0,0.0,0.0,0.0,0.0,0.0,0.0,0.0,0.0,0.0,0.0,0.0,0.0,0.0,0.0,0.0,0.0,0.0,2.5668,2.559,2.5668,2.5302,2.444,2.3481,2.2536,2.1571,2.2364,2.2656,2.2505,2.4136,2.4911,2.4902,2.4883,2.4832,2.4772,2.47,2.4712,2.4832,2.5584,2.6395,2.7219,2.7979,2.8802,2.9644,3.0372,3.0607,3.0689,3.1448,3.2154,3.2613,3.1856,3.1935,3.2211,3.1266,3.091,3.0854,3.0769,3.0836,3.093,3.09,3.0268,2.9817,3.0589,3.013,2.9669,3.035,3.0379,3.072,3.2089,3.2371,3.2491,3.2852,3.2784,3.2862,3.3334,3.3491,3.3615,3.3698,3.3947,3.4148,3.4269,3.3736,3.3379,3.3486,3.2971,3.2298,3.1551,3.2403,3.2569,3.1769,3.3412,3.4372,3.4427,3.5272,3.5727,3.5791,3.5793,3.5834,3.5905,3.5911,3.5933,1.5351,0.0,0.0,0.0,0.0,0.0,0.0,0.0,0.0,0.0,0.0,0.0,0.0,0.0,0.0,0.0,0.0,0.0,0.0,0.0,0.0,0.0,0.0,0.0,0.0,0.0,0.0,0.0,2.5119,2.5628,2.5609,2.5613,2.5246,2.4436,2.3484,2.3108,2.3311,2.2299,2.2633,2.4258,2.3442,2.3706,2.4861,2.405,2.3982,2.4493,2.4337,2.4284,2.4357,2.53,2.5801,2.6042,2.6897,2.7848,2.8727,2.8799,2.9245,2.9824,2.9941,3.0356,3.0907,3.1317,3.1727,3.2112,3.2444,3.2481,3.2366,3.2242,3.1905,3.1374,3.0654,3.0368,3.0279,3.0451,2.9899,2.9478,3.0261,3.0287,3.0462,3.1482,3.2035,3.2438,3.2719,3.2866,3.2993,3.3238,3.3415,3.3577,3.3753,3.3972,3.4124,3.4221,3.4267,3.4083,3.3542,3.352,3.2962,3.1589,3.2927,3.3417,3.2608,3.4231,3.5181,3.5206,3.554,3.5698,3.5649,3.5754,3.5838,3.5905,3.5958,3.5981,0.0,0.0,0.0,0.0,0.0,0.0,1.9521,1.9838,0.0,0.0,0.0,0.0,0.0,0.0,0.0,0.0,0.0,0.0,0.0,0.0,0.0,0.0,0.0,0.0,0.0,0.0,0.0,0.0,2.4904,2.56,2.5595,2.56,2.5239,2.4436,2.3494,2.3153,2.3449,2.2384,2.2677,2.4284,2.352,2.3701,2.467,2.3959,2.3876,2.432,2.4155,2.4078,2.4095,2.4687,2.5131,2.5536,2.6388,2.7281,2.814,2.8454,2.882,2.9206,2.9262,2.9623,3.0247,3.1064,3.161,3.2133,3.2834,3.2961,3.282,3.2722,3.2467,3.2068,3.1399,3.1107,3.1026,3.1158,3.038,2.9809,3.0494,3.0328,3.0264,3.1067,3.1757,3.2283,3.2504,3.2406,3.2541,3.3184,3.3114,3.3204,3.3858,3.4049,3.4197,3.4316,3.4517,3.448,3.409,3.4244,3.383,3.2588,3.3825,3.4241,3.3474,3.4802,3.554,3.5553,3.5646,3.5698,3.5679,3.5754,3.583,3.5859,3.5924,3.597,0.0,0.0,0.0,0.0,0.0,0.0,1.8922,1.9449,1.9925,0.0,0.0,0.0,0.0,0.0,0.0,0.0,0.0,0.0,0.0,0.0,0.0,0.0,0.0,0.0,0.0,0.0,2.3198,2.3137,2.4554,2.544,2.5443,2.5454,2.5119,2.4408,2.3461,2.2936,2.2803,2.259,2.2817,2.3441,2.4089,2.4408,2.4425,2.4266,2.4192,2.4192,2.4116,2.4057,2.3996,2.3996,2.4476,2.5328,2.6096,2.69,2.7679,2.8625,2.8888,2.8797,2.9048,2.948,3.0045,3.0808,3.1447,3.2013,3.259,3.2684,3.2606,3.2573,3.2657,3.2722,3.2384,3.2057,3.1785,3.1983,3.1067,3.029,3.0779,3.0363,3.0119,3.0886,3.1533,3.2039,3.2249,3.1841,3.1856,3.3039,3.2752,3.2803,3.3802,3.4093,3.4269,3.445,3.4561,3.4666,3.4768,3.4908,3.4694,3.3955,3.4776,3.4937,3.4096,3.5027,3.5546,3.5465,3.5618,3.5718,3.5791,3.5801,3.5807,3.5807,3.5869,3.5923,0.0,0.0,0.0,0.0,0.0,0.0,1.9413,1.9613,1.9832,0.0,0.0,0.0,0.0,0.0,0.0,0.0,0.0,0.0,0.0,0.0,0.0,0.0,0.0,0.0,0.0,0.0,2.3974,2.3973,2.423,2.4438,2.4541,2.4503,2.44,2.4238,2.3379,2.3077,2.3419,2.2756,2.3062,2.4337,2.4336,2.4374,2.4459,2.4229,2.4133,2.4113,2.4056,2.4016,2.3996,2.3937,2.4067,2.4326,2.5041,2.5863,2.6753,2.7422,2.8046,2.8572,2.8682,2.8685,2.8801,2.9753,3.0431,3.0945,3.1706,3.2257,3.2573,3.2473,3.2541,3.2431,3.1444,3.1654,3.1793,3.0506,3.0052,2.9927,3.0147,3.0044,3.0134,3.1005,3.1234,3.1497,3.2109,3.2281,3.2282,3.2054,3.2685,3.3102,3.2941,3.3716,3.4269,3.4269,3.4561,3.4727,3.4645,3.4869,3.4696,3.3944,3.4767,3.4659,3.3217,3.4687,3.5213,3.4565,3.5267,3.5649,3.5718,3.583,3.5885,3.5885,3.5889,3.5909,0.0,0.0,0.0,1.7101,0.0,0.0,0.0,1.9423,1.9954,0.0,0.0,0.0,0.0,0.0,0.0,0.0,0.0,0.0,0.0,0.0,0.0,0.0,0.0,0.0,0.0,0.0,2.4205,2.4203,2.4164,2.4186,2.4251,2.4258,2.4245,2.4251,2.3793,2.3647,2.3859,2.3343,2.367,2.4798,2.4476,2.4392,2.4442,2.421,2.4074,2.4054,2.3976,2.3937,2.3937,2.3876,2.4049,2.4418,2.5185,2.5937,2.6687,2.7489,2.7932,2.8156,2.8308,2.8273,2.8281,2.9177,2.9658,3.0042,3.0734,3.1105,3.1331,3.167,3.151,3.1122,3.0504,3.0696,3.0835,2.9866,2.9693,2.9881,3.0314,3.0121,3.0223,3.1462,3.1392,3.1218,3.1637,3.1223,3.1089,3.1691,3.1989,3.2409,3.312,3.3765,3.4148,3.4148,3.4427,3.4602,3.4539,3.4771,3.4793,3.4516,3.4993,3.4981,3.4218,3.5079,3.5386,3.5024,3.5435,3.5659,3.5708,3.5803,3.5852,3.585,3.5879,3.5897,0.0,0.0,0.0,0.0,0.0,1.9191,0.0,0.0,0.0,1.9792,0.0,0.0,0.0,0.0,0.0,0.0,0.0,0.0,0.0,0.0,0.0,0.0,0.0,0.0,0.0,0.0,2.4114,2.3956,2.377,2.3661,2.3681,2.3876,2.407,2.4238,2.4172,2.4177,2.4263,2.3932,2.4157,2.4926,2.454,2.4373,2.4373,2.4172,2.4016,2.3976,2.3917,2.3896,2.3896,2.3976,2.4347,2.4932,2.5667,2.6282,2.6845,2.7788,2.795,2.773,2.788,2.7926,2.8021,2.8611,2.9024,2.9373,3.0092,3.0141,3.0029,3.066,3.0363,2.9839,2.9602,2.9704,2.9739,2.9228,2.9297,2.9625,3.0214,3.004,3.0192,3.1498,3.141,3.1182,3.1389,3.0483,3.0224,3.1613,3.1556,3.1864,3.3314,3.3776,3.3998,3.4074,3.4269,3.4409,3.4495,3.467,3.487,3.5053,3.519,3.5254,3.5207,3.5297,3.5442,3.5693,3.5688,3.5669,3.5669,3.5763,3.5788,3.5799,3.5864,3.5911,0.0,0.0,0.0,0.0,1.9933,0.0,0.0,0.0,1.992,1.9903,0.0,0.0,0.0,0.0,0.0,0.0,0.0,0.0,0.0,0.0,0.0,0.0,0.0,0.0,0.0,0.0,0.0,2.3095,2.2226,2.1739,2.1795,2.2485,2.3236,2.4014,2.3976,2.4238,2.4891,2.4056,2.3978,2.4639,2.4355,2.4248,2.4303,2.4037,2.3917,2.3917,2.3896,2.3896,2.3951,2.4464,2.4968,2.5428,2.5656,2.6047,2.663,2.726,2.7496,2.7417,2.7338,2.74,2.7587,2.7806,2.8388,2.9263,3.0449,3.0398,2.9892,2.9881,2.9878,2.9717,2.8858,2.9173,2.933,2.7751,2.7991,2.8591,2.8644,2.9277,2.9861,3.0117,3.0676,3.1357,3.2108,3.2175,3.1991,3.1593,3.2348,3.2798,3.2426,3.3286,3.3947,3.3998,3.4197,3.4363,3.4495,3.4645,3.4771,3.4908,3.5056,3.4833,3.4203,3.434,3.482,3.5604,3.5604,3.5618,3.5618,3.5669,3.5745,3.5803,3.5872,3.5905,0.0,0.0,0.0,0.0,0.0,0.0,0.0,0.0,1.9623,0.0,0.0,0.0,0.0,0.0,0.0,0.0,0.0,0.0,0.0,0.0,0.0,0.0,0.0,0.0,0.0,0.0,0.0,0.0,0.0,2.1433,2.1501,2.1812,2.2382,2.316,2.3649,2.4036,2.4295,2.4334,2.4487,2.4764,2.4426,2.4266,2.4284,2.4019,2.3855,2.3789,2.3732,2.3689,2.3678,2.3884,2.4516,2.5337,2.533,2.5998,2.6948,2.7203,2.7198,2.7021,2.6956,2.6956,2.7053,2.7132,2.7514,2.8077,2.9055,2.8882,2.8511,2.8962,2.8771,2.8305,2.7944,2.8397,2.8779,2.809,2.8555,2.928,2.9695,3.0212,3.0695,3.1097,3.1481,3.1899,3.2301,3.1667,3.1185,3.1582,3.2067,3.2499,3.2839,3.3386,3.3726,3.378,3.3972,3.4173,3.4316,3.4517,3.4728,3.4889,3.5091,3.5089,3.4813,3.4916,3.5175,3.5528,3.557,3.5615,3.5648,3.5689,3.5726,3.5803,3.5834,3.5846,1.7778,0.0,0.0,0.0,0.0,0.0,0.0,0.0,0.0,0.0,0.0,0.0,0.0,0.0,0.0,0.0,0.0,0.0,0.0,0.0,0.0,0.0,0.0,0.0,0.0,0.0,0.0,0.0,0.0,0.0,2.1414,2.1634,2.2,2.2492,2.3332,2.385,2.4043,2.4566,2.4785,2.4731,2.4391,2.4211,2.4137,2.3899,2.3725,2.3611,2.3513,2.3463,2.3448,2.3543,2.4102,2.491,2.5207,2.5919,2.6811,2.6985,2.6891,2.6725,2.6624,2.664,2.6708,2.6979,2.7028,2.7158,2.7945,2.7736,2.7385,2.8146,2.784,2.7365,2.7604,2.7866,2.8146,2.8576,2.8921,2.942,3.0161,3.0612,3.0994,3.1342,3.1794,3.2074,3.1987,3.1249,3.0973,3.1827,3.2041,3.2409,3.3232,3.3433,3.3549,3.3605,3.3807,3.3972,3.4124,3.4404,3.4689,3.4927,3.5145,3.5277,3.5369,3.5412,3.5455,3.5476,3.5553,3.5612,3.5676,3.5698,3.5727,3.576,3.5793,3.5803,0.0,0.0,0.0,1.9424,0.0,0.0,0.0,0.0,2.0125,0.0,0.0,0.0,0.0,0.0,0.0,0.0,0.0,0.0,0.0,0.0,0.0,0.0,0.0,0.0,0.0,0.0,0.0,0.0,0.0,0.0,2.12,2.2018,2.2417,2.2319,2.3027,2.3806,2.4651,2.4623,2.4512,2.4318,2.4174,2.4001,2.3816,2.3611,2.3494,2.3407,2.3265,2.3241,2.3342,2.385,2.4077,2.417,2.5476,2.5877,2.5824,2.6404,2.6606,2.6572,2.6365,2.6452,2.6724,2.7431,2.7283,2.6961,2.7845,2.7637,2.7135,2.7362,2.7442,2.7549,2.8211,2.7751,2.7482,2.8764,2.8524,2.8167,2.8983,2.9753,3.0208,2.9782,3.0889,3.1705,3.1046,3.1792,3.2453,3.257,3.2798,3.2993,3.3086,3.3214,3.3364,3.3577,3.3671,3.3807,3.3998,3.4316,3.4668,3.5075,3.5092,3.5162,3.5312,3.5304,3.533,3.5412,3.5522,3.5604,3.5604,3.5665,3.5708,3.5689,3.5775,3.5801,0.0,0.0,2.0947,2.0023,0.0,0.0,0.0,0.0,0.0,0.0,0.0,0.0,0.0,0.0,0.0,0.0,0.0,0.0,0.0,0.0,0.0,0.0,0.0,0.0,0.0,0.0,0.0,0.0,0.0,0.0,0.0,2.1494,2.1862,2.2168,2.2464,2.3285,2.4692,2.4682,2.4615,2.4495,2.4266,2.4059,2.3862,2.3664,2.3407,2.3144,2.3126,2.3095,2.3063,2.3197,2.3759,2.4517,2.4325,2.4836,2.5678,2.6269,2.6435,2.6382,2.6258,2.6347,2.6503,2.6701,2.7146,2.7504,2.7045,2.7386,2.7805,2.7094,2.7137,2.7414,2.7463,2.767,2.7995,2.8339,2.904,2.9655,2.9819,3.0597,3.1207,3.0986,3.1529,3.1986,3.1795,3.2126,3.2473,3.2573,3.2672,3.2852,3.3183,3.3262,3.3352,3.3452,3.3661,3.3815,3.3921,3.4316,3.4668,3.4889,3.4964,3.5091,3.5226,3.5293,3.532,3.5398,3.5488,3.5579,3.5665,3.5697,3.5718,3.5773,3.5784,3.5801,2.1183,2.1381,0.0,2.0267,2.0222,0.0,1.9332,0.0,0.0,0.0,0.0,0.0,0.0,0.0,0.0,0.0,0.0,0.0,0.0,2.1972,0.0,0.0,0.0,0.0,0.0,0.0,0.0,0.0,0.0,0.0,0.0,0.0,2.1935,2.2464,2.2219,2.2853,2.4513,2.4534,2.4464,2.4302,2.4116,2.3921,2.3756,2.3486,2.3199,2.2944,2.2944,2.2893,2.279,2.2738,2.3244,2.3973,2.3602,2.4041,2.4997,2.5715,2.6114,2.6277,2.6258,2.6312,2.6365,2.6225,2.6683,2.714,2.6656,2.6885,2.7367,2.7242,2.7334,2.7536,2.7896,2.8236,2.8629,2.9087,2.9807,3.0387,3.051,3.1103,3.1634,3.1617,3.1819,3.2037,3.2144,3.2267,3.2405,3.2573,3.2606,3.2737,3.3122,3.3183,3.3244,3.3316,3.3559,3.3788,3.3998,3.4293,3.4473,3.4376,3.4775,3.4923,3.4737,3.5105,3.532,3.5364,3.5455,3.556,3.5657,3.5697,3.5718,3.5801,3.5793,3.5976]},{"header":{"parameterUnit":"m.s-1","parameterCategory":1,"la1":30.6,"la2":29.2853,"lo1":-89.7004,"lo2":-87.6739,"dy":0.0162,"dx":0.0183,"nx":112,"ny":82,"refTime":"2024-03-15T12:00:00:Z","depth":0,"parameterNumber":3,"parameterNumberName":"V-component_of_WINDS"},"data":[0.0,0.0,0.0,0.0,0.0,0.0,0.0,0.0,0.0,0.0,0.0,0.0,0.0,0.0,0.0,0.0,0.0,0.0,0.0,0.0,0.0,0.0,0.0,0.0,0.0,0.0,0.0,0.0,0.0,0.0,0.0,0.0,0.0,0.0,0.0,0.0,0.0,0.0,0.0,0.0,0.0,0.0,0.0,0.0,0.0,0.0,0.0,0.0,0.0,0.0,0.0,0.0,0.0,0.0,0.0,0.0,0.0,0.0,0.0,0.0,0.0,0.0,0.0,0.0,0.0,0.0,0.0,0.0,0.0,0.0,0.0,0.0,0.0,0.0,0.0,0.0,0.0,0.0,0.0,0.0,0.0,0.0,0.0,0.0,0.0,0.0,0.0,0.0,0.0,0.0,0.0,-1.2543,-1.2446,-1.2549,-1.3061,-1.2546,-1.2096,-1.1763,0.0,0.0,0.0,0.0,0.0,0.0,0.0,0.0,0.0,0.0,0.0,0.0,0.0,0.0,0.0,0.0,0.0,0.0,0.0,0.0,0.0,0.0,0.0,0.0,0.0,0.0,0.0,0.0,0.0,0.0,0.0,0.0,0.0,0.0,0.0,0.0,0.0,0.0,0.0,0.0,0.0,0.0,0.0,0.0,0.0,0.0,0.0,0.0,0.0,0.0,0.0,0.0,0.0,0.0,0.0,0.0,0.0,0.0,0.0,0.0,0.0,0.0,0.0,0.0,0.0,0.0,0.0,0.0,0.0,0.0,0.0,0.0,0.0,0.0,0.0,0.0,0.0,0.0,0.0,0.0,0.0,0.0,0.0,0.0,0.0,0.0,0.0,0.0,0.0,0.0,0.0,0.0,0.0,0.0,0.0,0.0,0.0,0.0,0.0,0.0,0.0,0.0,0.0,0.0,-1.2501,-1.2503,-1.2837,-1.3058,-1.3106,-1.3418,-1.328,-1.2494,0.0,0.0,0.0,0.0,0.0,0.0,0.0,0.0,0.0,0.0,0.0,0.0,0.0,0.0,0.0,0.0,0.0,0.0,0.0,0.0,0.0,0.0,0.0,0.0,0.0,0.0,0.0,0.0,0.0,0.0,0.0,0.0,0.0,0.0,0.0,0.0,0.0,0.0,0.0,0.0,0.0,0.0,0.0,0.0,0.0,0.0,0.0,0.0,0.0,0.0,0.0,0.0,0.0,0.0,0.0,0.0,0.0,0.0,0.0,0.0,0.0,0.0,0.0,0.0,0.0,0.0,0.0,0.0,0.0,0.0,0.0,0.0,0.0,0.0,0.0,0.0,0.0,0.0,0.0,0.0,0.0,0.0,0.0,0.0,0.0,0.0,0.0,0.0,0.0,0.0,0.0,0.0,0.0,0.0,0.0,0.0,0.0,0.0,0.0,0.0,0.0,0.0,0.0,-1.205,-1.3005,-1.2947,-1.3343,-1.3428,-1.2932,-1.3406,-1.3213,-1.1969,-1.1969,0.0,0.0,0.0,0.0,0.0,0.0,0.0,0.0,0.0,0.0,0.0,0.0,0.0,0.0,0.0,0.0,0.0,0.0,0.0,0.0,0.0,0.0,0.0,0.0,0.0,0.0,0.0,0.0,0.0,0.0,0.0,0.0,0.0,0.0,0.0,0.0,0.0,0.0,0.0,0.0,0.0,0.0,0.0,0.0,0.0,0.0,0.0,0.0,0.0,0.0,0.0,0.0,0.0,0.0,0.0,0.0,0.0,0.0,0.0,0.0,0.0,0.0,0.0,0.0,0.0,0.0,0.0,0.0,0.0,0.0,0.0,0.0,0.0,0.0,0.0,0.0,0.0,0.0,0.0,0.0,0.0,0.0,0.0,0.0,0.0,0.0,0.0,0.0,0.0,0.0,0.0,0.0,0.0,0.0,0.0,0.0,0.0,0.0,0.0,0.0,0.0,0.0,-1.2569,-1.3187,-1.3239,-1.3689,-1.3718,-1.3014,-1.3346,-1.2931,-1.1425,-1.1837,0.0,0.0,0.0,0.0,0.0,0.0,0.0,0.0,0.0,0.0,0.0,0.0,0.0,0.0,0.0,0.0,0.0,0.0,0.0,0.0,0.0,0.0,0.0,0.0,0.0,0.0,0.0,0.0,0.0,0.0,0.0,0.0,0.0,0.0,0.0,0.0,0.0,0.0,0.0,0.0,0.0,0.0,0.0,0.0,0.0,0.0,0.0,0.0,0.0,0.0,0.0,0.0,0.0,0.0,0.0,0.0,0.0,0.0,0.0,0.0,0.0,0.0,0.0,0.0,0.0,0.0,0.0,0.0,0.0,0.0,0.0,0.0,0.0,0.0,0.0,0.0,0.0,0.0,0.0,0.0,0.0,0.0,0.0,0.0,0.0,0.0,0.0,0.0,0.0,0.0,0.0,0.0,0.0,0.0,0.0,0.0,0.0,0.0,0.0,0.0,0.0,0.0,-1.2312,-1.2567,-1.3067,-1.3641,-1.3915,-1.3735,-1.3587,-1.2906,-1.1485,-1.1373,0.0,0.0,0.0,0.0,0.0,0.0,0.0,0.0,0.0,0.0,0.0,0.0,0.0,0.0,0.0,0.0,0.0,0.0,0.0,0.0,0.0,0.0,0.0,0.0,0.0,0.0,0.0,0.0,0.0,0.0,0.0,0.0,0.0,0.0,0.0,0.0,0.0,0.0,0.0,0.0,0.0,0.0,0.0,0.0,0.0,0.0,0.0,0.0,0.0,0.0,0.0,0.0,0.0,0.0,0.0,0.0,0.0,0.0,0.0,0.0,0.0,0.0,0.0,0.0,0.0,0.0,0.0,0.0,0.0,0.0,0.0,0.0,0.0,0.0,0.0,0.0,0.0,0.0,0.0,0.0,0.0,0.0,0.0,0.0,0.0,0.0,0.0,0.0,0.0,0.0,0.0,0.0,0.0,0.0,0.0,0.0,0.0,0.0,0.0,0.0,0.0,0.0,-1.2889,-1.3405,0.0,-1.404,-1.415,-1.3594,-1.3368,-1.2639,-1.124,0.0,0.0,0.0,0.0,0.0,0.0,0.0,0.0,0.0,0.0,0.0,0.0,0.0,0.0,0.0,0.0,0.0,0.0,0.0,0.0,0.0,0.0,0.0,0.0,0.0,0.0,0.0,0.0,0.0,0.0,0.0,0.0,0.0,0.0,0.0,0.0,0.0,0.0,0.0,0.0,0.0,0.0,0.0,0.0,0.0,0.0,0.0,0.0,0.0,0.0,0.0,0.0,0.0,0.0,0.0,0.0,0.0,0.0,0.0,0.0,0.0,0.0,0.0,0.0,0.0,0.0,0.0,0.0,0.0,0.0,0.0,0.0,0.0,0.0,0.0,0.0,0.0,0.0,0.0,0.0,0.0,0.0,0.0,0.0,0.0,0.0,0.0,0.0,0.0,0.0,0.0,0.0,0.0,0.0,0.0,0.0,0.0,0.0,0.0,0.0,0.0,0.0,-1.2164,-1.3275,-1.3955,0.0,-1.4106,-1.4048,-1.3423,-1.281,-1.195,-1.0745,0.0,0.0,0.0,0.0,0.0,0.0,0.0,0.0,0.0,0.0,0.0,0.0,0.0,0.0,0.0,0.0,0.0,0.0,0.0,0.0,0.0,0.0,0.0,0.0,0.0,0.0,0.0,0.0,0.0,0.0,0.0,0.0,0.0,0.0,0.0,0.0,0.0,0.0,0.0,0.0,0.0,0.0,0.0,0.0,0.0,0.0,0.0,0.0,0.0,0.0,0.0,0.0,0.0,0.0,0.0,0.0,0.0,0.0,0.0,0.0,0.0,0.0,0.0,0.0,0.0,0.0,0.0,0.0,0.0,0.0,0.0,0.0,0.0,0.0,0.0,0.0,0.0,0.0,0.0,0.0,0.0,0.0,0.0,0.0,0.0,0.0,0.0,0.0,0.0,0.0,0.0,0.0,0.0,0.0,0.0,0.0,0.0,0.0,0.0,0.0,0.0,0.0,-1.2112,-1.3268,-1.4019,-1.3835,-1.3755,-1.3572,-1.3327,-1.195,-1.0786,0.0,0.0,0.0,0.0,0.0,0.0,0.0,0.0,0.0,0.0,0.0,0.0,0.0,0.0,0.0,0.0,0.0,0.0,0.0,0.0,0.0,0.0,0.0,0.0,0.0,0.0,0.0,0.0,0.0,0.0,0.0,0.0,0.0,0.0,0.0,0.0,0.0,0.0,0.0,0.0,0.0,0.0,0.0,0.0,0.0,0.0,0.0,0.0,0.0,0.0,0.0,0.0,0.0,0.0,0.0,0.0,0.0,0.0,0.0,0.0,0.0,0.0,0.0,0.0,0.0,0.0,0.0,0.0,0.0,0.0,0.0,0.0,0.0,0.0,0.0,0.0,0.0,0.0,0.0,0.0,0.0,0.0,0.0,0.0,0.0,0.0,0.0,0.0,0.0,0.0,0.0,0.0,0.0,0.0,0.0,0.0,0.0,0.0,0.0,0.0,0.0,0.0,0.0,0.0,-1.3051,-1.3725,-1.3664,-1.3484,-1.3301,-1.3168,-1.1802,-1.0804,-1.0437,0.0,0.0,0.0,0.0,0.0,0.0,0.0,0.0,0.0,0.0,0.0,0.0,0.0,0.0,0.0,0.0,0.0,0.0,0.0,0.0,0.0,0.0,0.0,0.0,0.0,0.0,0.0,0.0,0.0,0.0,0.0,0.0,0.0,0.0,0.0,0.0,0.0,0.0,0.0,0.0,0.0,0.0,0.0,0.0,0.0,0.0,0.0,0.0,0.0,0.0,0.0,0.0,0.0,0.0,0.0,0.0,0.0,0.0,0.0,0.0,0.0,0.0,0.0,0.0,0.0,0.0,0.0,0.0,0.0,0.0,0.0,0.0,0.0,0.0,0.0,0.0,0.0,0.0,0.0,0.0,0.0,0.0,0.0,0.0,0.0,0.0,0.0,0.0,0.0,0.0,0.0,0.0,0.0,0.0,0.0,0.0,0.0,0.0,0.0,0.0,0.0,0.0,-1.193,-1.2981,-1.3742,-1.3941,-1.3811,-1.3549,-1.3143,-1.2015,-1.1124,-1.0635,0.0,0.0,0.0,0.0,0.0,0.0,0.0,0.0,0.0,0.0,0.0,0.0,0.0,0.0,0.0,0.0,0.0,0.0,0.0,0.0,0.0,0.0,0.0,0.0,0.0,0.0,0.0,0.0,0.0,0.0,0.0,0.0,0.0,0.0,0.0,0.0,0.0,0.0,0.0,0.0,0.0,0.0,0.0,0.0,0.0,0.0,0.0,0.0,0.0,0.0,0.0,0.0,0.0,0.0,0.0,0.0,0.0,0.0,0.0,0.0,0.0,0.0,0.0,0.0,0.0,0.0,0.0,0.0,0.0,0.0,0.0,0.0,0.0,0.0,0.0,0.0,0.0,0.0,0.0,0.0,0.0,0.0,0.0,0.0,0.0,0.0,0.0,0.0,0.0,0.0,0.0,0.0,0.0,0.0,0.0,0.0,0.0,0.0,0.0,0.0,0.0,0.0,-1.2067,-1.3064,-1.3987,-1.4448,-1.4466,-1.4107,-1.323,-1.242,-1.1601,-1.0729,0.0,0.0,0.0,0.0,0.0,0.0,0.0,0.0,0.0,0.0,0.0,0.0,0.0,0.0,0.0,0.0,0.0,0.0,0.0,0.0,0.0,0.0,0.0,0.0,0.0,0.0,0.0,0.0,0.0,0.0,0.0,0.0,0.0,0.0,0.0,0.0,0.0,0.0,0.0,0.0,0.0,0.0,0.0,0.0,0.0,0.0,0.0,0.0,0.0,0.0,0.0,0.0,0.0,0.0,0.0,0.0,0.0,0.0,0.0,0.0,-1.027,0.0,0.0,0.0,0.0,0.0,0.0,0.0,0.0,0.0,0.0,0.0,0.0,0.0,0.0,0.0,0.0,0.0,0.0,0.0,0.0,0.0,0.0,0.0,0.0,0.0,0.0,0.0,0.0,0.0,0.0,0.0,0.0,0.0,0.0,0.0,0.0,0.0,0.0,0.0,0.0,0.0,-1.2561,-1.3277,-1.3867,-1.4448,-1.4269,-1.397,-1.3669,-1.2443,-1.1546,-1.1255,0.0,0.0,0.0,0.0,0.0,0.0,0.0,0.0,0.0,0.0,0.0,0.0,0.0,0.0,0.0,0.0,0.0,0.0,0.0,0.0,0.0,0.0,0.0,0.0,0.0,0.0,0.0,0.0,0.0,0.0,0.0,0.0,0.0,0.0,0.0,0.0,0.0,0.0,0.0,0.0,0.0,0.0,0.0,0.0,0.0,0.0,0.0,0.0,0.0,0.0,0.0,0.0,0.0,0.0,0.0,0.0,0.0,0.0,0.0,0.0,0.0,-1.1094,0.0,0.0,0.0,0.0,0.0,0.0,0.0,0.0,0.0,0.0,0.0,0.0,0.0,0.0,0.0,0.0,0.0,0.0,0.0,0.0,0.0,0.0,0.0,0.0,0.0,0.0,0.0,0.0,0.0,0.0,0.0,0.0,0.0,0.0,0.0,0.0,0.0,0.0,0.0,0.0,-1.262,-1.3253,-1.3933,-1.4746,-1.4615,-1.4196,-1.3473,-1.2623,-1.1817,-1.1054,-0.9532,0.0,0.0,0.0,0.0,0.0,0.0,0.0,0.0,0.0,0.0,0.0,0.0,0.0,0.0,0.0,0.0,0.0,0.0,0.0,0.0,0.0,0.0,0.0,0.0,0.0,0.0,0.0,0.0,0.0,0.0,0.0,0.0,0.0,0.0,0.0,0.0,0.0,0.0,0.0,0.0,0.0,0.0,0.0,0.0,0.0,0.0,0.0,0.0,0.0,0.0,0.0,0.0,0.0,0.0,-1.5048,-1.4891,-1.5042,-1.4982,-1.4674,-1.2804,-1.1917,-1.1766,0.0,0.0,0.0,0.0,0.0,0.0,0.0,0.0,0.0,0.0,0.0,0.0,0.0,0.0,0.0,0.0,0.0,0.0,0.0,0.0,0.0,0.0,0.0,0.0,0.0,-1.4098,-1.4411,0.0,0.0,0.0,0.0,0.0,0.0,0.0,0.0,0.0,0.0,0.0,0.0,-1.2647,-1.3212,-1.3943,-1.5034,-1.5027,-1.4479,-1.3375,-1.2872,-1.2143,-1.0984,-0.9631,-0.9108,0.0,0.0,0.0,0.0,0.0,0.0,0.0,0.0,0.0,0.0,0.0,0.0,0.0,0.0,0.0,0.0,0.0,0.0,0.0,0.0,0.0,0.0,0.0,0.0,0.0,0.0,0.0,0.0,0.0,0.0,0.0,0.0,-1.4172,-1.3999,0.0,0.0,0.0,0.0,0.0,0.0,0.0,0.0,0.0,0.0,0.0,0.0,0.0,0.0,-1.4586,-1.5158,-1.5132,-1.4532,-1.5598,-1.5819,-1.5246,-1.578,-1.567,-1.5027,-1.4562,0.0,-1.3304,-1.3236,0.0,0.0,0.0,0.0,0.0,0.0,0.0,0.0,0.0,0.0,0.0,0.0,0.0,0.0,0.0,0.0,0.0,0.0,0.0,0.0,0.0,0.0,-1.5357,-1.537,-1.582,-1.6255,0.0,-1.4518,-1.285,-1.2226,0.0,0.0,0.0,0.0,0.0,0.0,0.0,0.0,-1.3129,-1.331,-1.3765,-1.4914,-1.4752,-1.4495,-1.4311,-1.3106,-1.2314,-1.2182,-1.053,-0.9609,-0.9689,-0.8875,0.0,0.0,0.0,0.0,0.0,0.0,0.0,0.0,0.0,0.0,0.0,0.0,0.0,0.0,0.0,0.0,0.0,0.0,0.0,0.0,0.0,0.0,0.0,0.0,0.0,0.0,0.0,0.0,0.0,-1.3699,-1.4165,-1.3639,-1.3962,-1.4195,0.0,0.0,0.0,0.0,0.0,0.0,0.0,0.0,0.0,-1.4676,-1.4658,-1.4997,-1.5731,-1.595,-1.6046,-1.6039,-1.6565,-1.6626,-1.6275,-1.6571,-1.6531,-1.6238,-1.6127,-1.559,-1.4733,-1.4223,-1.3758,-1.3334,0.0,0.0,0.0,0.0,0.0,-1.3163,-1.4118,0.0,0.0,0.0,0.0,0.0,0.0,0.0,0.0,0.0,0.0,0.0,0.0,0.0,0.0,-1.6083,-1.6278,-1.6458,-1.6522,-1.5393,-1.4181,0.0,-1.3487,-1.3011,-1.1816,0.0,0.0,0.0,0.0,0.0,-1.3269,-1.351,-1.3799,-1.4234,-1.4322,-1.4233,-1.386,-1.2923,-1.2323,-1.2239,-1.0666,-1.003,-1.0628,-0.94,-0.8756,0.0,0.0,0.0,0.0,0.0,0.0,0.0,0.0,0.0,0.0,0.0,0.0,0.0,0.0,0.0,0.0,0.0,0.0,0.0,0.0,0.0,0.0,0.0,0.0,0.0,0.0,0.0,0.0,-1.4167,-1.4212,-1.3345,-1.3783,-1.4083,0.0,0.0,0.0,0.0,0.0,0.0,-1.3914,-1.3882,-1.428,-1.5223,-1.5185,-1.5722,-1.6922,-1.677,-1.6947,-1.7462,-1.7338,-1.7216,-1.7167,-1.7166,-1.7174,-1.7158,-1.7108,-1.666,-1.5901,-1.5098,-1.4514,-1.4096,-1.3344,-1.3109,-1.3203,-1.3426,-1.3516,-1.3807,-1.523,-1.5338,-1.4848,-1.5092,0.0,-1.4069,-1.3331,0.0,0.0,0.0,0.0,-1.45,-1.5387,0.0,-1.6221,-1.6542,-1.6652,-1.6762,-1.6886,-1.6401,-1.5723,0.0,-1.4435,-1.3638,-1.2592,0.0,0.0,0.0,0.0,-1.3336,-1.3439,-1.3714,-1.3909,-1.3956,-1.4186,-1.411,-1.3614,-1.3004,-1.258,-1.2436,-1.1053,-1.0605,-1.1428,-0.998,-0.932,0.0,0.0,0.0,0.0,0.0,0.0,0.0,0.0,0.0,0.0,0.0,0.0,0.0,0.0,0.0,0.0,0.0,0.0,0.0,0.0,0.0,0.0,0.0,0.0,0.0,0.0,0.0,0.0,0.0,0.0,-1.3549,-1.5261,0.0,0.0,0.0,0.0,-1.3463,-1.3379,-1.3735,-1.4502,-1.4537,-1.5237,-1.6758,-1.6652,-1.6987,-1.7832,-1.7562,-1.7579,-1.7861,-1.7599,-1.7505,-1.7566,-1.7451,-1.7346,-1.7281,-1.7158,-1.6959,-1.6693,-1.5957,-1.5137,-1.4341,-1.393,-1.4175,-1.4818,-1.5023,-1.5372,-1.5811,-1.6215,-1.6176,-1.6028,-1.6746,-1.6601,-1.5997,-1.505,-1.4419,0.0,0.0,-1.4651,-1.4999,-1.5548,-1.6133,-1.6649,-1.6908,-1.7419,-1.7867,-1.8066,-1.7685,-1.6954,0.0,-1.4967,-1.4266,-1.3629,0.0,-1.3628,-1.2886,-1.3021,-1.3358,-1.3826,-1.3839,-1.4004,-1.4603,-1.4497,-1.4383,-1.4356,-1.3672,-1.3273,-1.3334,-1.2114,-1.1454,-1.16,-1.0813,-1.02,-0.9792,-0.8912,0.0,0.0,0.0,0.0,0.0,0.0,0.0,0.0,0.0,0.0,0.0,0.0,0.0,0.0,0.0,0.0,0.0,0.0,0.0,0.0,0.0,0.0,0.0,0.0,0.0,0.0,0.0,0.0,-1.4944,-1.5609,0.0,0.0,-1.5141,-1.5146,-1.5571,-1.4705,-1.476,-1.614,-1.6536,-1.7007,-1.7658,-1.8007,-1.8054,-1.7755,-1.7704,-1.7698,-1.7704,-1.7559,-1.7489,-1.7472,-1.7427,-1.7346,-1.7224,-1.7199,-1.7016,-1.6706,-1.6406,-1.5988,-1.5514,-1.5122,-1.5284,-1.571,-1.557,-1.5997,-1.6678,-1.6812,-1.6746,-1.6569,-1.643,-1.6167,-1.5781,-1.5459,-1.5115,-1.4967,-1.549,-1.5735,-1.5981,-1.6665,-1.7063,-1.7344,-1.7582,-1.7812,-1.8016,-1.8201,-1.7782,-1.7265,-1.6942,-1.6306,-1.5611,-1.5045,-1.5333,-1.53,-1.435,-1.4637,-1.4738,-1.4184,-1.4264,-1.4309,-1.4081,-1.4228,-1.4332,-1.4332,-1.3668,-1.3239,-1.3266,-1.2209,-1.1495,-1.1362,-1.0829,-1.0254,-0.9608,-0.9298,-0.8731,0.0,0.0,0.0,0.0,0.0,0.0,0.0,0.0,0.0,0.0,0.0,0.0,0.0,0.0,0.0,0.0,0.0,0.0,0.0,0.0,0.0,0.0,0.0,0.0,0.0,0.0,-1.6291,-1.5877,-1.627,-1.6521,-1.637,-1.6001,-1.6092,-1.6846,-1.6197,-1.6272,-1.7389,-1.7714,-1.7961,-1.807,-1.8416,-1.8325,-1.7772,-1.7772,-1.7766,-1.7726,-1.7606,-1.7519,-1.7502,-1.7434,-1.7354,-1.7265,-1.7248,-1.7066,-1.6815,-1.6686,-1.649,-1.6237,-1.6053,-1.6111,-1.6332,-1.6355,-1.6703,-1.7164,-1.719,-1.7219,-1.7192,-1.6911,-1.6569,-1.6347,-1.6415,-1.6362,-1.6255,-1.6395,-1.6788,-1.7251,-1.7657,-1.7836,-1.8015,-1.8235,-1.8139,-1.8068,-1.8266,-1.7935,-1.771,-1.7875,-1.7152,-1.6404,-1.6033,-1.6368,-1.6318,-1.534,-1.5613,-1.5545,-1.4512,-1.4572,-1.4516,-1.4007,-1.42,-1.4351,-1.4268,-1.3781,-1.3378,-1.3218,-1.2226,-1.1533,-1.1241,-1.0753,-1.0182,-0.954,-0.9462,-0.8838,-0.7648,0.0,0.0,0.0,0.0,0.0,0.0,0.0,0.0,0.0,0.0,0.0,0.0,0.0,0.0,0.0,0.0,0.0,0.0,0.0,0.0,0.0,0.0,0.0,-1.5744,-1.6986,-1.7449,-1.6289,-1.7319,-1.7549,-1.6143,-1.7274,-1.7799,-1.7079,-1.7679,-1.8113,-1.8155,-1.8005,-1.7961,-1.8005,-1.7912,-1.785,-1.7905,-1.7755,-1.7794,-1.7983,-1.776,-1.7652,-1.7721,-1.7569,-1.7484,-1.7477,-1.7396,-1.7297,-1.7147,-1.6879,-1.6644,-1.6495,-1.6653,-1.6696,-1.6703,-1.7454,-1.7576,-1.7363,-1.745,-1.7637,-1.7963,-1.8294,-1.8093,-1.7745,-1.8008,-1.8118,-1.7896,-1.6995,-1.7771,-1.8799,-1.8381,-1.8322,-1.8452,-1.8821,-1.844,-1.8068,-1.8266,-1.8305,-1.8358,-1.8464,-1.746,-1.655,-1.655,-1.6726,-1.6584,-1.5733,-1.5778,0.0,-1.4921,-1.476,-1.4665,-1.4529,-1.4529,-1.4433,-1.4235,-1.4078,-1.3746,-1.3218,-1.2333,-1.1645,-1.1308,-1.0677,-1.0114,-0.9642,-0.9409,-0.8838,-0.7948,0.0,0.0,0.0,0.0,0.0,0.0,0.0,0.0,0.0,0.0,0.0,0.0,0.0,0.0,0.0,0.0,0.0,0.0,0.0,0.0,0.0,0.0,-1.6801,-1.7367,-1.7377,-1.7406,-1.7663,-1.802,-1.8308,-1.8429,-1.8284,-1.8556,-1.9423,-1.8676,-1.8435,-1.8996,-1.8813,-1.8523,-1.8087,-1.845,-1.8421,-1.7922,-1.79,-1.7917,-1.7873,-1.8386,-1.8552,-1.8447,-1.9034,-1.9202,-1.9064,-1.9064,-1.889,-1.8605,-1.8451,-1.8197,-1.7846,-1.7241,-1.7089,-1.7243,-1.7923,-1.829,-1.8508,-1.8755,-1.8615,-1.8251,-1.8269,-1.7954,-1.7636,-1.8051,-1.8162,-1.8061,-1.7774,-1.8,-1.8236,-1.7803,-1.7866,-1.8085,-1.833,-1.8273,-1.8189,-1.8386,-1.8372,-1.8358,-1.8464,-1.8145,-1.7817,-1.7817,-1.7841,-1.753,-1.6431,0.0,0.0,-1.544,-1.5272,-1.5192,-1.5159,-1.5086,-1.4842,-1.4461,-1.4163,-1.3605,0.0,-1.2232,-1.1747,-1.1104,-1.1003,-1.0808,-1.056,-0.9528,-0.9058,0.0,0.0,0.0,0.0,0.0,0.0,0.0,0.0,0.0,0.0,0.0,0.0,0.0,0.0,0.0,0.0,0.0,0.0,0.0,0.0,0.0,0.0,-1.6509,-1.7453,-1.8118,-1.7922,-1.786,-1.8373,-1.8682,-1.9007,-1.9443,-1.9638,-2.0102,-2.1016,-2.02,-1.9727,-1.9894,-1.9379,-1.8774,-1.8065,-1.8432,-1.8563,-1.8404,-1.8466,-1.862,-1.8852,-1.9311,-1.945,-1.931,-1.9807,-1.9959,0.0,-1.9654,-1.9465,-1.9171,-1.8972,-1.8724,0.0,0.0,0.0,0.0,0.0,-1.9047,-1.9386,-1.9554,-1.9165,-1.8631,-1.907,-1.8438,-1.7674,-1.872,-1.8587,-1.81,-1.8118,-1.8472,-1.8713,-1.8158,-1.8475,-1.8897,-1.8892,-1.8714,-1.8616,-1.8737,-1.8474,-1.8293,-1.8411,0.0,0.0,-1.8187,-1.824,-1.7921,-1.6964,-1.6825,-1.6603,0.0,-1.5772,-1.5606,-1.5278,-1.5209,-1.4931,-1.4295,-1.4098,0.0,0.0,0.0,-1.2053,-1.1397,-1.1208,0.0,0.0,0.0,-0.9833,-1.0177,0.0,0.0,0.0,-0.947,-0.9805,0.0,0.0,0.0,0.0,0.0,0.0,0.0,0.0,0.0,0.0,0.0,0.0,0.0,0.0,0.0,0.0,-1.7358,-1.7784,-1.8443,-1.8588,-1.8665,-1.872,-1.9243,-1.9675,-1.9851,-2.1057,-2.1847,-2.2006,-2.1847,-2.1427,-2.0767,0.0,0.0,0.0,0.0,-1.8538,-1.9121,-1.9276,-1.967,-2.0301,-2.0387,-2.0372,-2.023,-2.0314,-2.0289,-2.015,-1.9887,-1.9651,-1.9443,-1.9199,-1.8871,-1.864,-1.8873,-1.8876,-1.8779,-1.9491,-1.988,0.0,0.0,0.0,0.0,-2.0234,-1.927,-1.8064,-1.972,-1.9324,-1.8328,-1.8376,-1.9081,-1.9646,-1.8983,-1.9512,-2.0113,-1.9812,-1.9371,-1.9058,-1.9058,-1.859,-1.8149,-1.8201,-1.8175,-1.8109,-1.8002,-1.8095,-1.7942,-1.735,-1.7253,-1.7037,-1.6354,-1.6286,-1.5996,-1.5265,0.0,0.0,-1.4099,-1.4053,-1.3729,-1.2988,-1.2792,-1.2523,-1.2019,-1.1523,-1.1427,-1.1784,-1.1202,-1.0956,-1.1132,-1.1183,-1.1243,-1.1256,-1.0496,-1.0503,0.0,0.0,0.0,0.0,0.0,0.0,0.0,0.0,0.0,0.0,0.0,0.0,0.0,0.0,0.0,-1.7273,-1.7926,-1.8614,-1.9333,-1.95,-1.9517,-1.9489,-1.9552,-2.0088,-2.133,-2.1662,-2.2073,-2.2733,-2.2209,-2.1766,-2.1496,-2.0148,0.0,-1.9063,-1.9117,-1.9186,-1.9269,-1.9964,-2.0315,-2.0318,0.0,0.0,-2.1079,-2.1664,-2.1898,-2.1815,-2.1625,-2.1334,-2.1054,-2.0811,-2.0415,-1.9873,-1.9122,-1.9289,-2.0015,-2.0405,-2.0655,-2.0844,-2.1049,-2.0784,-2.032,-2.0247,-1.9822,-1.9456,-2.014,-2.008,0.0,-1.9694,-1.9724,-1.969,-1.9178,-1.9256,-1.948,-1.9463,-1.9068,-1.8679,-1.8679,-1.822,-1.7747,-1.7679,-1.7733,-1.7788,-1.776,-1.7922,-1.7796,-1.7016,-1.6959,-1.6919,-1.6721,-1.6696,-1.6579,-1.6331,-1.6279,-1.5817,-1.4791,-1.4572,-1.4091,-1.3196,-1.2961,-1.2784,-1.2613,-1.2839,-1.2742,-1.2279,-1.2128,-1.2045,-1.1976,-1.1919,-1.2326,-1.3083,-1.1957,-1.153,0.0,0.0,0.0,0.0,0.0,0.0,0.0,0.0,0.0,0.0,0.0,-1.5877,0.0,0.0,-1.7504,-1.7984,-1.8354,-1.8884,-1.9702,-1.983,-1.997,-2.0252,-2.0639,-2.1145,-2.1931,-2.2282,-2.2618,-2.301,-2.272,-2.2268,-2.1788,-2.104,-2.0442,-1.997,-1.9958,-2.0131,-2.05,-2.0897,-2.1253,-2.149,-2.1841,-2.1977,-2.1898,-2.2235,-2.2349,-2.2282,-2.2032,-2.1735,-2.1462,-2.1087,-2.0677,-2.027,-2.0045,-2.034,-2.0906,-2.1138,-2.1423,-2.1671,-2.1602,-2.1219,-2.0721,-2.0725,-2.0226,-1.9687,-2.0448,-2.0159,-1.9641,-1.9946,-1.9895,-1.9621,-1.9324,-1.9542,-1.9851,-1.9714,-1.9243,-1.8941,-1.9248,-1.8665,-1.8118,-1.8398,-1.8465,-1.8508,-1.8495,-1.858,-1.8313,-1.7397,-1.7368,-1.7394,-1.7196,-1.7223,-1.7076,-1.6612,-1.6533,-1.6032,-1.48,-1.4328,-1.3924,-1.3525,-1.3408,-1.3311,-1.3214,-1.3406,-1.3318,-1.2892,-1.2905,-1.2785,-1.255,-1.2583,-1.282,-1.3216,-1.26,-1.2456,0.0,0.0,0.0,0.0,0.0,0.0,0.0,0.0,-1.6325,-1.6284,-1.6447,-1.6747,-1.7225,-1.7517,-1.7896,-1.859,-1.8642,-1.8977,-1.9954,-2.0139,-2.0403,-2.1078,-2.1596,-2.195,-2.2076,-2.2588,-2.2915,-2.2915,-2.3056,-2.2814,-2.2111,-2.1978,-2.1604,-2.0906,-2.0848,-2.112,-2.1739,-2.1846,-2.2176,-2.2738,-2.2632,-2.2569,-2.2515,-2.2432,-2.2338,-2.2254,-2.1903,-2.1631,-2.1386,-2.1003,-2.0668,-2.0416,-2.0987,-2.134,-2.1554,-2.16,-2.1981,-2.237,-2.1949,-2.1442,-2.1019,-2.1308,-2.0678,-1.99,-2.0801,-2.0223,-1.9389,-2.0004,-1.9956,-1.9671,-1.9582,-1.9991,-2.0369,-2.0171,-1.9666,-1.9331,-1.9838,-1.9159,-1.861,-1.9118,-1.9211,-1.9211,-1.9211,-1.9256,-1.8986,-1.7973,-1.799,-1.7936,-1.7584,-1.7625,-1.741,-1.6718,-1.6626,-1.6049,-1.473,-1.3981,-1.3661,-1.3741,-1.3788,-1.3741,-1.3581,-1.3581,-1.3547,-1.3391,-1.3391,-1.3254,-1.2978,-1.3025,-1.3124,-1.325,-1.3045,-1.3192,-1.6177,-1.534,0.0,-1.6754,-1.625,-1.5766,0.0,0.0,-1.7673,-1.8181,-1.8359,-1.8431,-1.85,-1.8572,-1.8663,-1.8698,-1.8697,-1.9193,-2.0678,-2.0975,-2.1301,-2.1959,-2.1562,-2.1455,-2.2051,-2.217,-2.2246,-2.2291,-2.2835,-2.3157,-2.3045,-2.2418,-2.2036,-2.1942,-2.1925,-2.1954,-2.1972,-2.2548,-2.2857,-2.285,-2.2632,-2.2542,-2.2579,-2.2394,-2.2282,-2.2185,-2.1801,-2.145,-2.1167,-2.1321,-2.1039,-2.055,-2.1409,-2.1708,-2.1685,-2.1699,-2.2057,-2.2509,-2.1996,-2.1799,-2.1805,-2.1636,-2.1472,-2.1343,-2.1334,-2.0926,-2.044,-2.0505,-2.0281,-1.9991,-2.0066,-2.0307,-2.0498,-2.057,-2.0077,-1.9542,-1.9607,-1.9149,-1.8675,-1.8673,-1.8845,-1.8911,-1.8773,-1.9061,-1.9088,-1.8435,-1.8329,-1.8185,-1.7746,-1.7584,-1.7421,-1.7149,-1.7024,-1.6393,-1.5057,-1.413,-1.3581,-1.356,-1.3708,-1.3708,-1.3514,-1.3581,-1.3547,-1.3391,-1.3391,-1.3323,-1.3163,-1.3012,-1.3471,-1.4497,-1.3814,-1.3545,-1.7596,0.0,0.0,0.0,-1.7921,-1.7799,-1.8802,-1.8977,-1.892,-1.8901,-1.8977,-1.8996,-1.8843,-1.8895,-1.8948,0.0,-1.9237,-1.9899,-2.1024,-2.1637,-2.2031,-2.2246,-2.2082,-2.189,-2.1661,-2.1562,-2.1558,-2.1604,-2.1817,-2.195,-2.1972,-2.2078,-2.2167,-2.2162,-2.2535,-2.2717,-2.2645,-2.2795,-2.2868,-2.2842,-2.2605,-2.2515,-2.2542,-2.2377,-2.2237,-2.2061,-2.1784,-2.1542,-2.1373,-2.1292,-2.1029,-2.0769,-2.1673,-2.1736,-2.1332,-2.1695,-2.219,-2.2629,-2.2091,-2.1902,-2.1841,-2.1568,-2.1264,-2.1019,-2.1095,-2.0985,-2.0888,-2.0991,-2.0849,-2.0717,-2.0996,-2.0641,-2.0284,-2.0487,-1.9851,-1.9306,-1.9573,-1.9341,-1.9227,-1.9574,-1.9833,-1.993,-2.0005,-2.004,-1.9938,-1.9403,-1.8786,-1.8256,-1.7906,-1.7631,-1.7337,-1.7115,-1.6368,-1.567,-1.5057,-1.4062,-1.348,-1.348,-1.3594,-1.356,-1.3459,-1.3778,-1.3864,-1.3709,-1.4023,-1.415,-1.4088,-1.4001,-1.4237,-1.4799,-1.437,-1.4367,-1.8525,0.0,0.0,-1.8921,-1.9224,-1.9206,-1.9846,-1.9925,-1.9783,-1.9402,-1.9382,-1.9291,-1.8788,-1.8982,0.0,-1.881,-1.9592,-2.0499,-2.1295,-2.211,-2.2556,-2.2434,-2.2335,-2.196,-2.111,-2.1079,-2.1054,-2.09,-2.1019,-2.1191,-2.1447,-2.1961,-2.2345,-2.2553,-2.2965,-2.3144,-2.3095,-2.2893,-2.2816,-2.2816,-2.2605,-2.2515,-2.2515,-2.2304,-2.2118,-2.1969,-2.1797,-2.1634,-2.1497,-2.1424,-2.1198,-2.097,-2.191,-2.1865,-2.1349,-2.1875,-2.2221,-2.24,-2.2128,-2.1902,-2.1712,-2.152,-2.1166,-2.0822,-2.0924,-2.0861,-2.0808,-2.0913,-2.0768,-2.0658,-2.1049,-2.0545,-1.9988,-2.0273,-1.9759,-1.9246,-1.9633,-1.9598,-1.9696,-2.0244,-2.0498,-2.0662,-2.0788,-2.0712,-2.0502,-1.9878,-1.9055,-1.839,-1.8131,-1.7663,-1.7267,-1.7002,-1.5876,-1.5107,-1.5208,-1.4092,-1.3489,-1.3676,-1.357,-1.348,-1.3425,-1.3833,-1.3943,-1.3763,-1.4337,-1.4575,-1.4472,-1.4608,-1.4835,-1.5064,-1.4878,-1.5134,0.0,0.0,-1.7058,-1.9778,-1.9777,-1.9292,-2.0024,-2.0146,-2.0059,-1.9907,-1.9835,-1.9463,-1.8408,-1.8933,-1.9184,-1.8286,-1.95,-2.0841,-2.1584,-2.2392,-2.283,-2.2698,-2.2007,-2.1207,0.0,-2.0854,-2.0883,-2.0188,-2.0854,-2.1606,-2.2321,-2.2368,-2.2722,-2.344,-2.3223,-2.3095,-2.3095,-2.2893,-2.2842,-2.2876,-2.2649,-2.2525,-2.2579,-2.2186,-2.1969,-2.1899,-2.1768,-2.1556,-2.1357,-2.1923,-2.1745,-2.1182,-2.2072,-2.2232,-2.1994,-2.2271,-2.2089,-2.1652,-2.1927,-2.1841,-2.1616,-2.1616,-2.1506,-2.1326,-2.1082,-2.0536,-2.0029,-2.0054,-1.9666,-1.9352,-1.9758,-1.9733,-1.972,-2.0105,-1.9875,-1.9643,-1.9939,-1.9862,-1.9888,-2.0169,-2.0347,-2.0511,-2.0511,-2.0612,-2.0354,-1.9392,-1.8973,-1.8682,-1.8415,-1.7692,-1.7157,-1.7002,-1.5876,-1.5272,-1.563,-1.4272,-1.362,-1.4167,-1.3822,-1.3581,-1.348,-1.3573,-1.3539,-1.3416,-1.3928,-1.411,-1.3951,-1.4448,-1.497,-1.5488,-1.5406,-1.5773,0.0,0.0,-1.8509,-2.0046,-2.0232,-2.0071,-2.0292,-2.0268,-2.0029,-1.9325,-1.9153,-1.9004,-1.8549,-1.8713,-1.8958,-1.9077,-2.0459,-2.1581,-2.174,-2.2922,-2.3529,-2.2904,-2.2574,0.0,0.0,0.0,0.0,-2.021,-2.0444,-2.0931,-2.1762,-2.1799,-2.1906,-2.2093,-2.2489,-2.2625,-2.2511,-2.2832,-2.2927,-2.2842,-2.2623,-2.2515,-2.2525,-2.226,-2.2118,-2.2089,-2.1857,-2.1678,-2.1573,-2.1646,-2.1488,-2.1263,-2.1701,-2.1776,-2.1769,-2.241,-2.226,-2.1742,-2.2249,-2.2184,-2.1841,-2.1746,-2.1264,-2.0772,-2.0858,-2.063,-2.0335,-2.0441,-2.0295,-2.0114,-2.0404,-2.0056,-1.971,-2.0048,-1.9773,-1.9376,-1.9376,-1.9504,-1.909,-1.7209,-1.8634,-1.9583,-1.781,-1.9113,-2.0204,-1.9697,-1.8758,-1.7945,-1.765,-1.7287,-1.7073,-1.7115,-1.6209,-1.5718,-1.5871,-1.5044,-1.4483,-1.4328,-1.4541,-1.4297,-1.3552,-1.4459,-1.479,-1.4337,-1.4813,-1.5035,-1.4955,-1.4809,-1.5035,-1.5624,-1.5472,-1.5714,-1.8686,-1.9043,-1.9227,-2.0211,-2.0465,-2.0486,-2.045,-2.0394,-2.0097,-1.9107,-1.8888,-1.8639,-1.7947,-1.8276,-1.8707,-1.8824,-2.0707,-2.2125,-2.2044,-2.3384,-2.4135,-2.351,-2.318,0.0,0.0,0.0,0.0,-2.0282,-2.0282,-2.0626,-2.146,-2.1479,-2.1441,-2.1363,-2.2303,-2.2562,-2.2144,-2.274,-2.2995,-2.2816,-2.2659,-2.2579,-2.2542,-2.2332,-2.2265,-2.2237,-2.1974,-2.1811,-2.1738,-2.1601,-2.1495,-2.1421,-2.1639,-2.1666,-2.161,-2.2261,-2.2129,-2.1728,-2.23,-2.2184,-2.1746,-2.1616,-2.1166,-2.0623,-2.0709,-2.0579,-2.0376,-2.031,-2.0151,-2.0077,-2.0214,-1.8967,-1.8104,-1.9562,-1.8449,-1.7026,-1.6973,-1.7105,-1.686,-1.5452,-1.6102,-1.6634,-1.5976,-1.81,-1.9472,-1.8252,-1.8078,-1.8022,-1.7835,-1.7514,-1.7342,-1.7414,-1.652,-1.6026,-1.6299,-1.5633,-1.5056,-1.4721,-1.5017,-1.4798,-1.3826,-1.4917,-1.5347,-1.4942,-1.5268,-1.5377,-1.5284,-1.4974,-1.5087,-1.5624,-1.5472,-1.5726,-1.7444,-1.8286,-1.9285,-2.0262,-2.0497,-2.051,-2.0501,-2.0506,-2.0227,-1.9312,-1.9053,-1.8491,0.0,0.0,-1.8555,-1.7764,-2.0327,-2.2401,-2.2388,-2.3724,-2.4626,0.0,0.0,0.0,0.0,0.0,0.0,-2.0499,0.0,-2.0843,-2.1589,-2.1532,-2.1439,-2.1363,-2.2602,-2.2864,-2.203,-2.2667,-2.2944,-2.2816,-2.2816,-2.2738,-2.2596,-2.246,-2.2349,-2.2282,-2.2073,-2.1928,-2.1827,-2.1811,-2.1738,-2.1624,-2.189,-2.1843,-2.1674,-2.1888,-2.1777,-2.1617,-2.2173,-2.1941,-2.1382,-2.1264,-2.1131,-2.0934,-2.066,-2.0422,-2.0131,-1.972,-1.9396,-1.9186,-1.9028,-1.6753,-1.5268,-1.825,-1.585,-1.2846,-1.2911,-1.2822,-1.3135,-1.4648,-1.2762,-1.19,-1.4828,-1.7381,-1.8041,-1.5143,-1.6825,-1.8533,-1.8858,-1.8177,-1.7714,-1.7714,-1.6574,-1.6046,-1.6494,-1.5863,-1.5376,-1.5057,-1.5159,-1.4891,-1.4207,-1.4777,-1.5121,-1.5057,-1.5171,-1.512,-1.4916,-1.4955,-1.5155,-1.5463,-1.5418,-1.581,-1.9057,-1.9616,-1.999,-2.0395,-2.0492,-2.0492,-2.0508,-2.051,-2.024,-1.9364,-1.9118,-1.8911,0.0,0.0,0.0,-1.9373,-2.1151,0.0,-2.2419,-2.3766,0.0,0.0,0.0,-2.3254,-2.3013,-2.2829,0.0,0.0,-2.2191,-2.25,-2.3397,-2.2848,-2.2482,-2.2407,-2.2648,-2.2647,-2.2382,-2.2853,-2.3045,-2.2944,-2.2868,-2.2738,-2.2596,-2.246,-2.2349,-2.2282,-2.218,-2.2049,-2.1899,-2.194,-2.184,-2.168,-2.1581,-2.1778,-2.2025,-2.1886,-2.1861,-2.1913,-2.2229,-2.1959,-2.158,-2.1608,-2.1423,-2.1082,-2.0809,-2.0422,-1.999,-1.9668,-1.942,-1.8638,-1.6282,-1.6743,-1.6508,-1.1419,-1.0504,-1.0503,-0.9238,-0.8864,-0.8804,-0.8657,-0.8027,-0.8515,-1.1447,-1.2757,-1.3167,-1.2396,-1.2967,-1.4836,-1.8427,-1.6723,-1.514,-1.514,-1.4316,-1.3115,-1.1527,-1.4543,-1.5521,-1.3253,-1.3595,-1.3406,-1.232,-1.2737,-1.302,-1.3051,-1.3927,-1.4575,-1.4916,-1.4563,-1.4613,-1.5051,-1.5436,-1.6051,-1.9294,-1.9826,-2.0275,-2.0415,-2.0476,-2.05,-2.0507,-2.0522,-2.0287,-1.9393,-1.9172,0.0,0.0,0.0,0.0,0.0,0.0,0.0,-2.2486,-2.3852,-2.4794,0.0,-2.4248,0.0,-2.3655,-2.3691,-2.3672,0.0,-2.3107,-2.3069,-2.3621,-2.318,-2.274,-2.2374,-2.2859,-2.3076,-2.2944,-2.3077,-2.3144,-2.3144,-2.297,-2.2842,-2.2738,-2.2605,-2.2515,-2.2394,0.0,-2.2152,-2.2032,-2.2015,-2.1928,-2.1768,-2.1631,-2.1709,-2.1811,-2.1498,-2.1561,-2.1766,-2.1949,-2.1926,-2.18,-2.1788,-2.1616,-2.1326,-2.097,-2.0573,-2.0169,-1.9811,-1.946,-1.8561,-1.5411,-1.4955,-1.3865,-0.8356,-0.6617,-0.6437,-0.7464,-0.6095,-0.461,-0.4354,-0.5606,-0.6807,-0.6892,-0.8634,-1.0215,-1.0933,-1.2363,-1.4317,-1.7003,-1.4437,-1.2388,-1.2388,-1.1646,-1.1131,-1.0941,-1.3499,-1.4281,-1.2405,-1.2775,-1.2203,-1.0356,-1.0641,-1.0858,-1.0939,-1.2578,-1.3497,-1.3761,-1.44,-1.4954,-1.5386,-1.5676,-1.6212,-1.902,-1.9575,-2.0288,-2.038,-2.0448,-2.0494,-2.0502,-2.0547,-2.0363,-1.9542,0.0,-1.9118,-1.8305,0.0,-1.9181,-1.923,0.0,-2.257,-2.2734,-2.3999,-2.4856,-2.4738,-2.4801,-2.4746,-2.4524,-2.4688,-2.4743,-2.4506,-2.3787,-2.3327,-2.325,-2.3125,-2.274,-2.2099,-2.3184,-2.3678,-2.3471,-2.3313,-2.3241,-2.3265,-2.3077,-2.2997,-2.2981,-2.2825,-2.271,-2.2596,0.0,0.0,-2.2254,-2.2118,-2.1998,-2.1911,-2.184,-2.1661,-2.1402,-2.1167,-2.1232,-2.1502,-2.1749,-2.198,-2.2134,-2.1974,-2.1793,-2.1616,-2.118,-2.0871,-2.051,-1.9952,-1.9347,-1.8123,-1.5025,-1.2334,-0.9728,-0.7065,-0.3797,-0.2326,-0.6239,-0.402,-0.1382,-0.1629,-0.4404,-0.5624,-0.2408,-0.4955,-0.7875,-0.9198,-1.1904,-1.3779,-1.3613,-1.1545,-0.9965,-0.9587,-0.8889,-0.9207,-1.1158,-1.1902,-1.201,-1.1322,-1.1482,-1.0583,-0.8222,-0.8365,-0.856,-0.8663,-1.0741,-1.179,-1.1768,-1.3939,-1.5155,-1.5499,-1.557,-1.607,-1.9878,-2.0088,-2.0246,-2.0374,-2.0443,-2.0506,-2.0492,-2.0546,0.0,0.0,0.0,-2.0138,-1.9984,-1.9964,0.0,-2.0862,0.0,0.0,0.0,0.0,-2.487,0.0,0.0,0.0,0.0,0.0,0.0,0.0,0.0,0.0,-2.4045,-2.3875,-2.3701,-2.3451,-2.3681,-2.3656,-2.3336,-2.336,-2.3265,-2.3045,-2.302,-2.3154,-2.3459,-2.2843,-2.2829,-2.3202,0.0,0.0,-2.2515,-2.2405,-2.2231,-2.2068,-2.1998,-2.1811,-2.1624,-2.1989,-2.1965,-2.1871,-2.2771,-2.2844,-2.2518,-2.2476,-2.2324,-2.1996,-2.1471,-2.1068,-2.066,-2.0131,-1.8042,-1.5163,-1.1866,-1.0788,-0.9119,-0.3493,-0.2212,-0.2318,-0.2546,-0.2143,-0.1718,-0.1674,-0.2196,-0.2273,-0.1207,-0.2331,-0.3344,-0.3138,-0.4215,-0.4959,-0.4596,-0.7929,-0.9494,-0.7329,-0.6415,-0.5307,-0.3824,-0.7302,-0.8743,-0.6681,-0.6503,-0.6252,-0.5826,-0.5424,-0.5479,-0.5963,-0.7553,-0.8595,-0.8982,-1.1616,-1.2893,-1.2871,-1.3542,-1.5126,-1.9953,-2.0215,-2.0321,-2.0369,-2.0443,-2.0506,-2.0504,0.0,0.0,0.0,0.0,-2.1029,-2.1024,0.0,0.0,0.0,0.0,0.0,0.0,0.0,0.0,0.0,0.0,0.0,0.0,0.0,0.0,0.0,0.0,0.0,-2.4266,-2.4114,-2.3935,-2.37,-2.3703,-2.3553,-2.3241,-2.358,-2.3699,-2.3571,-2.3884,-2.4147,-2.4305,-2.3476,-2.3198,-2.33,-2.2454,0.0,-2.2175,-2.2077,-2.2161,-2.2344,-2.2314,-2.2374,-2.2458,-2.2561,-2.2631,-2.2748,-2.3118,-2.3178,-2.3133,-2.3113,-2.2859,-2.2449,-2.1888,-2.1348,-2.0468,-1.8405,-1.658,-1.4119,-0.9321,-0.8698,-0.7937,-0.2438,-0.1402,-0.1539,-0.1141,-0.1072,-0.1145,-0.1102,-0.1299,-0.133,-0.0976,-0.127,-0.2165,-0.382,-0.4559,-0.483,-0.4609,-0.6663,-0.7068,-0.4314,-0.3607,-0.3455,-0.3621,-0.5663,-0.6509,-0.5514,-0.5246,-0.468,-0.3596,-0.3133,-0.3055,-0.3308,-0.543,-0.6575,-0.6753,-0.9534,-1.0882,-1.0917,-1.2846,-1.4332,-1.9632,-1.9998,-2.0164,-2.0366,-2.0452,-2.0497,-2.0504,-2.1034,0.0,0.0,-2.0924,-2.1369,-2.1533,0.0,0.0,0.0,0.0,0.0,0.0,0.0,0.0,0.0,0.0,0.0,0.0,0.0,0.0,0.0,0.0,0.0,0.0,-2.4036,-2.385,-2.3526,-2.3513,-2.3376,-2.3095,-2.3571,-2.3903,-2.4006,-2.4493,-2.489,-2.5154,-2.4264,-2.3786,-2.3634,-2.2635,0.0,0.0,-2.1804,-2.1993,-2.2441,-2.2556,-2.2751,-2.2978,-2.3047,-2.3246,-2.346,-2.34,-2.347,-2.3566,-2.361,-2.329,-2.2844,-2.2217,-2.1178,-1.956,-1.6623,-1.4664,-1.2206,-0.7346,-0.6457,-0.5693,-0.1462,-0.0456,-0.0546,-0.0549,-0.0469,-0.0385,-0.0515,-0.0798,-0.0984,-0.0766,-0.0936,-0.2054,-0.4827,-0.5685,-0.5886,-0.5704,-0.5407,-0.434,-0.1935,-0.1626,-0.2389,-0.4402,-0.4449,-0.4449,-0.4724,-0.4502,-0.3664,-0.1958,-0.1738,-0.1608,-0.1511,-0.3711,-0.4726,-0.4601,-0.7404,-0.8792,-0.8955,-1.1265,-1.2512,-1.8948,-1.9215,-1.941,-2.0277,-2.0499,-2.0509,-2.0497,0.0,0.0,-2.0434,-2.0418,-2.0629,-2.1281,-2.1359,0.0,0.0,0.0,0.0,0.0,0.0,0.0,0.0,0.0,0.0,0.0,0.0,0.0,0.0,0.0,0.0,0.0,-2.3638,-2.3494,-2.3336,-2.3199,-2.3003,-2.2764,-2.2859,-2.3196,-2.3749,-2.379,-2.4487,-2.5695,-2.4808,-2.4605,-2.4846,0.0,0.0,0.0,-2.2076,-2.1831,-2.1933,-2.2391,-2.2459,-2.2403,-2.3506,-2.3707,-2.3474,-2.3994,-2.3879,-2.3494,-2.3566,-2.3377,-2.2994,-2.2356,-1.993,-1.7156,-1.6267,-1.1834,-0.7168,-0.6223,-0.4089,-0.1539,0.1002,0.1155,0.0535,-0.0156,0.0,0.0151,-0.022,-0.0429,-0.0278,0.0268,-0.1044,-0.1902,-0.1221,-0.2373,-0.3092,-0.2329,-0.2439,-0.2319,-0.1704,-0.1604,-0.1738,-0.2069,-0.2012,-0.2011,-0.2286,-0.2173,-0.1955,-0.1628,-0.1741,-0.1738,-0.162,-0.2063,-0.2336,-0.2329,-0.5063,-0.6338,-0.628,-0.6774,-0.812,-1.8711,-1.9124,-1.9387,-2.0281,-2.0497,-2.0646,-2.1169,0.0,-2.199,-2.1913,-2.2196,-2.2411,-2.2221,-2.2479,-2.2955,0.0,0.0,0.0,0.0,0.0,0.0,0.0,0.0,0.0,0.0,0.0,0.0,0.0,0.0,0.0,0.0,-2.4058,-2.3961,-2.3786,-2.3247,-2.2782,-2.2419,-2.2897,-2.3158,-2.318,-2.3755,-2.4278,-2.4642,-2.3875,-2.3534,-2.349,0.0,0.0,0.0,-2.1533,-2.1616,-2.2005,-2.2165,-2.2332,-2.2517,-2.2959,-2.3241,-2.3348,-2.3488,-2.3591,-2.3668,-2.3581,-2.3392,-2.3127,-2.2663,-2.0025,-1.6752,-1.4505,-1.0324,-0.6133,-0.4202,-0.2358,-0.0588,0.1143,0.1544,0.1475,0.0939,0.0778,0.0689,0.0588,0.0578,0.0423,0.0265,-0.0649,-0.1268,-0.1025,-0.1837,-0.2337,-0.2061,-0.2088,-0.1857,-0.1256,-0.1527,-0.1685,-0.1685,-0.1628,-0.1628,-0.1738,-0.1794,-0.1794,-0.1741,-0.1797,-0.1741,-0.1628,-0.1794,-0.185,-0.1738,-0.2932,-0.3515,-0.3621,-0.5491,-0.6812,-1.8067,-1.8613,-1.9058,-1.9932,-2.033,-2.072,0.0,0.0,-2.2634,-2.2809,-2.3208,-2.3416,-2.3089,-2.3372,-2.3763,-2.4049,0.0,-2.4861,0.0,0.0,0.0,0.0,0.0,0.0,0.0,0.0,0.0,0.0,0.0,0.0,0.0,-2.4165,-2.4034,-2.3728,-2.312,-2.2598,-2.2181,-2.2709,-2.2932,-2.2891,-2.3579,-2.3897,-2.3918,-2.3405,-2.3046,-2.2687,0.0,0.0,0.0,-2.1519,-2.1661,-2.2059,-2.1956,-2.1678,-2.1482,-2.2447,-2.2595,-2.223,-2.2046,-2.2149,-2.22,-2.1175,-2.0705,-2.0428,-2.018,-1.8246,-1.537,-1.1938,-0.8198,-0.473,-0.273,-0.1418,-0.0368,0.076,0.1544,0.1943,0.1631,0.1313,0.1139,0.1163,0.1081,0.0918,0.0463,-0.0065,-0.0449,-0.0548,-0.0967,-0.1309,-0.1598,-0.1591,-0.1365,-0.0797,-0.1185,-0.1459,-0.1403,-0.1459,-0.1572,-0.1626,-0.1796,-0.1908,-0.1797,-0.1852,-0.1796,-0.1685,-0.1813,-0.1813,-0.1738,-0.1813,-0.1925,-0.2073,-0.4098,-0.5042,-1.6694,-1.736,-1.8223,-1.9081,-1.9902,-2.0701,0.0,0.0,-2.1822,-2.2541,-2.2661,-2.2844,-2.365,-2.3695,-2.392,-2.4845,-2.4879,0.0,0.0,0.0,0.0,0.0,0.0,0.0,0.0,0.0,0.0,0.0,0.0,0.0,0.0,0.0,-2.335,-2.2825,-2.2623,-2.2405,-2.2192,-2.2073,-2.2383,-2.3093,-2.2969,-2.3303,-2.4,-2.3918,-2.3652,0.0,0.0,0.0,0.0,-2.2348,-2.2043,-2.1972,-2.1783,-2.0351,-1.8814,-2.2073,-2.1845,-1.9794,-1.9607,-1.9277,-1.8498,-1.5635,-1.4311,-1.3913,-1.3988,-1.3561,-1.2287,-0.856,-0.4829,-0.1976,-0.2229,-0.1385,-0.0369,0.0233,0.1157,0.1743,0.1516,0.1635,0.1593,0.1198,0.0981,0.0972,0.108,0.0672,0.0532,0.084,0.0836,0.0503,-0.0237,-0.047,-0.0589,-0.0412,-0.0572,-0.0785,-0.0898,-0.1178,-0.1457,-0.179,-0.2071,-0.2074,-0.1797,-0.1905,-0.1961,-0.1797,-0.1969,-0.2083,-0.2015,-0.2083,-0.2081,-0.2017,-0.1911,-0.2006,-1.7981,-1.8238,-1.8339,-1.9765,-2.0316,-2.0857,-2.2202,0.0,-2.2782,-2.408,-2.4328,-2.4188,-2.3746,-2.4077,-2.4351,-2.4142,-2.4507,0.0,0.0,0.0,0.0,0.0,0.0,0.0,0.0,0.0,0.0,0.0,0.0,0.0,0.0,0.0,-2.3573,-2.335,-2.2743,-2.2248,-2.1915,-2.1869,-2.1823,-2.1745,-2.1838,-2.1952,-2.2102,-2.2053,0.0,0.0,0.0,0.0,0.0,-2.1779,-2.0767,-1.9073,-1.9204,-1.7765,-1.5681,-1.6456,-1.6476,-1.6092,-1.5847,-1.5825,-1.5722,-1.4615,-1.4063,-1.3476,-1.1233,-1.031,-0.9192,-0.5394,-0.3148,-0.181,-0.1517,-0.1459,-0.1098,0.0297,0.0891,0.1254,0.1772,0.1908,0.1882,0.1903,0.1865,0.1824,0.1641,0.1541,0.1505,0.1699,0.1813,0.1606,0.0911,0.0809,0.088,0.0999,0.0815,0.0463,-0.0058,-0.0522,-0.0862,-0.1066,-0.1318,-0.1551,-0.1686,-0.1684,-0.174,-0.1797,-0.1911,-0.193,-0.1911,-0.1853,-0.1832,-0.1854,-0.206,-0.2241,0.0,-1.8398,-1.8739,-1.9768,-2.0234,0.0,0.0,0.0,-2.317,-2.4771,-2.5044,-2.4807,-2.4171,-2.4407,-2.4569,-2.4105,-2.4418,0.0,0.0,0.0,0.0,0.0,0.0,0.0,0.0,0.0,0.0,0.0,0.0,0.0,0.0,0.0,-2.3181,-2.3051,-2.2615,-2.2237,-2.1945,-2.1797,-2.1542,-2.1199,-2.1262,-2.075,-1.9802,-1.9722,0.0,0.0,0.0,0.0,0.0,-1.8679,-1.7774,-1.62,-1.6275,-1.4769,-1.2698,-1.3641,-1.3526,-1.2875,-1.2753,-1.2781,-1.2651,-1.1411,-1.078,-1.0187,-0.7897,-0.6962,-0.6097,-0.3468,-0.2343,-0.1807,-0.1155,-0.1093,-0.0877,0.0295,0.0881,0.1236,0.1729,0.1926,0.2044,0.2218,0.245,0.2531,0.2265,0.2367,0.2519,0.2624,0.2759,0.2627,0.2129,0.2037,0.2123,0.231,0.1925,0.1621,0.1398,0.0417,-0.0234,-0.0286,-0.0766,-0.107,-0.1165,-0.1457,-0.1681,-0.1775,-0.177,-0.1787,-0.1884,-0.164,-0.1629,-0.1742,-0.1998,-0.2162,0.0,-1.8004,-1.9284,-1.9282,-1.9837,-2.0803,0.0,0.0,0.0,-2.4726,-2.494,-2.4813,-2.4779,-2.4676,-2.4596,-2.4591,0.0,0.0,0.0,0.0,0.0,0.0,0.0,0.0,0.0,0.0,0.0,0.0,0.0,0.0,0.0,0.0,0.0,-2.2124,-2.222,-2.2237,-2.2163,-2.1645,-2.1354,-2.1386,-2.0878,-1.9531,-1.7449,-1.7112,0.0,0.0,0.0,0.0,0.0,-1.3855,-1.3627,-1.3361,-1.3247,-1.1657,-0.9797,-1.2753,-1.2272,-1.0161,-1.0201,-1.0012,-0.942,-0.6672,-0.5432,-0.497,-0.4434,-0.3966,-0.3364,-0.2624,-0.2291,-0.1981,-0.1149,-0.0436,0.0146,0.0299,0.0959,0.1585,0.1475,0.1713,0.2018,0.222,0.2815,0.3181,0.2906,0.3281,0.3633,0.3601,0.3603,0.3563,0.3469,0.3268,0.3211,0.3347,0.2824,0.2682,0.3211,0.1591,0.0533,0.0473,-0.0244,-0.0557,-0.0432,-0.1112,-0.1525,-0.1718,-0.1526,-0.153,-0.1728,-0.1472,-0.1451,-0.1685,-0.1747,-0.1968,-1.7797,0.0,-1.9361,-1.9978,-2.0179,-2.0674,0.0,0.0,0.0,0.0,0.0,0.0,0.0,0.0,0.0,0.0,0.0,0.0,0.0,0.0,0.0,0.0,0.0,0.0,0.0,0.0,0.0,0.0,0.0,0.0,0.0,0.0,0.0,-2.2248,-2.2089,-2.1915,-2.1724,-1.9914,-1.9762,-2.1183,-1.7665,-1.6454,-1.7273,-1.5318,0.0,0.0,0.0,0.0,-1.3429,-1.3766,-1.2502,-1.045,-1.0729,-0.9268,-0.7126,-0.7833,-0.7624,-0.6975,-0.7127,-0.6785,-0.614,-0.5014,-0.4563,-0.4417,-0.4327,-0.403,-0.3641,-0.317,-0.2429,-0.1741,-0.1622,-0.0778,0.007,0.0278,0.0826,0.1437,0.17,0.2364,0.2824,0.2621,0.3427,0.4076,0.3985,0.4499,0.4879,0.4781,0.4859,0.4931,0.4778,0.4559,0.4341,0.4303,0.3754,0.3409,0.3511,0.2253,0.1312,0.1099,0.1003,0.0631,-0.0,-0.0185,-0.0431,-0.0733,-0.1005,-0.1157,-0.1241,-0.1446,-0.1588,-0.16,-0.1798,-0.2006,-1.8003,-1.8714,-1.9707,-1.9671,-1.9896,-2.0421,-2.1662,0.0,0.0,0.0,0.0,0.0,0.0,0.0,0.0,0.0,0.0,0.0,0.0,0.0,0.0,0.0,0.0,0.0,0.0,0.0,0.0,0.0,0.0,0.0,0.0,0.0,0.0,0.0,-2.0353,-2.0734,-2.1634,-2.0268,-1.9508,-1.9386,-1.6663,-1.4785,-1.3723,-1.2108,0.0,0.0,0.0,0.0,-0.9733,-0.9692,-0.8765,-0.7354,-0.7804,-0.6967,-0.5476,-0.5763,-0.5687,-0.539,-0.547,-0.5116,-0.4583,-0.4229,-0.3978,-0.3916,-0.3975,-0.3483,-0.292,-0.3101,-0.2543,-0.1725,-0.1117,-0.063,-0.007,0.0768,0.1382,0.1781,0.2124,0.2713,0.3226,0.3291,0.4038,0.4758,0.4823,0.5311,0.5594,0.5457,0.5571,0.562,0.5561,0.5382,0.5298,0.5312,0.4852,0.4503,0.4365,0.3574,0.2761,0.1952,0.1938,0.1565,0.0707,0.0835,0.0575,-0.0126,-0.0448,-0.078,-0.0991,-0.1003,-0.1144,-0.1345,-0.1614,-0.1951,-1.7909,-1.8828,-1.9858,-1.9016,-1.9486,-2.0363,-2.1168,0.0,0.0,0.0,0.0,0.0,0.0,0.0,0.0,0.0,0.0,0.0,0.0,0.0,0.0,0.0,0.0,0.0,0.0,0.0,0.0,0.0,0.0,0.0,0.0,0.0,0.0,0.0,-1.7697,-1.8634,-2.048,-2.0315,-1.9251,-1.7322,-1.5783,-1.3107,-0.9555,-0.8727,0.0,0.0,0.0,0.0,-0.5567,-0.4963,-0.4754,-0.4894,-0.5205,-0.5011,-0.4623,-0.5199,-0.5148,-0.4752,-0.454,-0.4314,-0.4062,-0.385,-0.3626,-0.3525,-0.3507,-0.2674,-0.18,-0.2536,-0.2367,-0.17,-0.0415,-0.0278,-0.014,0.1361,0.198,0.2293,0.2573,0.3075,0.356,0.3961,0.4691,0.5249,0.5385,0.5856,0.6159,0.589,0.5994,0.6024,0.6024,0.5958,0.5963,0.6087,0.5811,0.5537,0.5437,0.5054,0.4316,0.3071,0.2722,0.2284,0.148,0.1681,0.1264,0.026,0.0065,-0.026,-0.078,-0.0533,-0.0673,-0.1143,-0.148,-0.1887,-1.7624,-1.8184,-1.8926,-1.8819,-1.9825,-2.1036,0.0,0.0,0.0,0.0,0.0,0.0,0.0,0.0,0.0,0.0,0.0,0.0,0.0,0.0,0.0,0.0,0.0,0.0,0.0,0.0,0.0,0.0,0.0,0.0,0.0,0.0,0.0,0.0,0.0,-1.4783,-1.5016,-1.5499,-1.6402,-1.7487,-1.1293,-0.8802,-0.9513,-0.7181,-0.5806,0.0,0.0,-0.5234,-0.5567,-0.5066,-0.4759,-0.4657,-0.4735,-0.4598,-0.4497,-0.4829,-0.49,-0.4742,-0.4146,-0.4046,-0.4114,-0.3492,-0.3362,-0.345,-0.3309,-0.1967,-0.0723,-0.1401,-0.139,-0.104,-0.0476,-0.0068,0.0407,0.1021,0.1831,0.2499,0.284,0.3703,0.4359,0.4289,0.4951,0.5543,0.5585,0.6264,0.6736,0.6572,0.6662,0.6749,0.6749,0.6222,0.6004,0.6235,0.587,0.5691,0.5865,0.5516,0.5077,0.4685,0.3662,0.2688,0.1884,0.1681,0.141,0.0936,0.0735,0.0401,-0.0134,-0.0403,-0.0807,-0.1344,-0.1547,-0.184,-1.667,-1.7229,-1.7624,-1.7821,-1.8689,-1.9675,0.0,0.0,0.0,0.0,0.0,0.0,0.0,0.0,0.0,0.0,0.0,0.0,0.0,0.0,0.0,0.0,0.0,0.0,0.0,0.0,0.0,0.0,0.0,0.0,0.0,0.0,0.0,0.0,0.0,-1.2796,-1.391,-1.307,-1.2868,-1.3302,-0.9733,-0.7823,-0.7373,-0.5729,-0.5014,-0.5069,0.0,-0.4908,-0.5297,-0.472,-0.4508,-0.4468,-0.4321,-0.417,-0.3985,-0.4232,-0.4188,-0.3914,-0.3626,-0.3432,-0.3309,-0.3132,-0.2724,-0.2356,-0.2151,-0.0958,0.0377,0.0434,0.0,-0.0284,0.0346,0.0826,0.1308,0.1652,0.2174,0.2696,0.3215,0.3999,0.4625,0.4688,0.5286,0.5848,0.6135,0.6823,0.723,0.7154,0.7364,0.746,0.7283,0.6937,0.6747,0.6762,0.6588,0.6433,0.6307,0.6047,0.561,0.5038,0.4008,0.3297,0.3021,0.2473,0.1911,0.148,0.1344,0.1144,0.0875,0.0269,-0.0202,-0.0673,-0.1298,-0.1731,-1.5104,-1.5573,-1.5592,-1.5742,0.0,0.0,0.0,0.0,0.0,0.0,0.0,0.0,0.0,0.0,0.0,0.0,0.0,0.0,0.0,0.0,0.0,0.0,0.0,0.0,0.0,0.0,0.0,0.0,0.0,0.0,0.0,0.0,0.0,0.0,-0.968,-1.0511,-1.2217,-1.0511,-0.9722,-0.9829,-0.8833,-0.7466,-0.5786,-0.4956,-0.4736,-0.4901,-0.4467,-0.4522,-0.4857,-0.4305,-0.4137,-0.4182,-0.3928,-0.3791,-0.3654,-0.373,-0.354,-0.3192,-0.3122,-0.2877,-0.2586,-0.268,-0.2309,-0.1764,-0.146,-0.0528,0.0612,0.139,0.1088,0.0724,0.1341,0.1753,0.203,0.2365,0.2594,0.2904,0.3515,0.4154,0.4758,0.509,0.562,0.6129,0.6523,0.726,0.7681,0.7697,0.8073,0.8235,0.7807,0.7717,0.7598,0.7338,0.7341,0.7161,0.676,0.6474,0.6075,0.5284,0.4364,0.3855,0.3811,0.307,0.2487,0.192,0.1761,0.1624,0.1509,0.0745,0.0204,-0.0137,-0.1114,-0.1623,-1.2739,-1.2661,-1.2355,-1.1991,0.0,0.0,0.0,0.0,0.0,0.0,0.0,0.0,0.0,0.0,0.0,0.0,0.0,0.0,0.0,0.0,0.0,0.0,0.0,0.0,0.0,0.0,0.0,0.0,0.0,0.0,0.0,0.0,0.0,0.0,0.0,-0.6558,-0.6919,-0.6558,-0.7611,-1.0124,-0.7617,-0.6357,-0.6327,-0.534,-0.4956,-0.5069,-0.4629,-0.4405,-0.4233,-0.3971,-0.3707,-0.3587,-0.3474,-0.3578,-0.3816,-0.3823,-0.3496,-0.2965,-0.2565,-0.2496,-0.2426,-0.2101,-0.2482,-0.2938,-0.205,-0.1408,-0.0729,0.0567,0.136,0.1958,0.2403,0.2385,0.2369,0.2576,0.2825,0.3159,0.3701,0.43,0.4897,0.5292,0.5822,0.6218,0.637,0.731,0.811,0.8163,0.8716,0.897,0.8457,0.8231,0.8002,0.7705,0.7687,0.7449,0.6978,0.67,0.6392,0.5925,0.5021,0.4169,0.3621,0.3184,0.2759,0.2387,0.2071,0.1656,0.1159,0.062,0.0138,-0.0362,-0.1204,-0.1584,-1.1305,-1.1322,-1.1055,-1.1871,0.0,0.0,0.0,0.0,0.0,0.0,0.0,0.0,0.0,0.0,0.0,0.0,0.0,0.0,0.0,0.0,0.0,0.0,0.0,0.0,0.0,0.0,0.0,0.0,0.0,0.0,0.0,0.0,0.0,0.0,0.0,-0.6114,-0.6164,-0.5891,-0.622,-0.7128,-0.6274,-0.5673,-0.5329,-0.4478,-0.401,-0.3907,-0.3382,-0.3325,-0.3626,-0.3218,-0.2958,-0.2873,-0.2834,-0.3039,-0.3364,-0.3094,-0.2893,-0.2624,-0.2356,-0.1995,-0.1515,-0.0682,-0.0408,-0.0268,-0.0068,0.0425,0.0945,0.1439,0.2192,0.2659,0.2411,0.2524,0.2783,0.2976,0.3157,0.3489,0.4159,0.4492,0.4894,0.5557,0.6372,0.7089,0.7619,0.8573,0.9211,0.9184,0.9502,0.9553,0.9062,0.8947,0.8848,0.8684,0.8369,0.8073,0.7727,0.7352,0.6891,0.6391,0.5673,0.5006,0.4392,0.4024,0.3555,0.3127,0.257,0.2143,0.1824,0.1215,0.0567,-0.0142,-0.1019,-0.1475,-0.9672,-0.9799,-0.9672,0.0,0.0,0.0,0.0,0.0,0.0,0.0,0.0,0.0,0.0,0.0,0.0,0.0,0.0,0.0,0.0,0.0,0.0,0.0,0.0,0.0,0.0,0.0,0.0,0.0,0.0,0.0,0.0,0.0,0.0,0.0,0.0,0.0,-0.5614,-0.5285,-0.5089,-0.5023,-0.4971,-0.4862,-0.4616,-0.3842,-0.337,-0.319,-0.2647,-0.2651,-0.2962,-0.2458,-0.2238,-0.2131,-0.191,-0.207,-0.2424,-0.2154,-0.1884,-0.1614,-0.1479,-0.1061,-0.046,0.0546,0.128,0.1779,0.1504,0.2031,0.2704,0.2628,0.2949,0.3327,0.2722,0.2922,0.3267,0.3381,0.3782,0.4196,0.4564,0.4922,0.541,0.6028,0.6827,0.761,0.8374,0.9221,0.9893,0.9945,1.0059,1.0012,0.964,0.952,0.9533,0.9603,0.897,0.8573,0.8482,0.7747,0.7106,0.6629,0.6054,0.5445,0.4963,0.452,0.4031,0.3501,0.2862,0.2424,0.2168,0.1396,0.0655,-0.0,-0.0897,-0.1432,-0.7652,-0.778,-0.7982,0.0,0.0,0.0,0.0,0.0,0.0,0.0,0.0,0.0,0.0,0.0,0.0,0.0,0.0,0.0,0.0,0.0,0.0,0.0,0.0,0.0,0.0,0.0,0.0,0.0,0.0,0.0,0.0,0.0,0.0,0.0,0.0,0.0,-0.467,-0.4229,-0.4129,-0.4493,-0.3862,-0.3923,-0.4445,-0.3628,-0.3254,-0.3132,-0.2837,-0.2593,-0.2345,-0.1788,-0.1443,-0.1224,-0.0837,-0.0721,-0.0806,-0.1008,-0.047,0.0336,0.0335,0.0335,0.0538,0.1341,0.2079,0.2618,0.2147,0.3092,0.4177,0.377,0.377,0.3837,0.3558,0.3698,0.382,0.3785,0.4651,0.5323,0.4909,0.573,0.6551,0.6713,0.7225,0.7773,0.8316,0.9198,0.9921,1.0263,1.0245,1.0207,1.0207,1.0095,1.0068,1.0266,0.9406,0.897,0.9295,0.805,0.7011,0.6651,0.6005,0.556,0.5312,0.4561,0.3878,0.3444,0.2915,0.2392,0.1887,0.0972,0.0299,-0.0,-0.0843,-0.1382,-0.6656,-0.6907,0.0,0.0,0.0,0.0,0.0,0.0,0.0,0.0,0.0,0.0,0.0,0.0,0.0,0.0,0.0,0.0,0.0,0.0,0.0,0.0,0.0,0.0,0.0,0.0,0.0,0.0,0.0,0.0,0.0,0.0,0.0,0.0,0.0,0.0,-0.3729,-0.3403,-0.3251,-0.3227,-0.2787,-0.2823,-0.3128,-0.2593,-0.1926,-0.1309,-0.151,-0.1116,-0.0393,0.0262,0.0593,0.073,0.0464,0.0733,0.1277,0.1008,0.1209,0.1543,0.1542,0.1609,0.1611,0.1878,0.2451,0.301,0.333,0.3751,0.4175,0.4461,0.476,0.4894,0.462,0.513,0.5473,0.4724,0.5336,0.6073,0.5803,0.6435,0.722,0.745,0.8044,0.8868,0.9749,0.9985,1.013,1.0547,1.0542,1.056,1.0552,1.0542,1.0509,1.022,0.9676,0.9192,0.9059,0.8255,0.7577,0.722,0.6489,0.5788,0.4955,0.4515,0.4092,0.3682,0.3172,0.2707,0.2354,0.1781,0.0998,0.0077,-0.0851,-0.1314,-0.6556,0.0,0.0,0.0,0.0,0.0,0.0,0.0,0.0,0.0,0.0,0.0,0.0,0.0,0.0,0.0,0.0,0.0,0.0,0.0,0.0,0.0,0.0,0.0,0.0,0.0,0.0,0.0,0.0,0.0,0.0,0.0,0.0,0.0,0.0,0.0,-0.3072,-0.2573,-0.2364,-0.2338,-0.2156,-0.2068,-0.2126,-0.1805,-0.1244,-0.0403,-0.0404,0.0135,0.1008,0.1814,0.2016,0.1882,0.1744,0.208,0.2555,0.2285,0.2351,0.2686,0.2683,0.2815,0.3015,0.3084,0.3383,0.3871,0.4328,0.455,0.4764,0.519,0.5484,0.5684,0.5752,0.6264,0.6537,0.5413,0.6157,0.7107,0.6749,0.7399,0.8065,0.822,0.8829,0.9597,1.0341,1.0373,1.0439,1.0759,1.0654,1.0552,1.0333,1.0469,1.0476,1.0242,0.9752,0.9367,0.9176,0.8391,0.7723,0.7211,0.6647,0.5905,0.5132,0.4603,0.4144,0.3682,0.3265,0.2722,0.2119,0.2042,0.1402,0.0307,-0.0234,-0.0546,0.0,0.0,0.0,0.0,0.0,0.0,0.0,0.0,0.0,0.0,0.0,0.0,0.0,0.0,0.0,0.0,0.0,0.0,0.0,0.0,0.0,0.0,0.0,0.0,0.0,0.0,0.0,0.0,0.0,0.0,0.0,0.0,0.0,0.0,0.0,0.0,-0.2521,-0.1796,-0.1537,0.0,-0.176,-0.1636,-0.1346,-0.1289,-0.0852,-0.0067,0.0605,0.1344,0.2084,0.2882,0.2945,0.2541,0.2878,0.3147,0.3213,0.2885,0.309,0.3563,0.3556,0.3887,0.4356,0.4558,0.4694,0.4894,0.5156,0.5418,0.5749,0.5954,0.6148,0.6404,0.6859,0.7205,0.7165,0.6248,0.7187,0.8203,0.7748,0.8457,0.9161,0.908,0.9554,1.0142,1.0538,1.059,1.0684,1.0932,1.0666,1.0305,0.9937,1.0219,1.0367,1.0211,0.9675,0.9368,0.9409,0.8446,0.762,0.7003,0.6608,0.6162,0.5597,0.4742,0.4038,0.3444,0.3146,0.2534,0.165,0.1962,0.1569,0.0707,0.0786,0.055,0.0,0.0,0.0,0.0,0.0,0.0,0.0,0.0,0.0,0.0,0.0,0.0,0.0,0.0,0.0,0.0,0.0,0.0,0.0,0.0,0.0,0.0,0.0,0.0,0.0,0.0,0.0,0.0,0.0,0.0,0.0,0.0,0.0,0.0,0.0,-0.1903,-0.0897,-0.1066,-0.0957,0.0,-0.0907,-0.1159,-0.1205,-0.0379,0.0523,0.1408,0.2149,0.2891,0.3426,0.3475,0.3376,0.312,0.3184,0.3378,0.3515,0.34,0.3761,0.4295,0.4028,0.4228,0.4694,0.4625,0.4957,0.5484,0.5881,0.628,0.6679,0.7068,0.7396,0.7587,0.7707,0.8102,0.8417,0.826,0.8772,0.9015,0.7957,0.919,1.029,0.983,1.0329,1.1002,1.1359,1.0985,1.0685,1.076,1.0757,1.0646,1.0515,1.096,1.09,0.9968,0.963,0.9227,0.8777,0.8364,0.7961,0.7405,0.7199,0.6769,0.6162,0.513,0.4414,0.399,0.3354,0.2733,0.204,0.1885,0.165,0.1493,0.1257,0.0864,0.0,0.0,0.0,0.0,0.0,0.0,0.0,0.0,0.0,0.0,0.0,0.0,0.0,0.0,0.0,0.0,0.0,0.0,0.0,0.0,0.0,0.0,0.0,0.0,0.0,0.0,0.0,0.0,0.0,0.0,0.0,0.0,0.0,0.0,-0.1793,-0.1334,-0.1095,-0.0835,-0.0668,-0.0547,-0.0668,-0.0399,0.0354,0.0494,0.0832,0.1446,0.2528,0.3122,0.3484,0.3697,0.3715,0.3655,0.3778,0.3874,0.3931,0.4124,0.4378,0.4625,0.4758,0.502,0.5422,0.5352,0.5815,0.6408,0.647,0.6868,0.733,0.7717,0.8047,0.8312,0.8554,0.8997,0.9321,0.9394,0.9461,0.9464,0.9062,0.9799,1.0479,1.0353,1.0912,1.1541,1.1903,1.1716,1.1451,1.0974,1.1106,1.1209,1.1001,1.1202,1.1009,1.0207,0.985,0.9397,0.8755,0.856,0.8137,0.7414,0.732,0.6965,0.6305,0.5484,0.4696,0.4146,0.3563,0.3024,0.2353,0.2198,0.1962,0.1805,0.1571,0.1257,0.0,0.0,0.0,0.0,0.0,0.0,0.0,0.0,0.0,0.0,0.0,0.0,0.0,0.0,0.0,0.0,0.0,0.0,0.0,0.0,0.0,0.0,0.0,0.0,0.0,0.0,0.0,0.0,0.0,0.0,0.0,0.0,-0.2629,-0.2352,-0.1449,-0.1152,-0.1653,-0.0708,-0.038,-0.0581,-0.0492,0.0395,0.1926,0.1137,0.0927,0.1276,0.2487,0.3057,0.3122,0.3584,0.3906,0.403,0.423,0.4306,0.4348,0.4775,0.4928,0.4957,0.5481,0.5877,0.621,0.621,0.6671,0.7265,0.706,0.7447,0.7972,0.8231,0.8501,0.8765,0.928,0.9687,0.9999,1.0072,0.9888,0.9868,1.0183,1.0347,1.0461,1.0807,1.1409,1.2003,1.2305,1.2432,1.2213,1.1405,1.1654,1.1703,1.1237,1.127,1.1056,1.0416,0.999,0.9473,0.8818,0.8674,0.8147,0.7227,0.7208,0.6992,0.6309,0.5786,0.5085,0.4302,0.3838,0.3304,0.2589,0.2589,0.2353,0.196,0.1727,0.1492,0.0,0.0,0.0,0.0,0.0,0.0,0.0,0.0,0.0,0.0,0.0,0.0,0.0,0.0,0.0,0.0,0.0,0.0,0.0,0.0,0.0,0.0,0.0,0.0,0.0,0.0,0.0,0.0,0.0,0.0,0.0,-0.2413,-0.2294,-0.224,-0.1525,-0.1123,-0.1008,-0.0414,0.0102,0.0559,0.0264,0.0709,0.1802,0.1414,0.1524,0.2169,0.3142,0.351,0.3451,0.3413,0.3605,0.3968,0.3892,0.4189,0.4667,0.4971,0.5467,0.5947,0.5873,0.6207,0.6605,0.6605,0.706,0.7642,0.7577,0.8107,0.87,0.8823,0.9139,0.9396,0.967,1.0072,1.0399,1.0352,1.0612,1.0834,1.0553,1.0805,1.1052,1.1069,1.1855,1.2526,1.2746,1.2641,1.236,1.1888,1.2029,1.1934,1.1257,1.1517,1.1338,1.0104,0.9647,0.9136,0.837,0.8163,0.7779,0.6959,0.7279,0.7135,0.6309,0.6245,0.5867,0.5162,0.4217,0.3519,0.2984,0.2826,0.2589,0.2117,0.196,0.1648,0.0,0.0,0.0,0.0,0.0,0.0,0.0,0.0,0.0,0.0,0.0,0.0,0.0,0.0,0.0,0.0,0.0,0.0,0.0,0.0,0.0,0.0,0.0,0.0,0.0,0.0,0.0,0.0,0.0,0.0,-0.2016,-0.187,-0.185,-0.1964,-0.0938,-0.0268,-0.0,0.0363,0.0728,0.1093,0.1185,0.1654,0.2291,0.2738,0.2697,0.234,0.2826,0.3069,0.3113,0.3304,0.3637,0.4048,0.4287,0.4702,0.5293,0.5627,0.6063,0.6478,0.6605,0.6933,0.7269,0.7456,0.7782,0.8177,0.849,0.8753,0.8958,0.9344,0.9536,0.9728,0.9862,1.0428,1.0961,1.1156,1.1567,1.1845,1.1619,1.1447,1.1513,1.1877,1.2452,1.2973,1.3046,1.3085,1.2992,1.2848,1.2848,1.2799,1.2515,1.2398,1.1939,1.0978,1.0249,0.9505,0.8581,0.8132,0.7599,0.6911,0.6855,0.6643,0.6237,0.5942,0.5521,0.5064,0.4513,0.3999,0.353,0.3061,0.2668,0.2353,0.1962,0.1649,0.0,0.0,0.0,0.0,0.0,0.0,0.0,0.0,0.0,0.0,0.0,0.0,0.0,0.0,0.0,0.0,0.0,0.0,0.0,0.0,0.0,0.0,0.0,0.0,0.0,0.0,0.0,0.0,0.0,0.0,-0.1395,-0.1422,-0.1402,-0.1402,-0.0444,0.0215,0.0504,0.0873,0.1249,0.1629,0.2013,0.2496,0.307,0.3633,0.3513,0.284,0.2884,0.2954,0.3076,0.3478,0.39,0.4339,0.4945,0.5479,0.5951,0.6497,0.6885,0.7215,0.7603,0.7954,0.821,0.8412,0.8723,0.8984,0.9297,0.9344,0.9344,0.9798,0.9862,0.9862,1.0047,1.0681,1.1365,1.1615,1.2058,1.2492,1.2512,1.2176,1.2087,1.2757,1.3185,1.3411,1.3273,1.3419,1.3572,1.3499,1.3419,1.3346,1.3346,1.2746,1.2124,1.1537,1.064,0.9669,0.8733,0.8025,0.736,0.6823,0.6454,0.6121,0.5891,0.5635,0.528,0.4833,0.4722,0.4465,0.3843,0.3374,0.2902,0.251,0.212,0.1806,0.0,0.0,0.0,0.0,0.0,0.0,0.0,0.0,0.0,0.0,0.0,0.0,0.0,0.0,0.0,0.0,0.0,0.0,0.0,0.0,0.0,0.0,0.0,0.0,0.0,0.0,0.0,0.0,0.0,0.0,-0.1294,-0.1235,-0.0952,-0.0391,-0.038,-0.0262,-0.005,0.0731,0.1561,0.2425,0.2411,0.2927,0.391,0.3411,0.3633,0.4363,0.4079,0.3858,0.3758,0.4158,0.4507,0.4838,0.5851,0.6304,0.6561,0.7593,0.815,0.8393,0.8954,0.9313,0.9483,0.9378,0.9704,1.0067,0.9814,0.9862,0.9983,1.0238,1.0117,1.0047,1.0238,1.08,1.1303,1.1303,1.1747,1.2296,1.2867,1.2883,1.3019,1.3628,1.3912,1.3912,1.3564,1.3645,1.3717,1.3499,1.32,1.29,1.29,1.2224,1.1531,1.0918,1.0154,0.9344,0.8633,0.7593,0.6815,0.6432,0.6045,0.5652,0.5385,0.558,0.5426,0.4833,0.4722,0.4467,0.4079,0.4079,0.353,0.2511,0.2668,0.2199,0.0,0.0,0.0,0.0,0.0,0.0,0.0,0.0,0.0,0.0,0.0,0.0,0.0,0.0,0.0,0.0,0.0,0.0,0.0,0.0,0.0,0.0,0.0,0.0,0.0,0.0,0.0,0.0,0.0,0.0,-0.0224,-0.0224,-0.0112,0.0168,0.0332,0.0757,0.1356,0.1767,0.2356,0.3024,0.3144,0.3647,0.4463,0.452,0.485,0.5449,0.5496,0.5218,0.4684,0.4958,0.5494,0.6206,0.6595,0.7035,0.7495,0.7912,0.8235,0.8514,0.8721,0.9181,0.9643,0.9764,1.011,1.0572,1.0821,1.0855,1.0922,1.1329,1.1186,1.09,1.1159,1.1397,1.156,1.1864,1.212,1.2492,1.3573,1.3862,1.3933,1.3837,1.3985,1.3985,1.3564,1.3572,1.3645,1.3645,1.3492,1.3273,1.3273,1.2599,1.1816,1.1279,1.037,0.9406,0.8414,0.7641,0.692,0.6455,0.6173,0.5905,0.5647,0.5552,0.5355,0.4977,0.4794,0.4465,0.3921,0.3763,0.3372,0.2668,0.2511,0.2199,0.0,0.0,0.0,0.0,0.0,0.0,0.0,0.0,0.0,0.0,0.0,0.0,0.0,0.0,0.0,0.0,0.0,0.0,0.0,0.0,0.0,0.0,0.0,0.0,0.0,0.0,0.0,0.0,0.0,0.0,0.0672,0.0505,0.0446,0.0551,0.1035,0.1702,0.2611,0.2663,0.3123,0.4004,0.4206,0.4632,0.523,0.5481,0.5868,0.6332,0.6475,0.6199,0.5614,0.598,0.6518,0.7141,0.7434,0.7848,0.8257,0.8396,0.869,0.8969,0.9102,0.9629,1.0244,1.0301,1.0722,1.1335,1.1731,1.184,1.1908,1.2323,1.2097,1.18,1.2072,1.2034,1.2067,1.2498,1.2507,1.2759,1.3802,1.4254,1.4498,1.4466,1.4561,1.4497,1.3928,1.392,1.392,1.3717,1.3492,1.3273,1.32,1.2526,1.1781,1.126,1.0437,0.9497,0.8556,0.7715,0.7022,0.6482,0.6186,0.5888,0.558,0.5482,0.528,0.4977,0.4717,0.4309,0.3763,0.3763,0.3372,0.2826,0.2511,0.2277,0.0,0.0,0.0,0.0,0.0,0.0,0.0,0.0,0.0,0.0,0.0,0.0,0.0,0.0,0.0,0.0,0.0,0.0,0.0,0.0,0.0,0.0,0.0,0.0,0.0,0.0,0.0,0.0,0.0,0.1682,0.1341,0.0896,0.0718,0.08,0.1591,0.2518,0.3513,0.3243,0.3893,0.5403,0.5461,0.5751,0.6209,0.6204,0.648,0.6928,0.6966,0.6853,0.6712,0.7215,0.7506,0.7677,0.8354,0.8668,0.8851,0.9213,0.9577,0.9898,1.0218,1.0759,1.123,1.0969,1.1623,1.2445,1.2553,1.2803,1.2938,1.314,1.2931,1.2654,1.2878,1.277,1.2733,1.3063,1.2945,1.2977,1.3513,1.3924,1.4488,1.5564,1.5788,1.5584,1.4713,1.4768,1.4545,1.3637,1.3193,1.282,1.2599,1.1855,1.126,1.0887,1.0234,0.965,0.9051,0.7992,0.7086,0.6563,0.6079,0.5596,0.5174,0.5292,0.5214,0.4838,0.4565,0.4229,0.3841,0.3999,0.3608,0.2826,0.2747,0.2434,0.2914,0.0,0.0,0.0,0.0,0.0,0.0,0.0,0.0,0.0,0.0,0.0,0.0,0.0,0.0,0.0,0.0,0.0,0.0,0.0,0.0,0.0,0.0,0.0,0.0,0.0,0.0,0.0,0.2198,0.1961,0.1679,0.1623,0.1544,0.1334,0.2055,0.2837,0.364,0.3782,0.4451,0.5712,0.5845,0.6076,0.6372,0.6896,0.7332,0.7664,0.8084,0.8243,0.8209,0.822,0.8321,0.8588,0.8739,0.8647,0.8509,0.9011,0.9221,0.9332,0.9801,1.0526,1.1249,1.1321,1.2179,1.3219,1.3439,1.3704,1.4073,1.4355,1.3956,1.3561,1.3648,1.3521,1.3481,1.3717,1.3469,1.3357,1.3711,1.4123,1.453,1.4932,1.5452,1.5559,1.4911,1.4633,1.4346,1.3768,1.3331,1.2973,1.2452,1.1781,1.1335,1.1037,1.0232,0.9532,0.9066,0.8047,0.7157,0.6571,0.6251,0.5967,0.5603,0.5728,0.573,0.5576,0.4916,0.4621,0.4693,0.3995,0.3372,0.2826,0.2357,0.1964,0.0,0.0,0.0,0.0,0.0,0.0,0.3223,0.3453,0.0,0.0,0.0,0.0,0.0,0.0,0.0,0.0,0.0,0.0,0.0,0.0,0.0,0.0,0.0,0.0,0.0,0.0,0.0,0.0,0.2398,0.2296,0.2127,0.2071,0.1931,0.1655,0.2366,0.31,0.3766,0.43,0.5183,0.6337,0.6689,0.6908,0.7074,0.7669,0.8047,0.8196,0.8613,0.8883,0.8949,0.8864,0.8899,0.9043,0.9151,0.9194,0.9211,0.9383,0.9643,0.9843,0.9862,1.049,1.1234,1.1614,1.2531,1.3474,1.4022,1.4418,1.4784,1.4999,1.4711,1.4361,1.4558,1.4258,1.4058,1.4612,1.4247,1.39,1.4463,1.4629,1.4761,1.4985,1.5575,1.5833,1.533,1.4939,1.4403,1.3745,1.3295,1.2746,1.199,1.1558,1.1111,1.0738,1.0143,0.9562,0.9134,0.8379,0.7577,0.6853,0.6651,0.6346,0.5752,0.5746,0.5709,0.5631,0.501,0.4621,0.446,0.3995,0.345,0.2901,0.2276,0.1806,0.0,0.0,0.0,0.0,0.0,0.0,0.3979,0.4223,0.46,0.0,0.0,0.0,0.0,0.0,0.0,0.0,0.0,0.0,0.0,0.0,0.0,0.0,0.0,0.0,0.0,0.0,0.2183,0.2585,0.2743,0.273,0.2506,0.2395,0.2198,0.2028,0.2673,0.3377,0.4072,0.4853,0.5848,0.7167,0.7711,0.7931,0.7877,0.8415,0.8626,0.8626,0.8778,0.8995,0.9211,0.9211,0.9212,0.9218,0.9563,0.9924,1.0349,1.0207,1.0514,1.0982,1.0358,1.0657,1.1383,1.1903,1.2626,1.3507,1.434,1.4895,1.5204,1.5275,1.5141,1.4999,1.5446,1.4948,1.4653,1.5513,1.4985,1.4529,1.5262,1.5221,1.5099,1.5399,1.5894,1.6149,1.5903,1.5358,1.4686,1.3685,1.315,1.2428,1.1556,1.1242,1.0887,1.0368,0.9992,0.9695,0.9397,0.8784,0.809,0.7372,0.7075,0.6554,0.5706,0.5704,0.555,0.53,0.4927,0.4465,0.3841,0.3921,0.3684,0.3054,0.2508,0.1961,0.0,0.0,0.0,0.0,0.0,0.0,0.5843,0.5578,0.5221,0.0,0.0,0.0,0.0,0.0,0.0,0.0,0.0,0.0,0.0,0.0,0.0,0.0,0.0,0.0,0.0,0.0,0.2997,0.3156,0.3298,0.3217,0.2688,0.2846,0.2888,0.2762,0.3026,0.3862,0.5353,0.5358,0.6072,0.7441,0.8025,0.8096,0.7771,0.858,0.8903,0.8956,0.9054,0.9159,0.9211,0.9309,0.9299,0.9277,0.9864,1.0123,1.0203,1.0802,1.1189,1.1399,1.1226,1.1589,1.2077,1.2021,1.2683,1.3616,1.4117,1.4701,1.5275,1.5576,1.5434,1.5209,1.5592,1.5696,1.5679,1.5544,1.523,1.5002,1.4867,1.4898,1.5024,1.529,1.5488,1.5704,1.6009,1.557,1.4882,1.4104,1.3622,1.2956,1.1827,1.1199,1.0887,1.0887,0.9992,0.9549,0.9771,0.8937,0.817,0.7603,0.7311,0.6659,0.5633,0.596,0.5893,0.5243,0.5035,0.4693,0.4307,0.345,0.3061,0.3061,0.251,0.2196,0.0,0.0,0.0,0.4984,0.0,0.0,0.0,0.6641,0.6532,0.0,0.0,0.0,0.0,0.0,0.0,0.0,0.0,0.0,0.0,0.0,0.0,0.0,0.0,0.0,0.0,0.0,0.3187,0.3348,0.3342,0.3184,0.2978,0.2925,0.287,0.2817,0.3027,0.364,0.4692,0.5068,0.5737,0.6761,0.7717,0.8043,0.7824,0.8633,0.9061,0.9113,0.9263,0.9309,0.9309,0.9465,0.9716,1.0052,1.0497,1.0876,1.1259,1.1668,1.2073,1.2389,1.2089,1.222,1.2591,1.2687,1.305,1.3533,1.4087,1.4587,1.5112,1.5532,1.5369,1.5095,1.5375,1.5472,1.5458,1.5465,1.5375,1.5308,1.5362,1.5182,1.5151,1.5601,1.5566,1.5565,1.5687,1.4976,1.425,1.3862,1.3414,1.2848,1.2136,1.1544,1.126,1.126,1.0443,0.9922,1.0067,0.9236,0.8433,0.7731,0.7279,0.6641,0.5803,0.587,0.5684,0.5078,0.4822,0.4616,0.4384,0.3526,0.3215,0.3452,0.2902,0.2668,0.0,0.0,0.0,0.0,0.0,0.7608,0.0,0.0,0.0,0.6526,0.0,0.0,0.0,0.0,0.0,0.0,0.0,0.0,0.0,0.0,0.0,0.0,0.0,0.0,0.0,0.0,0.3282,0.342,0.3341,0.3273,0.3275,0.3143,0.3009,0.2922,0.329,0.3667,0.4115,0.4923,0.5633,0.6273,0.7444,0.8037,0.8037,0.8738,0.9159,0.9263,0.9361,0.9413,0.9413,0.9687,1.0272,1.1036,1.116,1.1702,1.2447,1.2591,1.3033,1.345,1.3,1.2948,1.3066,1.3418,1.3457,1.3541,1.4353,1.4701,1.4972,1.537,1.5221,1.4959,1.5083,1.5053,1.5071,1.5296,1.5332,1.5422,1.5812,1.5555,1.5301,1.579,1.566,1.5462,1.5394,1.4621,1.3933,1.3746,1.3233,1.2793,1.2456,1.2044,1.1706,1.1484,1.0887,1.0438,1.0218,0.9533,0.8775,0.8012,0.748,0.6773,0.605,0.5748,0.5455,0.5096,0.4698,0.4538,0.4538,0.3917,0.3682,0.3763,0.3295,0.2984,0.0,0.0,0.0,0.0,0.7751,0.0,0.0,0.0,0.8507,0.8295,0.0,0.0,0.0,0.0,0.0,0.0,0.0,0.0,0.0,0.0,0.0,0.0,0.0,0.0,0.0,0.0,0.0,0.3503,0.3969,0.4029,0.3598,0.3965,0.4202,0.418,0.4498,0.4986,0.5575,0.5886,0.6425,0.7182,0.809,0.8468,0.8368,0.9047,0.9361,0.9361,0.9413,0.9413,0.9435,1.0196,1.1051,1.1925,1.176,1.2215,1.2988,1.374,1.401,1.4121,1.4231,1.4112,1.383,1.3562,1.3616,1.3958,1.5181,1.5239,1.4985,1.5308,1.5142,1.4897,1.4863,1.5106,1.5268,1.4911,1.4961,1.5122,1.523,1.5159,1.5133,1.5016,1.5294,1.5549,1.5747,1.552,1.5088,1.4648,1.4065,1.3502,1.3019,1.2362,1.1855,1.1706,1.1111,1.0588,1.0218,0.9771,0.9236,0.8623,0.8174,0.7563,0.6648,0.5901,0.5515,0.5559,0.5162,0.4927,0.4927,0.4538,0.4073,0.3526,0.3217,0.3062,0.0,0.0,0.0,0.0,0.0,0.0,0.0,0.0,0.9307,0.0,0.0,0.0,0.0,0.0,0.0,0.0,0.0,0.0,0.0,0.0,0.0,0.0,0.0,0.0,0.0,0.0,0.0,0.0,0.0,0.4069,0.3695,0.3846,0.4098,0.4502,0.465,0.5,0.5553,0.5898,0.6333,0.681,0.7937,0.8415,0.8243,0.904,0.9517,0.9732,0.9769,0.9873,1.0051,1.0509,1.1432,1.2564,1.2491,1.3033,1.3879,1.4236,1.4538,1.4824,1.4942,1.4942,1.4765,1.4579,1.4399,1.4461,1.5205,1.5115,1.4684,1.4917,1.4818,1.4656,1.4547,1.4861,1.5142,1.4857,1.5023,1.5323,1.5624,1.5477,1.5388,1.5674,1.5781,1.5817,1.5842,1.536,1.4874,1.4393,1.4026,1.3712,1.3351,1.2816,1.2526,1.2378,1.1781,1.1186,1.0738,1.0143,0.9468,0.878,0.8021,0.7298,0.6688,0.6235,0.5886,0.5786,0.5395,0.5085,0.4851,0.454,0.407,0.3526,0.3608,0.3688,0.6603,0.0,0.0,0.0,0.0,0.0,0.0,0.0,0.0,0.0,0.0,0.0,0.0,0.0,0.0,0.0,0.0,0.0,0.0,0.0,0.0,0.0,0.0,0.0,0.0,0.0,0.0,0.0,0.0,0.0,0.4066,0.4059,0.4326,0.4935,0.5119,0.5397,0.5772,0.6182,0.6583,0.6858,0.7984,0.8514,0.8547,0.9354,0.9888,1.0205,1.0285,1.0446,1.0624,1.0978,1.1756,1.2761,1.3122,1.3782,1.4557,1.4728,1.5059,1.5352,1.5526,1.5536,1.5498,1.5498,1.5214,1.4899,1.5252,1.4981,1.4561,1.4496,1.4493,1.4474,1.4523,1.4739,1.5044,1.5274,1.5458,1.5643,1.6121,1.6021,1.5877,1.6056,1.62,1.6167,1.5861,1.5326,1.4774,1.4421,1.4182,1.3924,1.368,1.3339,1.3046,1.29,1.2305,1.1781,1.1335,1.0519,0.9539,0.8627,0.7872,0.7257,0.6795,0.6563,0.6331,0.6096,0.5631,0.5243,0.4935,0.4621,0.4229,0.3759,0.3999,0.4079,0.0,0.0,0.0,0.9317,0.0,0.0,0.0,0.0,1.1271,0.0,0.0,0.0,0.0,0.0,0.0,0.0,0.0,0.0,0.0,0.0,0.0,0.0,0.0,0.0,0.0,0.0,0.0,0.0,0.0,0.0,0.4894,0.5083,0.5434,0.5824,0.6494,0.6826,0.6779,0.7235,0.767,0.8078,0.856,0.9033,0.9562,1.0205,1.0522,1.0667,1.0972,1.1023,1.0947,1.1826,1.2202,1.2448,1.3617,1.427,1.4685,1.5399,1.5672,1.573,1.5999,1.5894,1.5742,1.6158,1.5752,1.5254,1.5514,1.5162,1.4656,1.4396,1.4285,1.4418,1.4921,1.4911,1.4999,1.6191,1.6138,1.6017,1.6398,1.6663,1.6487,1.5669,1.608,1.6417,1.5904,1.5592,1.5392,1.5188,1.4689,1.4346,1.4129,1.3928,1.3564,1.2973,1.2673,1.2305,1.1706,1.0738,0.9614,0.8178,0.8102,0.7795,0.7184,0.7022,0.6788,0.6563,0.5944,0.5559,0.5559,0.5012,0.4543,0.4382,0.4155,0.3921,0.0,0.0,0.9326,0.9284,0.0,0.0,0.0,0.0,0.0,0.0,0.0,0.0,0.0,0.0,0.0,0.0,0.0,0.0,0.0,0.0,0.0,0.0,0.0,0.0,0.0,0.0,0.0,0.0,0.0,0.0,0.0,0.5012,0.54,0.6514,0.6548,0.6732,0.7139,0.7311,0.7467,0.7723,0.8355,0.8876,0.934,0.9984,1.0667,1.1226,1.1217,1.1326,1.1436,1.182,1.2434,1.3173,1.3484,1.4051,1.49,1.5551,1.5884,1.6009,1.6249,1.6066,1.5846,1.6123,1.591,1.5641,1.5851,1.5494,1.5018,1.5096,1.4734,1.4423,1.4911,1.5102,1.52,1.579,1.6097,1.6438,1.6785,1.6873,1.6856,1.6649,1.6501,1.6298,1.6026,1.5843,1.5576,1.5275,1.5062,1.4713,1.4,1.3863,1.3645,1.3346,1.2753,1.2224,1.1929,1.0738,0.9614,0.878,0.8475,0.8021,0.7407,0.718,0.6945,0.6641,0.6257,0.5715,0.5012,0.4779,0.4465,0.3997,0.4077,0.3921,1.0389,1.0428,0.0,0.9995,1.0303,0.0,1.0606,0.0,0.0,0.0,0.0,0.0,0.0,0.0,0.0,0.0,0.0,0.0,0.0,0.927,0.0,0.0,0.0,0.0,0.0,0.0,0.0,0.0,0.0,0.0,0.0,0.0,0.5673,0.7083,0.6952,0.7151,0.7729,0.7794,0.7949,0.8249,0.8778,0.9242,0.9658,1.0395,1.1065,1.1628,1.1628,1.1728,1.1927,1.2026,1.2489,1.3152,1.3218,1.3671,1.436,1.5375,1.5924,1.6181,1.6249,1.6124,1.5999,1.6228,1.6191,1.6227,1.6496,1.6234,1.588,1.6208,1.5702,1.5185,1.5783,1.5894,1.5951,1.6373,1.6607,1.693,1.7349,1.733,1.7176,1.7166,1.683,1.6412,1.6202,1.6,1.5718,1.5275,1.5204,1.4919,1.4145,1.4,1.3855,1.363,1.2966,1.2298,1.1706,1.0812,0.9804,0.897,0.859,0.8143,0.7542,0.7222,0.6945,0.6714,0.6331,0.5712,0.4932,0.4779,0.4465,0.3921,0.3999,0.394]}]]